| time (UTC) | temp C | wind direction | speed KPH | gust KPH | rain 1hr cm | rain 24hr cm | rain mn cm | humidity % | barometer mb |
| 20260506111845 | 18 | 197 | 0.0 | 14.5 | 0.00 | 0.00 | 0.00 | 76 | 1006.4 |
| 20260506111745 | 18 | 199 | 0.0 | 11.3 | 0.00 | 0.00 | 0.00 | 76 | 1006.5 |
| 20260506111723 | 18 | 202 | 0.0 | 11.3 | 0.00 | 0.00 | 0.00 | 76 | 1006.5 |
| 20260506111644 | 18 | 206 | 0.0 | 11.3 | 0.00 | 0.00 | 0.00 | 76 | 1006.5 |
| 20260506111544 | 18 | 174 | 0.0 | 11.3 | 0.00 | 0.00 | 0.00 | 76 | 1006.5 |
| 20260506111520 | 18 | 183 | 4.8 | 11.3 | 0.00 | 0.00 | 0.00 | 76 | 1006.6 |
| 20260506111512 | 18 | 248 | 0.0 | 16.1 | 0.00 | 0.00 | 0.00 | 76 | 1006.5 |
| 20260506111507 | 18 | 151 | 0.0 | 16.1 | 0.00 | 0.00 | 0.00 | 76 | 1006.5 |
| 20260506111503 | 18 | 215 | 0.0 | 11.3 | 0.00 | 0.00 | 0.00 | 76 | 1006.5 |
| 20260506111223 | 18 | 188 | 0.0 | 16.1 | 0.00 | 0.00 | 0.00 | 76 | 1006.5 |
| 20260506111143 | 18 | 174 | 0.0 | 16.1 | 0.00 | 0.00 | 0.00 | 76 | 1006.5 |
| 20260506111100 | 18 | 167 | 0.0 | 16.1 | 0.00 | 0.00 | 0.00 | 76 | 1006.4 |
| 20260506111020 | 18 | 140 | 0.0 | 16.1 | 0.00 | 0.00 | 0.00 | 76 | 1006.5 |
| 20260506110942 | 18 | 130 | 0.0 | 16.1 | 0.00 | 0.00 | 0.00 | 76 | 1006.4 |
| 20260506110841 | 18 | 251 | 1.6 | 16.1 | 0.00 | 0.00 | 0.00 | 76 | 1006.5 |
| 20260506110830 | 18 | 157 | 1.6 | 16.1 | 0.00 | 0.00 | 0.00 | 76 | 1006.5 |
| 20260506110652 | 18 | 176 | 1.6 | 16.1 | 0.00 | 0.00 | 0.00 | 76 | 1006.4 |
| 20260506110648 | 18 | 225 | 1.6 | 16.1 | 0.00 | 0.00 | 0.00 | 76 | 1006.4 |
| 20260506110520 | 18 | 196 | 0.0 | 16.1 | 0.00 | 0.00 | 0.00 | 76 | 1006.5 |
| 20260506110438 | 18 | 132 | 1.6 | 16.1 | 0.00 | 0.00 | 0.00 | 76 | 1006.4 |
| 20260506110337 | 18 | 186 | 1.6 | 16.1 | 0.00 | 0.00 | 0.00 | 76 | 1006.3 |
| 20260506110254 | 18 | 192 | 1.6 | 20.9 | 0.00 | 0.00 | 0.00 | 76 | 1006.3 |
| 20260506110250 | 18 | 218 | 1.6 | 20.9 | 0.00 | 0.00 | 0.00 | 76 | 1006.3 |
| 20260506110242 | 18 | 191 | 1.6 | 20.9 | 0.00 | 0.00 | 0.00 | 76 | 1006.3 |
| 20260506110036 | 18 | 190 | 1.6 | 20.9 | 0.00 | 0.00 | 0.00 | 76 | 1006.3 |
| 20260506110020 | 18 | 169 | 0.0 | 20.9 | 0.00 | 0.00 | 0.00 | 76 | 1006.3 |
| 20260506105947 | 18 | 174 | 1.6 | 24.1 | 0.00 | 0.00 | 0.00 | 76 | 1006.2 |
| 20260506105942 | 18 | 170 | 1.6 | 20.9 | 0.00 | 0.00 | 0.00 | 76 | 1006.2 |
| 20260506105718 | 18 | 182 | 1.6 | 24.1 | 0.00 | 0.00 | 0.00 | 76 | 1006.2 |
| 20260506105644 | 18 | 175 | 3.2 | 24.1 | 0.00 | 0.00 | 0.00 | 77 | 1006.3 |
| 20260506105640 | 18 | 200 | 1.6 | 24.1 | 0.00 | 0.00 | 0.00 | 76 | 1006.2 |
| 20260506105520 | 18 | 176 | 14.5 | 22.5 | 0.00 | 0.00 | 0.00 | 77 | 1006.4 |
| 20260506105429 | 18 | 242 | 1.6 | 24.1 | 0.00 | 0.00 | 0.00 | 76 | 1006.3 |
| 20260506105327 | 18 | 175 | 1.6 | 24.1 | 0.00 | 0.00 | 0.00 | 76 | 1006.3 |
| 20260506105228 | 17 | 192 | 1.6 | 24.1 | 0.00 | 0.00 | 0.00 | 76 | 1006.4 |
| 20260506105221 | 17 | 190 | 1.6 | 24.1 | 0.00 | 0.00 | 0.00 | 76 | 1006.4 |
| 20260506105126 | 17 | 173 | 1.6 | 24.1 | 0.00 | 0.00 | 0.00 | 76 | 1006.4 |
| 20260506105035 | 17 | 171 | 1.6 | 22.5 | 0.00 | 0.00 | 0.00 | 76 | 1006.5 |
| 20260506105024 | 17 | 171 | 1.6 | 24.1 | 0.00 | 0.00 | 0.00 | 76 | 1006.4 |
| 20260506104923 | 17 | 152 | 1.6 | 24.1 | 0.00 | 0.00 | 0.00 | 76 | 1006.4 |
| 20260506104822 | 17 | 242 | 1.6 | 22.5 | 0.00 | 0.00 | 0.00 | 77 | 1006.4 |
| 20260506104724 | 17 | 192 | 1.6 | 12.9 | 0.00 | 0.00 | 0.00 | 77 | 1006.3 |
| 20260506104718 | 17 | 181 | 1.6 | 12.9 | 0.00 | 0.00 | 0.00 | 77 | 1006.3 |
| 20260506104621 | 17 | 181 | 1.6 | 14.5 | 0.00 | 0.00 | 0.00 | 76 | 1006.3 |
| 20260506104520 | 17 | 146 | 0.0 | 14.5 | 0.00 | 0.00 | 0.00 | 77 | 1006.4 |
| 20260506104433 | 17 | 161 | 1.6 | 19.3 | 0.00 | 0.00 | 0.00 | 77 | 1006.4 |
| 20260506104429 | 17 | 207 | 1.6 | 19.3 | 0.00 | 0.00 | 0.00 | 77 | 1006.4 |
| 20260506104424 | 17 | 159 | 1.6 | 19.3 | 0.00 | 0.00 | 0.00 | 77 | 1006.3 |
| 20260506104420 | 17 | 138 | 0.0 | 14.5 | 0.00 | 0.00 | 0.00 | 77 | 1006.3 |
| 20260506104411 | 17 | 189 | 0.0 | 14.5 | 0.00 | 0.00 | 0.00 | 77 | 1006.3 |
| 20260506104258 | 17 | 161 | 1.6 | 19.3 | 0.00 | 0.00 | 0.00 | 77 | 1006.4 |
| 20260506104143 | 17 | 162 | 1.6 | 19.3 | 0.00 | 0.00 | 0.00 | 77 | 1006.4 |
| 20260506104050 | 17 | 167 | 0.0 | 14.5 | 0.00 | 0.00 | 0.00 | 77 | 1006.4 |
| 20260506103719 | 17 | 148 | 1.6 | 19.3 | 0.00 | 0.00 | 0.00 | 76 | 1006.3 |
| 20260506103714 | 17 | 146 | 1.6 | 19.3 | 0.00 | 0.00 | 0.00 | 76 | 1006.3 |
| 20260506103615 | 18 | 161 | 1.6 | 19.3 | 0.00 | 0.00 | 0.00 | 76 | 1006.3 |
| 20260506103600 | 18 | 153 | 1.6 | 19.3 | 0.00 | 0.00 | 0.00 | 76 | 1006.3 |
| 20260506103535 | 18 | 154 | 0.0 | 16.1 | 0.00 | 0.00 | 0.00 | 76 | 1006.4 |
| 20260506103414 | 18 | 199 | 1.6 | 19.3 | 0.00 | 0.00 | 0.00 | 76 | 1006.3 |
| 20260506103342 | 18 | 159 | 0.0 | 17.7 | 0.00 | 0.00 | 0.00 | 76 | 1006.3 |
| 20260506103336 | 18 | 175 | 1.6 | 19.3 | 0.00 | 0.00 | 0.00 | 76 | 1006.4 |
| 20260506103221 | 18 | 164 | 1.6 | 17.7 | 0.00 | 0.00 | 0.00 | 76 | 1006.4 |
| 20260506103021 | 18 | 84 | 0.0 | 16.1 | 0.00 | 0.00 | 0.00 | 76 | 1006.5 |
| 20260506103013 | 18 | 84 | 0.0 | 17.7 | 0.00 | 0.00 | 0.00 | 76 | 1006.4 |
| 20260506102911 | 18 | 189 | 0.0 | 17.7 | 0.00 | 0.00 | 0.00 | 76 | 1006.4 |
| 20260506102811 | 18 | 134 | 1.6 | 17.7 | 0.00 | 0.00 | 0.00 | 76 | 1006.3 |
| 20260506102755 | 18 | 190 | 1.6 | 17.7 | 0.00 | 0.00 | 0.00 | 76 | 1006.3 |
| 20260506102751 | 18 | 186 | 1.6 | 17.7 | 0.00 | 0.00 | 0.00 | 76 | 1006.3 |
| 20260506102746 | 18 | 256 | 1.6 | 17.7 | 0.00 | 0.00 | 0.00 | 76 | 1006.3 |
| 20260506102740 | 18 | 256 | 1.6 | 17.7 | 0.00 | 0.00 | 0.00 | 76 | 1006.4 |
| 20260506102520 | 18 | 167 | 0.0 | 17.7 | 0.00 | 0.00 | 0.00 | 76 | 1006.4 |
| 20260506102517 | 18 | 162 | 1.6 | 17.7 | 0.00 | 0.00 | 0.00 | 76 | 1006.3 |
| 20260506102322 | 18 | 188 | 0.0 | 17.7 | 0.00 | 0.00 | 0.00 | 76 | 1006.2 |
| 20260506102206 | 18 | 156 | 0.0 | 17.7 | 0.00 | 0.00 | 0.00 | 76 | 1006.2 |
| 20260506102127 | 18 | 165 | 0.0 | 17.7 | 0.00 | 0.00 | 0.00 | 76 | 1006.2 |
| 20260506102020 | 18 | 164 | 0.0 | 17.7 | 0.00 | 0.00 | 0.00 | 76 | 1006.3 |
| 20260506102014 | 18 | 163 | 1.6 | 17.7 | 0.00 | 0.00 | 0.00 | 76 | 1006.2 |
| 20260506101818 | 18 | 175 | 1.6 | 24.1 | 0.00 | 0.00 | 0.00 | 76 | 1006.3 |
| 20260506101809 | 18 | 192 | 1.6 | 24.1 | 0.00 | 0.00 | 0.00 | 76 | 1006.3 |
| 20260506101603 | 18 | 172 | 1.6 | 24.1 | 0.00 | 0.00 | 0.00 | 76 | 1006.3 |
| 20260506101520 | 18 | 160 | 0.0 | 24.1 | 0.00 | 0.00 | 0.00 | 76 | 1006.4 |
| 20260506101503 | 18 | 184 | 1.6 | 24.1 | 0.00 | 0.00 | 0.00 | 76 | 1006.3 |
| 20260506101403 | 18 | 150 | 1.6 | 24.1 | 0.00 | 0.00 | 0.00 | 76 | 1006.3 |
| 20260506101302 | 18 | 152 | 1.6 | 24.1 | 0.00 | 0.00 | 0.00 | 76 | 1006.3 |
| 20260506101211 | 18 | 189 | 1.6 | 24.1 | 0.00 | 0.00 | 0.00 | 76 | 1006.3 |
| 20260506101201 | 18 | 228 | 1.6 | 24.1 | 0.00 | 0.00 | 0.00 | 76 | 1006.3 |
| 20260506101101 | 18 | 198 | 1.6 | 24.1 | 0.00 | 0.00 | 0.00 | 76 | 1006.2 |
| 20260506101020 | 18 | 162 | 0.0 | 24.1 | 0.00 | 0.00 | 0.00 | 76 | 1006.3 |
| 20260506101000 | 18 | 161 | 1.6 | 24.1 | 0.00 | 0.00 | 0.00 | 76 | 1006.2 |
| 20260506100858 | 18 | 159 | 1.6 | 24.1 | 0.00 | 0.00 | 0.00 | 76 | 1006.2 |
| 20260506100759 | 18 | 158 | 1.6 | 19.3 | 0.00 | 0.00 | 0.00 | 76 | 1006.2 |
| 20260506100719 | 18 | 184 | 1.6 | 19.3 | 0.00 | 0.00 | 0.00 | 76 | 1006.3 |
| 20260506100714 | 18 | 155 | 1.6 | 19.3 | 0.00 | 0.00 | 0.00 | 76 | 1006.2 |
| 20260506100709 | 18 | 188 | 1.6 | 19.3 | 0.00 | 0.00 | 0.00 | 76 | 1006.2 |
| 20260506100659 | 18 | 168 | 1.6 | 19.3 | 0.00 | 0.00 | 0.00 | 76 | 1006.2 |
| 20260506100535 | 18 | 169 | 1.6 | 19.3 | 0.00 | 0.00 | 0.00 | 76 | 1006.4 |
| 20260506100357 | 18 | 0 | 1.6 | 14.5 | 0.00 | 0.00 | 0.00 | 76 | 1006.3 |
| 20260506100320 | 18 | 209 | 1.6 | 14.5 | 0.00 | 0.00 | 0.00 | 76 | 1006.3 |
| 20260506100156 | 18 | 173 | 1.6 | 16.1 | 0.00 | 0.00 | 0.00 | 76 | 1006.3 |
| 20260506100056 | 18 | 148 | 1.6 | 16.1 | 0.00 | 0.00 | 0.00 | 76 | 1006.3 |
| 20260506100020 | 18 | 156 | 0.0 | 14.5 | 0.00 | 0.00 | 0.00 | 76 | 1006.4 |
| 20260506095954 | 18 | 185 | 1.6 | 16.1 | 0.00 | 0.00 | 0.00 | 76 | 1006.3 |
| 20260506095853 | 18 | 175 | 1.6 | 16.1 | 0.00 | 0.00 | 0.00 | 76 | 1006.3 |
| 20260506095752 | 18 | 209 | 1.6 | 16.1 | 0.00 | 0.00 | 0.00 | 76 | 1006.3 |
| 20260506095712 | 18 | 164 | 1.6 | 16.1 | 0.00 | 0.00 | 0.00 | 76 | 1006.3 |
| 20260506095651 | 18 | 167 | 1.6 | 16.1 | 0.00 | 0.00 | 0.00 | 76 | 1006.3 |
| 20260506095551 | 18 | 184 | 1.6 | 22.5 | 0.00 | 0.00 | 0.00 | 76 | 1006.3 |
| 20260506095520 | 18 | 167 | 0.0 | 22.5 | 0.00 | 0.00 | 0.00 | 76 | 1006.4 |
| 20260506095450 | 18 | 179 | 1.6 | 22.5 | 0.00 | 0.00 | 0.00 | 76 | 1006.3 |
| 20260506095349 | 18 | 144 | 1.6 | 22.5 | 0.00 | 0.00 | 0.00 | 76 | 1006.3 |
| 20260506095249 | 18 | 203 | 1.6 | 22.5 | 0.00 | 0.00 | 0.00 | 76 | 1006.3 |
| 20260506095212 | 18 | 139 | 1.6 | 22.5 | 0.00 | 0.00 | 0.00 | 76 | 1006.3 |
| 20260506095148 | 18 | 180 | 1.6 | 22.5 | 0.00 | 0.00 | 0.00 | 76 | 1006.3 |
| 20260506095048 | 18 | 186 | 1.6 | 22.5 | 0.00 | 0.00 | 0.00 | 76 | 1006.3 |
| 20260506095020 | 18 | 182 | 0.0 | 22.5 | 0.00 | 0.00 | 0.00 | 76 | 1006.5 |
| 20260506094947 | 18 | 217 | 1.6 | 22.5 | 0.00 | 0.00 | 0.00 | 76 | 1006.4 |
| 20260506094847 | 18 | 171 | 1.6 | 22.5 | 0.00 | 0.00 | 0.00 | 76 | 1006.3 |
| 20260506094745 | 18 | 150 | 1.6 | 22.5 | 0.00 | 0.00 | 0.00 | 75 | 1006.3 |
| 20260506094711 | 18 | 203 | 1.6 | 22.5 | 0.00 | 0.00 | 0.00 | 75 | 1006.3 |
| 20260506094645 | 18 | 167 | 1.6 | 22.5 | 0.00 | 0.00 | 0.00 | 75 | 1006.3 |
| 20260506094543 | 18 | 176 | 0.0 | 12.9 | 0.00 | 0.00 | 0.00 | 75 | 1006.4 |
| 20260506094520 | 18 | 173 | 0.0 | 8.0 | 0.00 | 0.00 | 0.00 | 75 | 1006.4 |
| 20260506094443 | 18 | 173 | 0.0 | 12.9 | 0.00 | 0.00 | 0.00 | 75 | 1006.3 |
| 20260506094342 | 18 | 121 | 0.0 | 12.9 | 0.00 | 0.00 | 0.00 | 75 | 1006.3 |
| 20260506094242 | 18 | 199 | 0.0 | 12.9 | 0.00 | 0.00 | 0.00 | 75 | 1006.3 |
| 20260506094209 | 18 | 209 | 0.0 | 12.9 | 0.00 | 0.00 | 0.00 | 75 | 1006.2 |
| 20260506094140 | 18 | 212 | 0.0 | 12.9 | 0.00 | 0.00 | 0.00 | 75 | 1006.2 |
| 20260506094039 | 18 | 188 | 0.0 | 12.9 | 0.00 | 0.00 | 0.00 | 75 | 1006.2 |
| 20260506094021 | 18 | 165 | 0.0 | 12.9 | 0.00 | 0.00 | 0.00 | 75 | 1006.2 |
| 20260506094015 | 18 | 174 | 0.0 | 12.9 | 0.00 | 0.00 | 0.00 | 75 | 1006.2 |
| 20260506093902 | 18 | 182 | 0.0 | 12.9 | 0.00 | 0.00 | 0.00 | 75 | 1006.3 |
| 20260506093744 | 18 | 173 | 0.0 | 12.9 | 0.00 | 0.00 | 0.00 | 75 | 1006.2 |
| 20260506093537 | 18 | 203 | 0.0 | 11.3 | 0.00 | 0.00 | 0.00 | 75 | 1006.2 |
| 20260506093520 | 18 | 198 | 0.0 | 11.3 | 0.00 | 0.00 | 0.00 | 75 | 1006.3 |
| 20260506093437 | 18 | 197 | 0.0 | 11.3 | 0.00 | 0.00 | 0.00 | 75 | 1006.2 |
| 20260506093336 | 18 | 195 | 0.0 | 11.3 | 0.00 | 0.00 | 0.00 | 75 | 1006.1 |
| 20260506093234 | 18 | 146 | 0.0 | 11.3 | 0.00 | 0.00 | 0.00 | 75 | 1006.2 |
| 20260506093208 | 18 | 0 | 0.0 | 11.3 | 0.00 | 0.00 | 0.00 | 75 | 1006.2 |
| 20260506093133 | 18 | 189 | 0.0 | 11.3 | 0.00 | 0.00 | 0.00 | 75 | 1006.2 |
| 20260506093033 | 18 | 176 | 1.6 | 11.3 | 0.00 | 0.00 | 0.00 | 75 | 1006.2 |
| 20260506093021 | 18 | 178 | 0.0 | 11.3 | 0.00 | 0.00 | 0.00 | 75 | 1006.3 |
| 20260506092932 | 18 | 184 | 1.6 | 11.3 | 0.00 | 0.00 | 0.00 | 75 | 1006.2 |
| 20260506092831 | 18 | 165 | 1.6 | 17.7 | 0.00 | 0.00 | 0.00 | 75 | 1006.1 |
| 20260506092730 | 18 | 147 | 1.6 | 17.7 | 0.00 | 0.00 | 0.00 | 75 | 1006.2 |
| 20260506092707 | 18 | 181 | 1.6 | 17.7 | 0.00 | 0.00 | 0.00 | 75 | 1006.2 |
| 20260506092629 | 18 | 199 | 1.6 | 17.7 | 0.00 | 0.00 | 0.00 | 75 | 1006.2 |
| 20260506092543 | 18 | 182 | 1.6 | 17.7 | 0.00 | 0.00 | 0.00 | 75 | 1006.2 |
| 20260506092539 | 18 | 201 | 1.6 | 17.7 | 0.00 | 0.00 | 0.00 | 75 | 1006.2 |
| 20260506092520 | 18 | 203 | 0.0 | 17.7 | 0.00 | 0.00 | 0.00 | 75 | 1006.3 |
| 20260506092329 | 18 | 185 | 1.6 | 17.7 | 0.00 | 0.00 | 0.00 | 75 | 1006.2 |
| 20260506092256 | 18 | 192 | 1.6 | 17.7 | 0.00 | 0.00 | 0.00 | 74 | 1006.2 |
| 20260506092248 | 18 | 194 | 1.6 | 17.7 | 0.00 | 0.00 | 0.00 | 74 | 1006.2 |
| 20260506092138 | 18 | 240 | 1.6 | 17.7 | 0.00 | 0.00 | 0.00 | 74 | 1006.2 |
| 20260506092020 | 18 | 152 | 0.0 | 17.7 | 0.00 | 0.00 | 0.00 | 74 | 1006.2 |
| 20260506091928 | 18 | 174 | 1.6 | 17.7 | 0.00 | 0.00 | 0.00 | 74 | 1006.1 |
| 20260506091828 | 18 | 148 | 1.6 | 14.5 | 0.00 | 0.00 | 0.00 | 74 | 1006.2 |
| 20260506091726 | 18 | 193 | 1.6 | 14.5 | 0.00 | 0.00 | 0.00 | 74 | 1006.2 |
| 20260506091706 | 18 | 177 | 1.6 | 14.5 | 0.00 | 0.00 | 0.00 | 74 | 1006.2 |
| 20260506091626 | 18 | 154 | 1.6 | 14.5 | 0.00 | 0.00 | 0.00 | 74 | 1006.2 |
| 20260506091525 | 18 | 185 | 1.6 | 14.5 | 0.00 | 0.00 | 0.00 | 74 | 1006.2 |
| 20260506091520 | 18 | 161 | 0.0 | 14.5 | 0.00 | 0.00 | 0.00 | 74 | 1006.3 |
| 20260506091438 | 18 | 163 | 0.0 | 8.0 | 0.00 | 0.00 | 0.00 | 74 | 1006.2 |
| 20260506091434 | 18 | 177 | 0.0 | 14.5 | 0.00 | 0.00 | 0.00 | 74 | 1006.2 |
| 20260506091224 | 18 | 167 | 0.0 | 8.0 | 0.00 | 0.00 | 0.00 | 74 | 1006.2 |
| 20260506091207 | 18 | 155 | 0.0 | 4.8 | 0.00 | 0.00 | 0.00 | 74 | 1006.3 |
| 20260506091136 | 18 | 189 | 0.0 | 8.0 | 0.00 | 0.00 | 0.00 | 74 | 1006.3 |
| 20260506091132 | 18 | 145 | 0.0 | 1.6 | 0.00 | 0.00 | 0.00 | 74 | 1006.3 |
| 20260506091020 | 18 | 205 | 0.0 | 8.0 | 0.00 | 0.00 | 0.00 | 74 | 1006.3 |
| 20260506090922 | 18 | 140 | 0.0 | 8.0 | 0.00 | 0.00 | 0.00 | 74 | 1006.2 |
| 20260506090821 | 18 | 169 | 0.0 | 8.0 | 0.00 | 0.00 | 0.00 | 74 | 1006.3 |
| 20260506090720 | 18 | 128 | 0.0 | 12.9 | 0.00 | 0.00 | 0.00 | 74 | 1006.3 |
| 20260506090708 | 18 | 0 | 0.0 | 12.9 | 0.00 | 0.00 | 0.00 | 74 | 1006.3 |
| 20260506090620 | 18 | 180 | 0.0 | 12.9 | 0.00 | 0.00 | 0.00 | 74 | 1006.3 |
| 20260506090531 | 18 | 153 | 0.0 | 12.9 | 0.00 | 0.00 | 0.00 | 74 | 1006.3 |
| 20260506090527 | 18 | 159 | 0.0 | 12.9 | 0.00 | 0.00 | 0.00 | 74 | 1006.2 |
| 20260506090520 | 18 | 159 | 0.0 | 12.9 | 0.00 | 0.00 | 0.00 | 74 | 1006.4 |
| 20260506090317 | 18 | 189 | 0.0 | 12.9 | 0.00 | 0.00 | 0.00 | 74 | 1006.2 |
| 20260506090241 | 18 | 169 | 0.0 | 12.9 | 0.00 | 0.00 | 0.00 | 74 | 1006.2 |
| 20260506090235 | 18 | 169 | 0.0 | 12.9 | 0.00 | 0.00 | 0.00 | 74 | 1006.3 |
| 20260506090123 | 18 | 198 | 0.0 | 12.9 | 0.00 | 0.00 | 0.00 | 74 | 1006.3 |
| 20260506090020 | 18 | 182 | 1.6 | 12.9 | 0.00 | 0.00 | 0.00 | 74 | 1006.3 |
| 20260506085911 | 18 | 131 | 0.0 | 12.9 | 0.00 | 0.00 | 0.00 | 74 | 1006.3 |
| 20260506085811 | 18 | 190 | 0.0 | 12.9 | 0.00 | 0.00 | 0.00 | 74 | 1006.4 |
| 20260506085713 | 18 | 186 | 0.0 | 9.7 | 0.00 | 0.00 | 0.00 | 74 | 1006.3 |
| 20260506085707 | 18 | 189 | 0.0 | 9.7 | 0.00 | 0.00 | 0.00 | 74 | 1006.3 |
| 20260506085611 | 18 | 173 | 0.0 | 25.7 | 0.00 | 0.00 | 0.00 | 74 | 1006.3 |
| 20260506085520 | 18 | 151 | 0.0 | 12.9 | 0.00 | 0.00 | 0.00 | 74 | 1006.5 |
| 20260506085509 | 18 | 132 | 0.0 | 25.7 | 0.00 | 0.00 | 0.00 | 74 | 1006.4 |
| 20260506085409 | 18 | 177 | 1.6 | 25.7 | 0.00 | 0.00 | 0.00 | 73 | 1006.3 |
| 20260506085327 | 18 | 195 | 1.6 | 25.7 | 0.00 | 0.00 | 0.00 | 73 | 1006.3 |
| 20260506085321 | 18 | 177 | 1.6 | 25.7 | 0.00 | 0.00 | 0.00 | 73 | 1006.3 |
| 20260506085205 | 18 | 195 | 1.6 | 25.7 | 0.00 | 0.00 | 0.00 | 73 | 1006.3 |
| 20260506085107 | 18 | 138 | 1.6 | 25.7 | 0.00 | 0.00 | 0.00 | 73 | 1006.3 |
| 20260506085020 | 18 | 180 | 0.0 | 24.1 | 0.00 | 0.00 | 0.00 | 73 | 1006.4 |
| 20260506085007 | 18 | 170 | 1.6 | 25.7 | 0.00 | 0.00 | 0.00 | 73 | 1006.3 |
| 20260506084930 | 18 | 132 | 3.2 | 25.7 | 0.00 | 0.00 | 0.00 | 73 | 1006.3 |
| 20260506084907 | 18 | 155 | 1.6 | 25.7 | 0.00 | 0.00 | 0.00 | 73 | 1006.3 |
| 20260506084820 | 18 | 161 | 1.6 | 25.7 | 0.00 | 0.00 | 0.00 | 73 | 1006.3 |
| 20260506084705 | 18 | 144 | 3.2 | 25.7 | 0.00 | 0.00 | 0.00 | 73 | 1006.3 |
| 20260506084627 | 18 | 224 | 3.2 | 25.7 | 0.00 | 0.00 | 0.00 | 73 | 1006.2 |
| 20260506084535 | 18 | 165 | 0.0 | 25.7 | 0.00 | 0.00 | 0.00 | 73 | 1006.4 |
| 20260506084514 | 18 | 165 | 3.2 | 25.7 | 0.00 | 0.00 | 0.00 | 73 | 1006.3 |
| 20260506084304 | 18 | 148 | 3.2 | 25.7 | 0.00 | 0.00 | 0.00 | 73 | 1006.3 |
| 20260506084209 | 18 | 180 | 3.2 | 32.2 | 0.00 | 0.00 | 0.00 | 73 | 1006.2 |
| 20260506084204 | 18 | 168 | 3.2 | 32.2 | 0.00 | 0.00 | 0.00 | 73 | 1006.2 |
| 20260506084102 | 18 | 185 | 1.6 | 32.2 | 0.00 | 0.00 | 0.00 | 73 | 1006.3 |
| 20260506084035 | 18 | 196 | 0.0 | 32.2 | 0.00 | 0.00 | 0.00 | 73 | 1006.4 |
| 20260506084003 | 18 | 186 | 1.6 | 32.2 | 0.00 | 0.00 | 0.00 | 73 | 1006.3 |
| 20260506083902 | 18 | 175 | 3.2 | 32.2 | 0.00 | 0.00 | 0.00 | 73 | 1006.3 |
| 20260506083801 | 18 | 219 | 3.2 | 32.2 | 0.00 | 0.00 | 0.00 | 73 | 1006.3 |
| 20260506083733 | 18 | 182 | 1.6 | 32.2 | 0.00 | 0.00 | 0.00 | 73 | 1006.3 |
| 20260506083729 | 18 | 184 | 3.2 | 32.2 | 0.00 | 0.00 | 0.00 | 73 | 1006.3 |
| 20260506083724 | 18 | 191 | 1.6 | 32.2 | 0.00 | 0.00 | 0.00 | 73 | 1006.4 |
| 20260506083718 | 18 | 223 | 1.6 | 32.2 | 0.00 | 0.00 | 0.00 | 73 | 1006.4 |
| 20260506083520 | 18 | 192 | 0.0 | 32.2 | 0.00 | 0.00 | 0.00 | 73 | 1006.4 |
| 20260506083437 | 18 | 173 | 1.6 | 19.3 | 0.00 | 0.00 | 0.00 | 73 | 1006.4 |
| 20260506083359 | 18 | 192 | 3.2 | 32.2 | 0.00 | 0.00 | 0.00 | 73 | 1006.4 |
| 20260506083315 | 18 | 188 | 1.6 | 32.2 | 0.00 | 0.00 | 0.00 | 73 | 1006.4 |
| 20260506083158 | 18 | 173 | 1.6 | 19.3 | 0.00 | 0.00 | 0.00 | 73 | 1006.4 |
| 20260506083058 | 18 | 177 | 1.6 | 19.3 | 0.00 | 0.00 | 0.00 | 73 | 1006.3 |
| 20260506083020 | 18 | 192 | 0.0 | 17.7 | 0.00 | 0.00 | 0.00 | 73 | 1006.4 |
| 20260506082957 | 18 | 188 | 1.6 | 19.3 | 0.00 | 0.00 | 0.00 | 73 | 1006.3 |
| 20260506082856 | 18 | 172 | 1.6 | 19.3 | 0.00 | 0.00 | 0.00 | 73 | 1006.3 |
| 20260506082755 | 18 | 169 | 1.6 | 19.3 | 0.00 | 0.00 | 0.00 | 73 | 1006.3 |
| 20260506082714 | 18 | 136 | 1.6 | 19.3 | 0.00 | 0.00 | 0.00 | 73 | 1006.3 |
| 20260506082710 | 18 | 186 | 1.6 | 19.3 | 0.00 | 0.00 | 0.00 | 73 | 1006.3 |
| 20260506082703 | 18 | 188 | 1.6 | 19.3 | 0.00 | 0.00 | 0.00 | 73 | 1006.3 |
| 20260506082520 | 18 | 159 | 0.0 | 17.7 | 0.00 | 0.00 | 0.00 | 73 | 1006.4 |
| 20260506082454 | 18 | 170 | 1.6 | 19.3 | 0.00 | 0.00 | 0.00 | 73 | 1006.3 |
| 20260506082352 | 18 | 180 | 1.6 | 14.5 | 0.00 | 0.00 | 0.00 | 73 | 1006.3 |
| 20260506082252 | 18 | 158 | 0.0 | 14.5 | 0.00 | 0.00 | 0.00 | 73 | 1006.3 |
| 20260506082204 | 18 | 180 | 0.0 | 14.5 | 0.00 | 0.00 | 0.00 | 73 | 1006.2 |
| 20260506082152 | 18 | 188 | 0.0 | 11.3 | 0.00 | 0.00 | 0.00 | 73 | 1006.2 |
| 20260506082118 | 18 | 152 | 0.0 | 12.9 | 0.00 | 0.00 | 0.00 | 73 | 1006.3 |
| 20260506082020 | 18 | 148 | 9.7 | 12.9 | 0.00 | 0.00 | 0.00 | 73 | 1006.3 |
| 20260506082006 | 18 | 175 | 1.6 | 16.1 | 0.00 | 0.00 | 0.00 | 73 | 1006.3 |
| 20260506082000 | 18 | 163 | 1.6 | 12.9 | 0.00 | 0.00 | 0.00 | 73 | 1006.2 |
| 20260506081811 | 18 | 170 | 1.6 | 16.1 | 0.00 | 0.00 | 0.00 | 73 | 1006.3 |
| 20260506081649 | 18 | 170 | 1.6 | 16.1 | 0.00 | 0.00 | 0.00 | 73 | 1006.3 |
| 20260506081615 | 18 | 196 | 1.6 | 16.1 | 0.00 | 0.00 | 0.00 | 73 | 1006.3 |
| 20260506081611 | 18 | 184 | 1.6 | 16.1 | 0.00 | 0.00 | 0.00 | 73 | 1006.3 |
| 20260506081606 | 18 | 191 | 1.6 | 16.1 | 0.00 | 0.00 | 0.00 | 73 | 1006.3 |
| 20260506081520 | 18 | 153 | 0.0 | 16.1 | 0.00 | 0.00 | 0.00 | 73 | 1006.4 |
| 20260506081307 | 18 | 128 | 1.6 | 16.1 | 0.00 | 0.00 | 0.00 | 73 | 1006.4 |
| 20260506081301 | 18 | 196 | 1.6 | 16.1 | 0.00 | 0.00 | 0.00 | 73 | 1006.3 |
| 20260506081253 | 18 | 178 | 1.6 | 16.1 | 0.00 | 0.00 | 0.00 | 73 | 1006.4 |
| 20260506081045 | 18 | 172 | 1.6 | 16.1 | 0.00 | 0.00 | 0.00 | 73 | 1006.4 |
| 20260506081035 | 18 | 169 | 0.0 | 16.1 | 0.00 | 0.00 | 0.00 | 73 | 1006.5 |
| 20260506080945 | 18 | 176 | 0.0 | 16.1 | 0.00 | 0.00 | 0.00 | 73 | 1006.4 |
| 20260506080844 | 18 | 167 | 0.0 | 8.0 | 0.00 | 0.00 | 0.00 | 73 | 1006.4 |
| 20260506080803 | 18 | 155 | 1.6 | 16.1 | 0.00 | 0.00 | 0.00 | 73 | 1006.4 |
| 20260506080757 | 18 | 195 | 0.0 | 8.0 | 0.00 | 0.00 | 0.00 | 73 | 1006.4 |
| 20260506080749 | 18 | 158 | 1.6 | 14.5 | 0.00 | 0.00 | 0.00 | 73 | 1006.4 |
| 20260506080542 | 18 | 173 | 1.6 | 16.1 | 0.00 | 0.00 | 0.00 | 73 | 1006.4 |
| 20260506080520 | 18 | 175 | 0.0 | 16.1 | 0.00 | 0.00 | 0.00 | 73 | 1006.5 |
| 20260506080442 | 18 | 175 | 1.6 | 16.1 | 0.00 | 0.00 | 0.00 | 73 | 1006.4 |
| 20260506080424 | 18 | 179 | 1.6 | 22.5 | 0.00 | 0.00 | 0.00 | 73 | 1006.5 |
| 20260506080342 | 18 | 170 | 1.6 | 22.5 | 0.00 | 0.00 | 0.00 | 73 | 1006.4 |
| 20260506080310 | 18 | 196 | 1.6 | 22.5 | 0.00 | 0.00 | 0.00 | 73 | 1006.4 |
| 20260506080154 | 18 | 176 | 1.6 | 22.5 | 0.00 | 0.00 | 0.00 | 72 | 1006.4 |
| 20260506080149 | 18 | 155 | 1.6 | 22.5 | 0.00 | 0.00 | 0.00 | 73 | 1006.5 |
| 20260506073525 | 19 | 192 | 1.6 | 17.7 | 0.00 | 0.00 | 0.00 | 71 | 1006.6 |
| 20260506073521 | 19 | 360 | 0.0 | 17.7 | 0.00 | 0.00 | 0.00 | 71 | 1006.7 |
| 20260506073423 | 19 | 191 | 1.6 | 17.7 | 0.00 | 0.00 | 0.00 | 71 | 1006.6 |
| 20260506073323 | 19 | 138 | 1.6 | 17.7 | 0.00 | 0.00 | 0.00 | 71 | 1006.6 |
| 20260506073223 | 19 | 175 | 1.6 | 17.7 | 0.00 | 0.00 | 0.00 | 71 | 1006.6 |
| 20260506073200 | 19 | 177 | 1.6 | 17.7 | 0.00 | 0.00 | 0.00 | 71 | 1006.6 |
| 20260506073122 | 19 | 193 | 1.6 | 17.7 | 0.00 | 0.00 | 0.00 | 71 | 1006.6 |
| 20260506073049 | 19 | 154 | 0.0 | 17.7 | 0.00 | 0.00 | 0.00 | 71 | 1006.7 |
| 20260506073021 | 19 | 154 | 1.6 | 17.7 | 0.00 | 0.00 | 0.00 | 71 | 1006.6 |
| 20260506072943 | 19 | 138 | 1.6 | 17.7 | 0.00 | 0.00 | 0.00 | 71 | 1006.6 |
| 20260506072830 | 19 | 197 | 1.6 | 17.7 | 0.00 | 0.00 | 0.00 | 71 | 1006.6 |
| 20260506072657 | 19 | 171 | 1.6 | 17.7 | 0.00 | 0.00 | 0.00 | 71 | 1006.6 |
| 20260506072619 | 19 | 196 | 1.6 | 17.7 | 0.00 | 0.00 | 0.00 | 71 | 1006.6 |
| 20260506072604 | 19 | 169 | 0.0 | 16.1 | 0.00 | 0.00 | 0.00 | 71 | 1006.7 |
| 20260506072518 | 19 | 155 | 1.6 | 16.1 | 0.00 | 0.00 | 0.00 | 71 | 1006.6 |
| 20260506072417 | 19 | 190 | 1.6 | 16.1 | 0.00 | 0.00 | 0.00 | 71 | 1006.6 |
| 20260506072317 | 19 | 194 | 1.6 | 16.1 | 0.00 | 0.00 | 0.00 | 71 | 1006.6 |
| 20260506072216 | 19 | 181 | 1.6 | 16.1 | 0.00 | 0.00 | 0.00 | 71 | 1006.6 |
| 20260506072157 | 19 | 192 | 1.6 | 16.1 | 0.00 | 0.00 | 0.00 | 70 | 1006.6 |
| 20260506072115 | 19 | 192 | 1.6 | 16.1 | 0.00 | 0.00 | 0.00 | 70 | 1006.6 |
| 20260506072019 | 19 | 184 | 0.0 | 16.1 | 0.00 | 0.00 | 0.00 | 70 | 1006.7 |
| 20260506072014 | 19 | 182 | 1.6 | 16.1 | 0.00 | 0.00 | 0.00 | 70 | 1006.6 |
| 20260506071913 | 19 | 0 | 1.6 | 16.1 | 0.00 | 0.00 | 0.00 | 70 | 1006.6 |
| 20260506071813 | 19 | 157 | 1.6 | 16.1 | 0.00 | 0.00 | 0.00 | 70 | 1006.6 |
| 20260506071733 | 19 | 206 | 1.6 | 16.1 | 0.00 | 0.00 | 0.00 | 70 | 1006.7 |
| 20260506071727 | 19 | 155 | 1.6 | 16.1 | 0.00 | 0.00 | 0.00 | 70 | 1006.6 |
| 20260506071720 | 19 | 171 | 1.6 | 16.1 | 0.00 | 0.00 | 0.00 | 70 | 1006.6 |
| 20260506071520 | 19 | 180 | 0.0 | 16.1 | 0.00 | 0.00 | 0.00 | 70 | 1006.7 |
| 20260506071511 | 19 | 180 | 1.6 | 16.1 | 0.00 | 0.00 | 0.00 | 70 | 1006.6 |
| 20260506071411 | 19 | 0 | 1.6 | 16.1 | 0.00 | 0.00 | 0.00 | 70 | 1006.6 |
| 20260506071310 | 19 | 172 | 1.6 | 16.1 | 0.00 | 0.00 | 0.00 | 70 | 1006.6 |
| 20260506071209 | 19 | 153 | 1.6 | 16.1 | 0.00 | 0.00 | 0.00 | 70 | 1006.7 |
| 20260506071154 | 19 | 175 | 1.6 | 16.1 | 0.00 | 0.00 | 0.00 | 70 | 1006.7 |
| 20260506071110 | 19 | 176 | 1.6 | 16.1 | 0.00 | 0.00 | 0.00 | 70 | 1006.6 |
| 20260506071023 | 19 | 187 | 0.0 | 16.1 | 0.00 | 0.00 | 0.00 | 70 | 1006.6 |
| 20260506071019 | 19 | 182 | 0.0 | 16.1 | 0.00 | 0.00 | 0.00 | 69 | 1006.8 |
| 20260506070807 | 19 | 182 | 0.0 | 12.9 | 0.00 | 0.00 | 0.00 | 69 | 1006.7 |
| 20260506070707 | 19 | 162 | 0.0 | 12.9 | 0.00 | 0.00 | 0.00 | 69 | 1006.6 |
| 20260506070654 | 19 | 161 | 0.0 | 12.9 | 0.00 | 0.00 | 0.00 | 69 | 1006.6 |
| 20260506070606 | 19 | 214 | 0.0 | 12.9 | 0.00 | 0.00 | 0.00 | 69 | 1006.6 |
| 20260506070520 | 19 | 165 | 0.0 | 12.9 | 0.00 | 0.00 | 0.00 | 69 | 1006.7 |
| 20260506070506 | 19 | 167 | 0.0 | 12.9 | 0.00 | 0.00 | 0.00 | 69 | 1006.6 |
| 20260506070406 | 19 | 199 | 1.6 | 16.1 | 0.00 | 0.00 | 0.00 | 69 | 1006.6 |
| 20260506070304 | 19 | 0 | 1.6 | 16.1 | 0.00 | 0.00 | 0.00 | 69 | 1006.7 |
| 20260506070204 | 19 | 232 | 1.6 | 16.1 | 0.00 | 0.00 | 0.00 | 69 | 1006.7 |
| 20260506070154 | 19 | 180 | 1.6 | 16.1 | 0.00 | 0.00 | 0.00 | 69 | 1006.7 |
| 20260506070104 | 19 | 159 | 1.6 | 16.1 | 0.00 | 0.00 | 0.00 | 69 | 1006.7 |
| 20260506062436 | 20 | 200 | 0.0 | 14.5 | 0.00 | 0.00 | 0.00 | 67 | 1007.1 |
| 20260506062335 | 20 | 193 | 0.0 | 12.9 | 0.00 | 0.00 | 0.00 | 67 | 1007.1 |
| 20260506062235 | 20 | 190 | 0.0 | 12.9 | 0.00 | 0.00 | 0.00 | 67 | 1007.1 |
| 20260506062154 | 20 | 200 | 0.0 | 12.9 | 0.00 | 0.00 | 0.00 | 67 | 1007.1 |
| 20260506062148 | 20 | 185 | 0.0 | 12.9 | 0.00 | 0.00 | 0.00 | 67 | 1007.1 |
| 20260506062143 | 20 | 206 | 0.0 | 12.9 | 0.00 | 0.00 | 0.00 | 67 | 1007.1 |
| 20260506062019 | 20 | 180 | 0.0 | 12.9 | 0.00 | 0.00 | 0.00 | 67 | 1007.3 |
| 20260506061933 | 20 | 187 | 0.0 | 12.9 | 0.00 | 0.00 | 0.00 | 67 | 1007.1 |
| 20260506061832 | 20 | 234 | 0.0 | 12.9 | 0.00 | 0.00 | 0.00 | 67 | 1007.1 |
| 20260506061736 | 20 | 182 | 0.0 | 6.4 | 0.00 | 0.00 | 0.00 | 67 | 1007.1 |
| 20260506061731 | 20 | 144 | 0.0 | 12.9 | 0.00 | 0.00 | 0.00 | 67 | 1007.1 |
| 20260506061724 | 20 | 188 | 0.0 | 6.4 | 0.00 | 0.00 | 0.00 | 67 | 1007.1 |
| 20260506061720 | 20 | 175 | 0.0 | 6.4 | 0.00 | 0.00 | 0.00 | 67 | 1007.0 |
| 20260506061716 | 20 | 184 | 0.0 | 6.4 | 0.00 | 0.00 | 0.00 | 67 | 1007.1 |
| 20260506061711 | 20 | 211 | 0.0 | 12.9 | 0.00 | 0.00 | 0.00 | 67 | 1007.1 |
| 20260506061704 | 20 | 164 | 0.0 | 12.9 | 0.00 | 0.00 | 0.00 | 67 | 1007.1 |
| 20260506061520 | 20 | 190 | 0.0 | 6.4 | 0.00 | 0.00 | 0.00 | 67 | 1007.3 |
| 20260506061148 | 20 | 197 | 0.0 | 6.4 | 0.00 | 0.00 | 0.00 | 67 | 1007.1 |
| 20260506061126 | 20 | 184 | 0.0 | 6.4 | 0.00 | 0.00 | 0.00 | 67 | 1007.1 |
| 20260506061026 | 20 | 150 | 0.0 | 6.4 | 0.00 | 0.00 | 0.00 | 67 | 1007.1 |
| 20260506061020 | 20 | 136 | 0.0 | 9.7 | 0.00 | 0.00 | 0.00 | 67 | 1007.3 |
| 20260506060925 | 20 | 206 | 0.0 | 9.7 | 0.00 | 0.00 | 0.00 | 67 | 1007.1 |
| 20260506060825 | 20 | 190 | 0.0 | 14.5 | 0.00 | 0.00 | 0.00 | 67 | 1007.1 |
| 20260506060743 | 20 | 186 | 0.0 | 22.5 | 0.00 | 0.00 | 0.00 | 67 | 1007.0 |
| 20260506060737 | 20 | 174 | 0.0 | 22.5 | 0.00 | 0.00 | 0.00 | 67 | 1007.0 |
| 20260506060729 | 20 | 194 | 0.0 | 22.5 | 0.00 | 0.00 | 0.00 | 67 | 1007.0 |
| 20260506060523 | 20 | 144 | 0.0 | 22.5 | 0.00 | 0.00 | 0.00 | 67 | 1007.0 |
| 20260506060520 | 20 | 170 | 0.0 | 22.5 | 0.00 | 0.00 | 0.00 | 67 | 1007.4 |
| 20260506060423 | 20 | 166 | 0.0 | 22.5 | 0.00 | 0.00 | 0.00 | 67 | 1007.2 |
| 20260506060322 | 20 | 150 | 0.0 | 22.5 | 0.00 | 0.00 | 0.00 | 67 | 1007.1 |
| 20260506060241 | 20 | 182 | 0.0 | 22.5 | 0.00 | 0.00 | 0.00 | 67 | 1007.1 |
| 20260506060236 | 20 | 193 | 0.0 | 22.5 | 0.00 | 0.00 | 0.00 | 67 | 1007.1 |
| 20260506060228 | 20 | 199 | 0.0 | 22.5 | 0.00 | 0.00 | 0.00 | 67 | 1007.1 |
| 20260506051355 | 20 | 150 | 1.6 | 17.7 | 0.00 | 0.00 | 0.00 | 64 | 1007.5 |
| 20260506051255 | 20 | 134 | 1.6 | 17.7 | 0.00 | 0.00 | 0.00 | 64 | 1007.4 |
| 20260506051154 | 20 | 175 | 1.6 | 17.7 | 0.00 | 0.00 | 0.00 | 64 | 1007.5 |
| 20260506051140 | 20 | 179 | 1.6 | 17.7 | 0.00 | 0.00 | 0.00 | 64 | 1007.5 |
| 20260506051054 | 20 | 156 | 1.6 | 17.7 | 0.00 | 0.00 | 0.00 | 64 | 1007.5 |
| 20260506051020 | 20 | 201 | 0.0 | 17.7 | 0.00 | 0.00 | 0.00 | 64 | 1007.7 |
| 20260506051015 | 20 | 206 | 1.6 | 17.7 | 0.00 | 0.00 | 0.00 | 64 | 1007.5 |
| 20260506050902 | 20 | 187 | 1.6 | 17.7 | 0.00 | 0.00 | 0.00 | 64 | 1007.5 |
| 20260506050652 | 20 | 185 | 1.6 | 17.7 | 0.00 | 0.00 | 0.00 | 64 | 1007.5 |
| 20260506050640 | 20 | 179 | 1.6 | 17.7 | 0.00 | 0.00 | 0.00 | 64 | 1007.5 |
| 20260506050618 | 20 | 193 | 1.6 | 14.5 | 0.00 | 0.00 | 0.00 | 64 | 1007.5 |
| 20260506050613 | 20 | 191 | 1.6 | 16.1 | 0.00 | 0.00 | 0.00 | 64 | 1007.4 |
| 20260506050609 | 20 | 202 | 1.6 | 17.7 | 0.00 | 0.00 | 0.00 | 64 | 1007.5 |
| 20260506050520 | 20 | 175 | 0.0 | 17.7 | 0.00 | 0.00 | 0.00 | 64 | 1007.7 |
| 20260506050250 | 20 | 138 | 1.6 | 16.1 | 0.00 | 0.00 | 0.00 | 64 | 1007.5 |
| 20260506050206 | 20 | 188 | 1.6 | 16.1 | 0.00 | 0.00 | 0.00 | 63 | 1007.5 |
| 20260506050202 | 20 | 186 | 1.6 | 16.1 | 0.00 | 0.00 | 0.00 | 63 | 1007.5 |
| 20260506050154 | 20 | 190 | 1.6 | 16.1 | 0.00 | 0.00 | 0.00 | 63 | 1007.5 |
| 20260506045041 | 20 | 181 | 1.6 | 35.4 | 0.00 | 0.00 | 0.00 | 63 | 1007.5 |
| 20260506045035 | 20 | 165 | 16.1 | 33.8 | 0.00 | 0.00 | 0.00 | 63 | 1007.7 |
| 20260506044940 | 20 | 157 | 1.6 | 35.4 | 0.00 | 0.00 | 0.00 | 63 | 1007.5 |
| 20260506044856 | 20 | 149 | 1.6 | 19.3 | 0.00 | 0.00 | 0.00 | 63 | 1007.5 |
| 20260506044839 | 20 | 165 | 1.6 | 19.3 | 0.00 | 0.00 | 0.00 | 63 | 1007.5 |
| 20260506044751 | 20 | 188 | 1.6 | 19.3 | 0.00 | 0.00 | 0.00 | 63 | 1007.5 |
| 20260506044742 | 20 | 149 | 1.6 | 19.3 | 0.00 | 0.00 | 0.00 | 63 | 1007.5 |
| 20260506044551 | 20 | 196 | 1.6 | 19.3 | 0.00 | 0.00 | 0.00 | 63 | 1007.6 |
| 20260506044547 | 20 | 157 | 1.6 | 19.3 | 0.00 | 0.00 | 0.00 | 63 | 1007.6 |
| 20260506044520 | 20 | 194 | 0.0 | 19.3 | 0.00 | 0.00 | 0.00 | 63 | 1007.8 |
| 20260506044337 | 20 | 184 | 1.6 | 19.3 | 0.00 | 0.00 | 0.00 | 63 | 1007.6 |
| 20260506044236 | 20 | 181 | 1.6 | 19.3 | 0.00 | 0.00 | 0.00 | 63 | 1007.6 |
| 20260506044154 | 20 | 178 | 1.6 | 19.3 | 0.00 | 0.00 | 0.00 | 62 | 1007.6 |
| 20260506044146 | 20 | 194 | 1.6 | 19.3 | 0.00 | 0.00 | 0.00 | 63 | 1007.6 |
| 20260506044020 | 20 | 186 | 0.0 | 19.3 | 0.00 | 0.00 | 0.00 | 62 | 1007.8 |
| 20260506043936 | 20 | 175 | 1.6 | 19.3 | 0.00 | 0.00 | 0.00 | 62 | 1007.6 |
| 20260506043835 | 20 | 205 | 1.6 | 17.7 | 0.00 | 0.00 | 0.00 | 62 | 1007.6 |
| 20260506043735 | 20 | 161 | 1.6 | 17.7 | 0.00 | 0.00 | 0.00 | 62 | 1007.6 |
| 20260506043638 | 20 | 179 | 1.6 | 17.7 | 0.00 | 0.00 | 0.00 | 62 | 1007.5 |
| 20260506043632 | 20 | 171 | 1.6 | 17.7 | 0.00 | 0.00 | 0.00 | 62 | 1007.5 |
| 20260506043532 | 20 | 165 | 3.2 | 17.7 | 0.00 | 0.00 | 0.00 | 62 | 1007.6 |
| 20260506043520 | 20 | 144 | 1.6 | 19.3 | 0.00 | 0.00 | 0.00 | 62 | 1007.8 |
| 20260506043431 | 20 | 194 | 1.6 | 19.3 | 0.00 | 0.00 | 0.00 | 62 | 1007.6 |
| 20260506043331 | 20 | 165 | 3.2 | 19.3 | 0.00 | 0.00 | 0.00 | 62 | 1007.6 |
| 20260506043244 | 20 | 209 | 3.2 | 19.3 | 0.00 | 0.00 | 0.00 | 62 | 1007.6 |
| 20260506043235 | 20 | 178 | 3.2 | 19.3 | 0.00 | 0.00 | 0.00 | 62 | 1007.6 |
| 20260506043029 | 20 | 157 | 3.2 | 19.3 | 0.00 | 0.00 | 0.00 | 62 | 1007.6 |
| 20260506043020 | 20 | 165 | 0.0 | 19.3 | 0.00 | 0.00 | 0.00 | 62 | 1007.8 |
| 20260506042928 | 20 | 176 | 3.2 | 19.3 | 0.00 | 0.00 | 0.00 | 62 | 1007.6 |
| 20260506042827 | 20 | 124 | 3.2 | 19.3 | 0.00 | 0.00 | 0.00 | 62 | 1007.5 |
| 20260506042727 | 20 | 204 | 3.2 | 19.3 | 0.00 | 0.00 | 0.00 | 62 | 1007.6 |
| 20260506042633 | 20 | 155 | 3.2 | 19.3 | 0.00 | 0.00 | 0.00 | 62 | 1007.5 |
| 20260506042626 | 20 | 193 | 3.2 | 19.3 | 0.00 | 0.00 | 0.00 | 62 | 1007.5 |
| 20260506042526 | 20 | 146 | 1.6 | 19.3 | 0.00 | 0.00 | 0.00 | 62 | 1007.6 |
| 20260506042520 | 20 | 182 | 0.0 | 19.3 | 0.00 | 0.00 | 0.00 | 62 | 1007.8 |
| 20260506042437 | 20 | 222 | 1.6 | 19.3 | 0.00 | 0.00 | 0.00 | 62 | 1007.5 |
| 20260506042433 | 20 | 193 | 1.6 | 19.3 | 0.00 | 0.00 | 0.00 | 62 | 1007.6 |
| 20260506042223 | 20 | 193 | 1.6 | 19.3 | 0.00 | 0.00 | 0.00 | 62 | 1007.5 |
| 20260506042132 | 20 | 159 | 1.6 | 19.3 | 0.00 | 0.00 | 0.00 | 62 | 1007.5 |
| 20260506042122 | 20 | 146 | 1.6 | 19.3 | 0.00 | 0.00 | 0.00 | 62 | 1007.5 |
| 20260506042022 | 20 | 157 | 1.6 | 17.7 | 0.00 | 0.00 | 0.00 | 62 | 1007.6 |
| 20260506042020 | 20 | 176 | 0.0 | 17.7 | 0.00 | 0.00 | 0.00 | 62 | 1007.7 |
| 20260506042003 | 20 | 182 | 1.6 | 20.9 | 0.00 | 0.00 | 0.00 | 62 | 1007.5 |
| 20260506041958 | 20 | 150 | 1.6 | 17.7 | 0.00 | 0.00 | 0.00 | 62 | 1007.5 |
| 20260506041845 | 20 | 173 | 1.6 | 17.7 | 0.00 | 0.00 | 0.00 | 62 | 1007.5 |
| 20260506041835 | 20 | 179 | 1.6 | 20.9 | 0.00 | 0.00 | 0.00 | 62 | 1007.6 |
| 20260506041520 | 20 | 163 | 0.0 | 20.9 | 0.00 | 0.00 | 0.00 | 62 | 1007.7 |
| 20260506041420 | 20 | 180 | 1.6 | 20.9 | 0.00 | 0.00 | 0.00 | 62 | 1007.5 |
| 20260506041403 | 20 | 182 | 3.2 | 20.9 | 0.00 | 0.00 | 0.00 | 62 | 1007.5 |
| 20260506041319 | 20 | 190 | 1.6 | 20.9 | 0.00 | 0.00 | 0.00 | 62 | 1007.5 |
| 20260506041241 | 20 | 155 | 1.6 | 20.9 | 0.00 | 0.00 | 0.00 | 62 | 1007.5 |
| 20260506041118 | 20 | 178 | 3.2 | 20.9 | 0.00 | 0.00 | 0.00 | 62 | 1007.5 |
| 20260506041020 | 20 | 142 | 0.0 | 20.9 | 0.00 | 0.00 | 0.00 | 62 | 1007.6 |
| 20260506041018 | 20 | 171 | 3.2 | 20.9 | 0.00 | 0.00 | 0.00 | 62 | 1007.5 |
| 20260506040917 | 20 | 160 | 3.2 | 20.9 | 0.00 | 0.00 | 0.00 | 62 | 1007.4 |
| 20260506040844 | 20 | 217 | 1.6 | 20.9 | 0.00 | 0.00 | 0.00 | 62 | 1007.6 |
| 20260506040730 | 20 | 166 | 1.6 | 14.5 | 0.00 | 0.00 | 0.00 | 62 | 1007.5 |
| 20260506040722 | 20 | 140 | 1.6 | 14.5 | 0.00 | 0.00 | 0.00 | 62 | 1007.5 |
| 20260506040535 | 20 | 168 | 0.0 | 14.5 | 0.00 | 0.00 | 0.00 | 62 | 1007.7 |
| 20260506040515 | 20 | 197 | 1.6 | 14.5 | 0.00 | 0.00 | 0.00 | 62 | 1007.5 |
| 20260506040415 | 20 | 159 | 1.6 | 14.5 | 0.00 | 0.00 | 0.00 | 62 | 1007.5 |
| 20260506040314 | 20 | 190 | 1.6 | 17.7 | 0.00 | 0.00 | 0.00 | 62 | 1007.4 |
| 20260506040214 | 20 | 166 | 1.6 | 17.7 | 0.00 | 0.00 | 0.00 | 62 | 1007.4 |
| 20260506040131 | 20 | 143 | 1.6 | 17.7 | 0.00 | 0.00 | 0.00 | 62 | 1007.5 |
| 20260506040113 | 20 | 192 | 1.6 | 17.7 | 0.00 | 0.00 | 0.00 | 62 | 1007.5 |
| 20260506040020 | 20 | 155 | 0.0 | 22.5 | 0.00 | 0.00 | 0.00 | 62 | 1007.6 |
| 20260506040013 | 20 | 176 | 1.6 | 22.5 | 0.00 | 0.00 | 0.00 | 62 | 1007.4 |
| 20260506035959 | 20 | 209 | 1.6 | 25.7 | 0.00 | 0.00 | 0.00 | 62 | 1007.5 |
| 20260506035953 | 20 | 184 | 1.6 | 25.7 | 0.00 | 0.00 | 0.00 | 62 | 1007.5 |
| 20260506035949 | 20 | 194 | 1.6 | 25.7 | 0.00 | 0.00 | 0.00 | 62 | 1007.5 |
| 20260506035944 | 20 | 182 | 1.6 | 22.5 | 0.00 | 0.00 | 0.00 | 62 | 1007.5 |
| 20260506035935 | 20 | 200 | 1.6 | 22.5 | 0.00 | 0.00 | 0.00 | 62 | 1007.4 |
| 20260506035520 | 20 | 156 | 4.8 | 22.5 | 0.00 | 0.00 | 0.00 | 62 | 1007.7 |
| 20260506035510 | 20 | 161 | 1.6 | 25.7 | 0.00 | 0.00 | 0.00 | 62 | 1007.5 |
| 20260506035409 | 20 | 170 | 1.6 | 25.7 | 0.00 | 0.00 | 0.00 | 62 | 1007.5 |
| 20260506035351 | 20 | 217 | 1.6 | 25.7 | 0.00 | 0.00 | 0.00 | 62 | 1007.4 |
| 20260506035309 | 20 | 164 | 1.6 | 25.7 | 0.00 | 0.00 | 0.00 | 62 | 1007.5 |
| 20260506035236 | 20 | 159 | 1.6 | 25.7 | 0.00 | 0.00 | 0.00 | 62 | 1007.4 |
| 20260506035108 | 20 | 189 | 0.0 | 25.7 | 0.00 | 0.00 | 0.00 | 62 | 1007.4 |
| 20260506035020 | 20 | 176 | 0.0 | 14.5 | 0.00 | 0.00 | 0.00 | 62 | 1007.6 |
| 20260506035007 | 20 | 176 | 0.0 | 25.7 | 0.00 | 0.00 | 0.00 | 61 | 1007.4 |
| 20260506034907 | 20 | 201 | 0.0 | 25.7 | 0.00 | 0.00 | 0.00 | 61 | 1007.4 |
| 20260506034807 | 20 | 169 | 0.0 | 25.7 | 0.00 | 0.00 | 0.00 | 61 | 1007.4 |
| 20260506034706 | 20 | 217 | 0.0 | 14.5 | 0.00 | 0.00 | 0.00 | 61 | 1007.4 |
| 20260506034625 | 20 | 153 | 0.0 | 8.0 | 0.00 | 0.00 | 0.00 | 61 | 1007.4 |
| 20260506034606 | 20 | 157 | 0.0 | 9.7 | 0.00 | 0.00 | 0.00 | 61 | 1007.4 |
| 20260506034535 | 20 | 157 | 0.0 | 9.7 | 0.00 | 0.00 | 0.00 | 61 | 1007.6 |
| 20260506034527 | 20 | 181 | 0.0 | 9.7 | 0.00 | 0.00 | 0.00 | 61 | 1007.4 |
| 20260506034414 | 20 | 195 | 0.0 | 9.7 | 0.00 | 0.00 | 0.00 | 61 | 1007.4 |
| 20260506034222 | 20 | 212 | 0.0 | 19.3 | 0.00 | 0.00 | 0.00 | 61 | 1007.4 |
| 20260506034217 | 20 | 190 | 0.0 | 19.3 | 0.00 | 0.00 | 0.00 | 61 | 1007.4 |
| 20260506034209 | 20 | 164 | 0.0 | 19.3 | 0.00 | 0.00 | 0.00 | 61 | 1007.4 |
| 20260506034020 | 20 | 190 | 0.0 | 19.3 | 0.00 | 0.00 | 0.00 | 61 | 1007.6 |
| 20260506034002 | 20 | 184 | 0.0 | 19.3 | 0.00 | 0.00 | 0.00 | 61 | 1007.4 |
| 20260506033916 | 20 | 187 | 1.6 | 19.3 | 0.00 | 0.00 | 0.00 | 61 | 1007.4 |
| 20260506033910 | 20 | 182 | 0.0 | 19.3 | 0.00 | 0.00 | 0.00 | 61 | 1007.4 |
| 20260506033700 | 20 | 190 | 1.6 | 19.3 | 0.00 | 0.00 | 0.00 | 61 | 1007.4 |
| 20260506033625 | 20 | 167 | 1.6 | 19.3 | 0.00 | 0.00 | 0.00 | 61 | 1007.4 |
| 20260506033559 | 20 | 170 | 1.6 | 19.3 | 0.00 | 0.00 | 0.00 | 61 | 1007.3 |
| 20260506033520 | 20 | 160 | 0.0 | 30.6 | 0.00 | 0.00 | 0.00 | 61 | 1007.5 |
| 20260506033459 | 20 | 120 | 1.6 | 30.6 | 0.00 | 0.00 | 0.00 | 61 | 1007.3 |
| 20260506033359 | 20 | 153 | 1.6 | 30.6 | 0.00 | 0.00 | 0.00 | 61 | 1007.2 |
| 20260506033258 | 20 | 188 | 1.6 | 30.6 | 0.00 | 0.00 | 0.00 | 61 | 1007.3 |
| 20260506033157 | 20 | 180 | 3.2 | 30.6 | 0.00 | 0.00 | 0.00 | 61 | 1007.3 |
| 20260506033124 | 20 | 209 | 3.2 | 30.6 | 0.00 | 0.00 | 0.00 | 61 | 1007.3 |
| 20260506033056 | 20 | 164 | 3.2 | 30.6 | 0.00 | 0.00 | 0.00 | 61 | 1007.2 |
| 20260506033020 | 20 | 175 | 0.0 | 30.6 | 0.00 | 0.00 | 0.00 | 61 | 1007.4 |
| 20260506032956 | 20 | 188 | 4.8 | 30.6 | 0.00 | 0.00 | 0.00 | 61 | 1007.3 |
| 20260506032909 | 20 | 200 | 6.4 | 30.6 | 0.00 | 0.00 | 0.00 | 61 | 1007.3 |
| 20260506032903 | 20 | 211 | 4.8 | 30.6 | 0.00 | 0.00 | 0.00 | 60 | 1007.3 |
| 20260506032713 | 20 | 161 | 6.4 | 30.6 | 0.00 | 0.00 | 0.00 | 60 | 1007.3 |
| 20260506032708 | 20 | 156 | 4.8 | 30.6 | 0.00 | 0.00 | 0.00 | 60 | 1007.3 |
| 20260506032659 | 20 | 181 | 4.8 | 30.6 | 0.00 | 0.00 | 0.00 | 60 | 1007.3 |
| 20260506032520 | 20 | 194 | 0.0 | 24.1 | 0.00 | 0.00 | 0.00 | 60 | 1007.4 |
| 20260506032453 | 20 | 167 | 6.4 | 24.1 | 0.00 | 0.00 | 0.00 | 60 | 1007.3 |
| 20260506032409 | 20 | 159 | 4.8 | 24.1 | 0.00 | 0.00 | 0.00 | 60 | 1007.3 |
| 20260506032405 | 20 | 198 | 4.8 | 24.1 | 0.00 | 0.00 | 0.00 | 60 | 1007.3 |
| 20260506032400 | 20 | 175 | 6.4 | 24.1 | 0.00 | 0.00 | 0.00 | 60 | 1007.2 |
| 20260506032232 | 20 | 170 | 4.8 | 24.1 | 0.00 | 0.00 | 0.00 | 60 | 1007.3 |
| 20260506032050 | 20 | 155 | 3.2 | 22.5 | 0.00 | 0.00 | 0.00 | 60 | 1007.3 |
| 20260506032020 | 20 | 148 | 22.5 | 22.5 | 0.00 | 0.00 | 0.00 | 60 | 1007.4 |
| 20260506032004 | 20 | 132 | 3.2 | 22.5 | 0.00 | 0.00 | 0.00 | 60 | 1007.3 |
| 20260506031959 | 20 | 148 | 3.2 | 22.5 | 0.00 | 0.00 | 0.00 | 60 | 1007.3 |
| 20260506031749 | 20 | 150 | 1.6 | 22.5 | 0.00 | 0.00 | 0.00 | 60 | 1007.3 |
| 20260506031708 | 20 | 192 | 1.6 | 17.7 | 0.00 | 0.00 | 0.00 | 60 | 1007.4 |
| 20260506031703 | 20 | 0 | 1.6 | 22.5 | 0.00 | 0.00 | 0.00 | 60 | 1007.3 |
| 20260506031655 | 20 | 192 | 1.6 | 22.5 | 0.00 | 0.00 | 0.00 | 60 | 1007.3 |
| 20260506031520 | 20 | 175 | 0.0 | 16.1 | 0.00 | 0.00 | 0.00 | 60 | 1007.5 |
| 20260506031448 | 20 | 147 | 1.6 | 16.1 | 0.00 | 0.00 | 0.00 | 60 | 1007.4 |
| 20260506031347 | 20 | 217 | 1.6 | 16.1 | 0.00 | 0.00 | 0.00 | 60 | 1007.3 |
| 20260506031247 | 20 | 150 | 1.6 | 16.1 | 0.00 | 0.00 | 0.00 | 60 | 1007.3 |
| 20260506031144 | 20 | 132 | 1.6 | 16.1 | 0.00 | 0.00 | 0.00 | 60 | 1007.3 |
| 20260506031125 | 20 | 211 | 1.6 | 20.9 | 0.00 | 0.00 | 0.00 | 60 | 1007.3 |
| 20260506031045 | 20 | 198 | 1.6 | 20.9 | 0.00 | 0.00 | 0.00 | 60 | 1007.3 |
| 20260506031020 | 20 | 360 | 1.6 | 20.9 | 0.00 | 0.00 | 0.00 | 60 | 1007.5 |
| 20260506030943 | 20 | 175 | 1.6 | 20.9 | 0.00 | 0.00 | 0.00 | 60 | 1007.4 |
| 20260506030844 | 20 | 225 | 1.6 | 20.9 | 0.00 | 0.00 | 0.00 | 59 | 1007.3 |
| 20260506030743 | 20 | 147 | 1.6 | 20.9 | 0.00 | 0.00 | 0.00 | 59 | 1007.3 |
| 20260506030703 | 20 | 159 | 1.6 | 20.9 | 0.00 | 0.00 | 0.00 | 59 | 1007.3 |
| 20260506030658 | 20 | 0 | 1.6 | 20.9 | 0.00 | 0.00 | 0.00 | 59 | 1007.3 |
| 20260506030650 | 20 | 197 | 1.6 | 20.9 | 0.00 | 0.00 | 0.00 | 59 | 1007.3 |
| 20260506030520 | 21 | 170 | 0.0 | 20.9 | 0.00 | 0.00 | 0.00 | 59 | 1007.5 |
| 20260506030443 | 20 | 152 | 1.6 | 20.9 | 0.00 | 0.00 | 0.00 | 59 | 1007.4 |
| 20260506030341 | 21 | 159 | 1.6 | 20.9 | 0.00 | 0.00 | 0.00 | 58 | 1007.4 |
| 20260506030241 | 21 | 167 | 1.6 | 20.9 | 0.00 | 0.00 | 0.00 | 58 | 1007.4 |
| 20260506030218 | 21 | 141 | 1.6 | 16.1 | 0.00 | 0.00 | 0.00 | 58 | 1007.3 |
| 20260506030214 | 21 | 0 | 1.6 | 16.1 | 0.00 | 0.00 | 0.00 | 58 | 1007.3 |
| 20260506030210 | 21 | 138 | 1.6 | 19.3 | 0.00 | 0.00 | 0.00 | 57 | 1007.3 |
| 20260506030206 | 21 | 137 | 1.6 | 19.3 | 0.00 | 0.00 | 0.00 | 57 | 1007.3 |
| 20260506030202 | 21 | 154 | 1.6 | 19.3 | 0.00 | 0.00 | 0.00 | 57 | 1007.4 |
| 20260506030156 | 21 | 167 | 1.6 | 20.9 | 0.00 | 0.00 | 0.00 | 58 | 1007.4 |
| 20260506030149 | 21 | 146 | 1.6 | 16.1 | 0.00 | 0.00 | 0.00 | 58 | 1007.4 |
| 20260506030035 | 21 | 0 | 1.6 | 19.3 | 0.00 | 0.00 | 0.00 | 57 | 1007.5 |
| 20260506030028 | 21 | 186 | 1.6 | 16.1 | 0.00 | 0.00 | 0.00 | 58 | 1007.4 |
| 20260506030020 | 21 | 139 | 0.0 | 16.1 | 0.00 | 0.00 | 0.00 | 58 | 1007.5 |
| 20260506025910 | 21 | 169 | 1.6 | 16.1 | 0.00 | 0.00 | 0.00 | 57 | 1007.4 |
| 20260506025520 | 21 | 159 | 0.0 | 19.3 | 0.00 | 0.00 | 0.00 | 57 | 1007.6 |
| 20260506025336 | 21 | 172 | 1.6 | 19.3 | 0.00 | 0.00 | 0.00 | 56 | 1007.5 |
| 20260506025247 | 21 | 134 | 1.6 | 19.3 | 0.00 | 0.00 | 0.00 | 56 | 1007.4 |
| 20260506025243 | 21 | 165 | 1.6 | 19.3 | 0.00 | 0.00 | 0.00 | 56 | 1007.3 |
| 20260506025122 | 21 | 152 | 1.6 | 19.3 | 0.00 | 0.00 | 0.00 | 56 | 1007.4 |
| 20260506025033 | 21 | 147 | 1.6 | 19.3 | 0.00 | 0.00 | 0.00 | 56 | 1007.4 |
| 20260506025020 | 21 | 169 | 9.7 | 19.3 | 0.00 | 0.00 | 0.00 | 56 | 1007.5 |
| 20260506024932 | 21 | 160 | 1.6 | 25.7 | 0.00 | 0.00 | 0.00 | 55 | 1007.4 |
| 20260506024846 | 21 | 0 | 1.6 | 25.7 | 0.00 | 0.00 | 0.00 | 55 | 1007.5 |
| 20260506024840 | 21 | 0 | 1.6 | 25.7 | 0.00 | 0.00 | 0.00 | 55 | 1007.4 |
| 20260506024632 | 21 | 130 | 1.6 | 25.7 | 0.00 | 0.00 | 0.00 | 55 | 1007.5 |
| 20260506024622 | 21 | 0 | 1.6 | 25.7 | 0.00 | 0.00 | 0.00 | 55 | 1007.5 |
| 20260506024531 | 21 | 173 | 1.6 | 25.7 | 0.00 | 0.00 | 0.00 | 55 | 1007.4 |
| 20260506024520 | 21 | 165 | 0.0 | 24.1 | 0.00 | 0.00 | 0.00 | 55 | 1007.5 |
| 20260506024445 | 21 | 172 | 1.6 | 25.7 | 0.00 | 0.00 | 0.00 | 54 | 1007.4 |
| 20260506024439 | 21 | 205 | 1.6 | 25.7 | 0.00 | 0.00 | 0.00 | 55 | 1007.4 |
| 20260506024229 | 21 | 155 | 1.6 | 25.7 | 0.00 | 0.00 | 0.00 | 54 | 1007.4 |
| 20260506024128 | 21 | 143 | 1.6 | 25.7 | 0.00 | 0.00 | 0.00 | 54 | 1007.4 |
| 20260506024121 | 21 | 188 | 1.6 | 25.7 | 0.00 | 0.00 | 0.00 | 54 | 1007.4 |
| 20260506024035 | 21 | 166 | 1.6 | 24.1 | 0.00 | 0.00 | 0.00 | 54 | 1007.5 |
| 20260506024028 | 21 | 144 | 1.6 | 25.7 | 0.00 | 0.00 | 0.00 | 54 | 1007.5 |
| 20260506023927 | 21 | 182 | 0.0 | 16.1 | 0.00 | 0.00 | 0.00 | 53 | 1007.4 |
| 20260506023826 | 21 | 180 | 0.0 | 16.1 | 0.00 | 0.00 | 0.00 | 53 | 1007.5 |
| 20260506023726 | 21 | 168 | 0.0 | 16.1 | 0.00 | 0.00 | 0.00 | 53 | 1007.4 |
| 20260506023628 | 21 | 163 | 0.0 | 16.1 | 0.00 | 0.00 | 0.00 | 53 | 1007.4 |
| 20260506023621 | 21 | 161 | 0.0 | 16.1 | 0.00 | 0.00 | 0.00 | 53 | 1007.4 |
| 20260506023539 | 21 | 162 | 0.0 | 16.1 | 0.00 | 0.00 | 0.00 | 52 | 1007.5 |
| 20260506023533 | 21 | 165 | 0.0 | 16.1 | 0.00 | 0.00 | 0.00 | 53 | 1007.5 |
| 20260506023521 | 21 | 164 | 0.0 | 16.1 | 0.00 | 0.00 | 0.00 | 53 | 1007.6 |
| 20260506023323 | 21 | 195 | 0.0 | 16.1 | 0.00 | 0.00 | 0.00 | 52 | 1007.5 |
| 20260506023243 | 22 | 153 | 0.0 | 16.1 | 0.00 | 0.00 | 0.00 | 52 | 1007.5 |
| 20260506023238 | 21 | 161 | 0.0 | 16.1 | 0.00 | 0.00 | 0.00 | 52 | 1007.4 |
| 20260506023124 | 22 | 153 | 0.0 | 16.1 | 0.00 | 0.00 | 0.00 | 52 | 1007.5 |
| 20260506023023 | 22 | 171 | 0.0 | 12.9 | 0.00 | 0.00 | 0.00 | 52 | 1007.5 |
| 20260506023020 | 22 | 169 | 0.0 | 8.0 | 0.00 | 0.00 | 0.00 | 52 | 1007.5 |
| 20260506022921 | 22 | 177 | 0.0 | 17.7 | 0.00 | 0.00 | 0.00 | 52 | 1007.4 |
| 20260506022821 | 22 | 155 | 0.0 | 17.7 | 0.00 | 0.00 | 0.00 | 51 | 1007.4 |
| 20260506022734 | 22 | 165 | 0.0 | 17.7 | 0.00 | 0.00 | 0.00 | 51 | 1007.5 |
| 20260506022725 | 22 | 0 | 1.6 | 17.7 | 0.00 | 0.00 | 0.00 | 51 | 1007.5 |
| 20260506022520 | 22 | 159 | 0.0 | 16.1 | 0.00 | 0.00 | 0.00 | 51 | 1007.6 |
| 20260506022419 | 22 | 201 | 1.6 | 17.7 | 0.00 | 0.00 | 0.00 | 51 | 1007.5 |
| 20260506022319 | 22 | 153 | 1.6 | 17.7 | 0.00 | 0.00 | 0.00 | 51 | 1007.5 |
| 20260506022217 | 22 | 164 | 1.6 | 17.7 | 0.00 | 0.00 | 0.00 | 51 | 1007.5 |
| 20260506022122 | 22 | 159 | 1.6 | 17.7 | 0.00 | 0.00 | 0.00 | 50 | 1007.5 |
| 20260506022117 | 22 | 153 | 1.6 | 17.7 | 0.00 | 0.00 | 0.00 | 50 | 1007.5 |
| 20260506022035 | 22 | 182 | 8.0 | 17.7 | 0.00 | 0.00 | 0.00 | 50 | 1007.5 |
| 20260506022017 | 22 | 175 | 1.6 | 17.7 | 0.00 | 0.00 | 0.00 | 50 | 1007.4 |
| 20260506021917 | 22 | 184 | 1.6 | 17.7 | 0.00 | 0.00 | 0.00 | 50 | 1007.4 |
| 20260506021831 | 22 | 186 | 1.6 | 17.7 | 0.00 | 0.00 | 0.00 | 50 | 1007.4 |
| 20260506021826 | 22 | 181 | 1.6 | 17.7 | 0.00 | 0.00 | 0.00 | 50 | 1007.4 |
| 20260506021621 | 22 | 189 | 1.6 | 17.7 | 0.00 | 0.00 | 0.00 | 50 | 1007.4 |
| 20260506021616 | 22 | 190 | 1.6 | 17.7 | 0.00 | 0.00 | 0.00 | 50 | 1007.4 |
| 20260506021542 | 22 | 177 | 1.6 | 14.5 | 0.00 | 0.00 | 0.00 | 50 | 1007.4 |
| 20260506021538 | 22 | 140 | 3.2 | 14.5 | 0.00 | 0.00 | 0.00 | 50 | 1007.4 |
| 20260506021533 | 22 | 142 | 1.6 | 17.7 | 0.00 | 0.00 | 0.00 | 50 | 1007.4 |
| 20260506021520 | 22 | 155 | 0.0 | 17.7 | 0.00 | 0.00 | 0.00 | 50 | 1007.5 |
| 20260506021214 | 22 | 167 | 1.6 | 19.3 | 0.00 | 0.00 | 0.00 | 50 | 1007.4 |
| 20260506021120 | 22 | 148 | 1.6 | 19.3 | 0.00 | 0.00 | 0.00 | 50 | 1007.4 |
| 20260506021113 | 22 | 167 | 1.6 | 19.3 | 0.00 | 0.00 | 0.00 | 50 | 1007.5 |
| 20260506021049 | 22 | 200 | 0.0 | 19.3 | 0.00 | 0.00 | 0.00 | 50 | 1007.5 |
| 20260506021013 | 22 | 173 | 1.6 | 19.3 | 0.00 | 0.00 | 0.00 | 50 | 1007.4 |
| 20260506020914 | 22 | 195 | 1.6 | 19.3 | 0.00 | 0.00 | 0.00 | 49 | 1007.4 |
| 20260506020812 | 22 | 188 | 1.6 | 19.3 | 0.00 | 0.00 | 0.00 | 49 | 1007.4 |
| 20260506020712 | 22 | 192 | 1.6 | 20.9 | 0.00 | 0.00 | 0.00 | 49 | 1007.4 |
| 20260506020619 | 22 | 186 | 1.6 | 20.9 | 0.00 | 0.00 | 0.00 | 49 | 1007.4 |
| 20260506020611 | 22 | 186 | 3.2 | 20.9 | 0.00 | 0.00 | 0.00 | 49 | 1007.3 |
| 20260506020535 | 22 | 200 | 0.0 | 22.5 | 0.00 | 0.00 | 0.00 | 49 | 1007.5 |
| 20260506020511 | 22 | 202 | 3.2 | 22.5 | 0.00 | 0.00 | 0.00 | 49 | 1007.4 |
| 20260506020424 | 22 | 209 | 3.2 | 22.5 | 0.00 | 0.00 | 0.00 | 49 | 1007.4 |
| 20260506020419 | 22 | 190 | 3.2 | 22.5 | 0.00 | 0.00 | 0.00 | 49 | 1007.3 |
| 20260506020242 | 22 | 168 | 3.2 | 22.5 | 0.00 | 0.00 | 0.00 | 49 | 1007.4 |
| 20260506020237 | 22 | 184 | 3.2 | 22.5 | 0.00 | 0.00 | 0.00 | 48 | 1007.4 |
| 20260506020232 | 22 | 165 | 3.2 | 22.5 | 0.00 | 0.00 | 0.00 | 49 | 1007.3 |
| 20260506020224 | 22 | 90 | 3.2 | 22.5 | 0.00 | 0.00 | 0.00 | 49 | 1007.3 |
| 20260506020020 | 22 | 196 | 0.0 | 22.5 | 0.00 | 0.00 | 0.00 | 48 | 1007.5 |
| 20260506015908 | 22 | 199 | 3.2 | 22.5 | 0.00 | 0.00 | 0.00 | 48 | 1007.4 |
| 20260506015807 | 22 | 162 | 3.2 | 22.5 | 0.00 | 0.00 | 0.00 | 48 | 1007.4 |
| 20260506015708 | 22 | 160 | 3.2 | 22.5 | 0.00 | 0.00 | 0.00 | 48 | 1007.4 |
| 20260506015618 | 22 | 199 | 3.2 | 22.5 | 0.00 | 0.00 | 0.00 | 48 | 1007.4 |
| 20260506015608 | 22 | 132 | 3.2 | 22.5 | 0.00 | 0.00 | 0.00 | 48 | 1007.4 |
| 20260506015520 | 22 | 167 | 22.5 | 22.5 | 0.00 | 0.00 | 0.00 | 48 | 1007.3 |
| 20260506015506 | 22 | 169 | 3.2 | 22.5 | 0.00 | 0.00 | 0.00 | 48 | 1007.3 |
| 20260506015406 | 22 | 136 | 3.2 | 27.4 | 0.00 | 0.00 | 0.00 | 48 | 1007.3 |
| 20260506015306 | 22 | 179 | 3.2 | 27.4 | 0.00 | 0.00 | 0.00 | 48 | 1007.3 |
| 20260506015204 | 22 | 136 | 3.2 | 27.4 | 0.00 | 0.00 | 0.00 | 47 | 1007.3 |
| 20260506015146 | 23 | 190 | 3.2 | 27.4 | 0.00 | 0.00 | 0.00 | 47 | 1007.3 |
| 20260506015140 | 22 | 147 | 3.2 | 27.4 | 0.00 | 0.00 | 0.00 | 48 | 1007.3 |
| 20260506015134 | 22 | 168 | 3.2 | 27.4 | 0.00 | 0.00 | 0.00 | 48 | 1007.3 |
| 20260506015020 | 22 | 174 | 0.0 | 27.4 | 0.00 | 0.00 | 0.00 | 47 | 1007.3 |
| 20260506014702 | 23 | 150 | 3.2 | 27.4 | 0.00 | 0.00 | 0.00 | 47 | 1007.3 |
| 20260506014619 | 23 | 189 | 3.2 | 27.4 | 0.00 | 0.00 | 0.00 | 47 | 1007.3 |
| 20260506014601 | 23 | 181 | 3.2 | 27.4 | 0.00 | 0.00 | 0.00 | 47 | 1007.3 |
| 20260506014535 | 23 | 143 | 0.0 | 27.4 | 0.00 | 0.00 | 0.00 | 47 | 1007.2 |
| 20260506014500 | 23 | 146 | 3.2 | 27.4 | 0.00 | 0.00 | 0.00 | 47 | 1007.2 |
| 20260506014400 | 23 | 166 | 4.8 | 35.4 | 0.00 | 0.00 | 0.00 | 47 | 1007.3 |
| 20260506014351 | 23 | 167 | 4.8 | 35.4 | 0.00 | 0.00 | 0.00 | 47 | 1007.2 |
| 20260506014340 | 23 | 153 | 4.8 | 35.4 | 0.00 | 0.00 | 0.00 | 47 | 1007.2 |
| 20260506014333 | 23 | 184 | 4.8 | 35.4 | 0.00 | 0.00 | 0.00 | 47 | 1007.2 |
| 20260506014100 | 23 | 173 | 4.8 | 35.4 | 0.00 | 0.00 | 0.00 | 47 | 1007.2 |
| 20260506014020 | 23 | 130 | 4.8 | 35.4 | 0.00 | 0.00 | 0.00 | 47 | 1007.1 |
| 20260506014012 | 23 | 184 | 4.8 | 35.4 | 0.00 | 0.00 | 0.00 | 47 | 1007.2 |
| 20260506014007 | 23 | 151 | 4.8 | 35.4 | 0.00 | 0.00 | 0.00 | 47 | 1007.1 |
| 20260506013757 | 23 | 169 | 4.8 | 35.4 | 0.00 | 0.00 | 0.00 | 47 | 1007.2 |
| 20260506013729 | 23 | 169 | 4.8 | 35.4 | 0.00 | 0.00 | 0.00 | 46 | 1007.1 |
| 20260506013724 | 23 | 212 | 4.8 | 35.4 | 0.00 | 0.00 | 0.00 | 46 | 1007.1 |
| 20260506013718 | 23 | 167 | 4.8 | 35.4 | 0.00 | 0.00 | 0.00 | 46 | 1007.1 |
| 20260506013710 | 23 | 161 | 4.8 | 35.4 | 0.00 | 0.00 | 0.00 | 46 | 1007.1 |
| 20260506013520 | 23 | 150 | 0.0 | 35.4 | 0.00 | 0.00 | 0.00 | 46 | 1007.1 |
| 20260506013441 | 23 | 192 | 3.2 | 30.6 | 0.00 | 0.00 | 0.00 | 46 | 1007.1 |
| 20260506013354 | 23 | 160 | 3.2 | 30.6 | 0.00 | 0.00 | 0.00 | 46 | 1007.2 |
| 20260506013343 | 23 | 192 | 3.2 | 30.6 | 0.00 | 0.00 | 0.00 | 46 | 1007.1 |
| 20260506013337 | 23 | 173 | 3.2 | 30.6 | 0.00 | 0.00 | 0.00 | 46 | 1007.1 |
| 20260506013327 | 23 | 185 | 3.2 | 30.6 | 0.00 | 0.00 | 0.00 | 46 | 1007.1 |
| 20260506013020 | 23 | 148 | 6.4 | 30.6 | 0.00 | 0.00 | 0.00 | 46 | 1007.1 |
| 20260506012959 | 23 | 198 | 3.2 | 29.0 | 0.00 | 0.00 | 0.00 | 46 | 1007.1 |
| 20260506012749 | 23 | 186 | 1.6 | 24.1 | 0.00 | 0.00 | 0.00 | 46 | 1007.0 |
| 20260506012648 | 23 | 155 | 1.6 | 24.1 | 0.00 | 0.00 | 0.00 | 46 | 1007.1 |
| 20260506012614 | 23 | 179 | 1.6 | 24.1 | 0.00 | 0.00 | 0.00 | 46 | 1007.1 |
| 20260506012547 | 23 | 180 | 1.6 | 24.1 | 0.00 | 0.00 | 0.00 | 46 | 1007.1 |
| 20260506012520 | 23 | 163 | 0.0 | 24.1 | 0.00 | 0.00 | 0.00 | 46 | 1007.1 |
| 20260506012447 | 23 | 168 | 1.6 | 24.1 | 0.00 | 0.00 | 0.00 | 46 | 1007.1 |
| 20260506012401 | 23 | 209 | 1.6 | 24.1 | 0.00 | 0.00 | 0.00 | 46 | 1007.0 |
| 20260506012355 | 23 | 177 | 1.6 | 24.1 | 0.00 | 0.00 | 0.00 | 46 | 1007.0 |
| 20260506012146 | 23 | 137 | 1.6 | 16.1 | 0.00 | 0.00 | 0.00 | 46 | 1007.0 |
| 20260506012114 | 23 | 150 | 1.6 | 16.1 | 0.00 | 0.00 | 0.00 | 46 | 1007.1 |
| 20260506012045 | 23 | 188 | 1.6 | 16.1 | 0.00 | 0.00 | 0.00 | 46 | 1007.1 |
| 20260506012020 | 23 | 178 | 0.0 | 16.1 | 0.00 | 0.00 | 0.00 | 46 | 1007.0 |
| 20260506011946 | 23 | 186 | 1.6 | 16.1 | 0.00 | 0.00 | 0.00 | 46 | 1007.0 |
| 20260506011845 | 23 | 191 | 1.6 | 24.1 | 0.00 | 0.00 | 0.00 | 45 | 1007.0 |
| 20260506011744 | 23 | 194 | 1.6 | 25.7 | 0.00 | 0.00 | 0.00 | 45 | 1007.1 |
| 20260506011703 | 23 | 160 | 1.6 | 25.7 | 0.00 | 0.00 | 0.00 | 45 | 1007.0 |
| 20260506011658 | 23 | 199 | 1.6 | 25.7 | 0.00 | 0.00 | 0.00 | 45 | 1007.0 |
| 20260506011650 | 23 | 0 | 1.6 | 25.7 | 0.00 | 0.00 | 0.00 | 45 | 1007.0 |
| 20260506011520 | 23 | 169 | 0.0 | 25.7 | 0.00 | 0.00 | 0.00 | 45 | 1007.0 |
| 20260506011443 | 23 | 195 | 1.6 | 25.7 | 0.00 | 0.00 | 0.00 | 45 | 1007.0 |
| 20260506011343 | 23 | 151 | 1.6 | 25.7 | 0.00 | 0.00 | 0.00 | 45 | 1006.9 |
| 20260506011242 | 23 | 198 | 1.6 | 25.7 | 0.00 | 0.00 | 0.00 | 45 | 1006.9 |
| 20260506011201 | 23 | 148 | 1.6 | 25.7 | 0.00 | 0.00 | 0.00 | 45 | 1006.9 |
| 20260506011156 | 23 | 197 | 1.6 | 25.7 | 0.00 | 0.00 | 0.00 | 45 | 1006.9 |
| 20260506011149 | 23 | 195 | 1.6 | 25.7 | 0.00 | 0.00 | 0.00 | 45 | 1006.9 |
| 20260506011035 | 23 | 171 | 1.6 | 25.7 | 0.00 | 0.00 | 0.00 | 45 | 1006.9 |
| 20260506011008 | 23 | 165 | 0.0 | 25.7 | 0.00 | 0.00 | 0.00 | 45 | 1006.9 |
| 20260506011004 | 23 | 161 | 0.0 | 9.7 | 0.00 | 0.00 | 0.00 | 45 | 1007.0 |
| 20260506010958 | 23 | 171 | 0.0 | 25.7 | 0.00 | 0.00 | 0.00 | 45 | 1006.9 |
| 20260506010640 | 23 | 0 | 0.0 | 9.7 | 0.00 | 0.00 | 0.00 | 44 | 1006.9 |
| 20260506010612 | 23 | 155 | 0.0 | 9.7 | 0.00 | 0.00 | 0.00 | 44 | 1006.9 |
| 20260506010539 | 23 | 179 | 0.0 | 9.7 | 0.00 | 0.00 | 0.00 | 44 | 1006.9 |
| 20260506010520 | 23 | 187 | 0.0 | 9.7 | 0.00 | 0.00 | 0.00 | 44 | 1006.9 |
| 20260506010438 | 23 | 163 | 0.0 | 9.7 | 0.00 | 0.00 | 0.00 | 44 | 1006.9 |
| 20260506010337 | 23 | 200 | 0.0 | 20.9 | 0.00 | 0.00 | 0.00 | 44 | 1006.9 |
| 20260506010239 | 23 | 0 | 1.6 | 20.9 | 0.00 | 0.00 | 0.00 | 44 | 1006.8 |
| 20260506010139 | 23 | 186 | 1.6 | 20.9 | 0.00 | 0.00 | 0.00 | 44 | 1006.9 |
| 20260506010110 | 23 | 0 | 1.6 | 20.9 | 0.00 | 0.00 | 0.00 | 44 | 1006.9 |
| 20260506010038 | 23 | 186 | 1.6 | 20.9 | 0.00 | 0.00 | 0.00 | 44 | 1006.9 |
| 20260506010020 | 23 | 189 | 0.0 | 20.9 | 0.00 | 0.00 | 0.00 | 44 | 1006.9 |
| 20260506005937 | 23 | 148 | 1.6 | 20.9 | 0.00 | 0.00 | 0.00 | 44 | 1006.9 |
| 20260506005841 | 23 | 155 | 1.6 | 20.9 | 0.00 | 0.00 | 0.00 | 44 | 1006.8 |
| 20260506005836 | 23 | 175 | 1.6 | 20.9 | 0.00 | 0.00 | 0.00 | 44 | 1006.8 |
| 20260506005735 | 23 | 188 | 1.6 | 20.9 | 0.00 | 0.00 | 0.00 | 44 | 1006.8 |
| 20260506005718 | 23 | 157 | 1.6 | 20.9 | 0.00 | 0.00 | 0.00 | 44 | 1006.7 |
| 20260506005545 | 23 | 196 | 1.6 | 20.9 | 0.00 | 0.00 | 0.00 | 43 | 1006.7 |
| 20260506005540 | 23 | 186 | 1.6 | 20.9 | 0.00 | 0.00 | 0.00 | 44 | 1006.8 |
| 20260506005520 | 23 | 187 | 0.0 | 20.9 | 0.00 | 0.00 | 0.00 | 44 | 1006.7 |
| 20260506005330 | 23 | 182 | 1.6 | 16.1 | 0.00 | 0.00 | 0.00 | 43 | 1006.8 |
| 20260506005232 | 23 | 127 | 1.6 | 16.1 | 0.00 | 0.00 | 0.00 | 43 | 1006.7 |
| 20260506005132 | 23 | 200 | 1.6 | 17.7 | 0.00 | 0.00 | 0.00 | 43 | 1006.7 |
| 20260506005109 | 23 | 186 | 1.6 | 17.7 | 0.00 | 0.00 | 0.00 | 43 | 1006.7 |
| 20260506005042 | 23 | 164 | 1.6 | 19.3 | 0.00 | 0.00 | 0.00 | 43 | 1006.8 |
| 20260506005038 | 23 | 141 | 1.6 | 17.7 | 0.00 | 0.00 | 0.00 | 43 | 1006.7 |
| 20260506005020 | 23 | 138 | 14.5 | 14.5 | 0.00 | 0.00 | 0.00 | 43 | 1006.8 |
| 20260506004828 | 23 | 158 | 3.2 | 24.1 | 0.00 | 0.00 | 0.00 | 43 | 1006.7 |
| 20260506004728 | 23 | 180 | 3.2 | 24.1 | 0.00 | 0.00 | 0.00 | 43 | 1006.8 |
| 20260506004628 | 23 | 221 | 3.2 | 24.1 | 0.00 | 0.00 | 0.00 | 43 | 1006.7 |
| 20260506004610 | 23 | 179 | 3.2 | 24.1 | 0.00 | 0.00 | 0.00 | 43 | 1006.8 |
| 20260506004538 | 23 | 138 | 4.8 | 24.1 | 0.00 | 0.00 | 0.00 | 43 | 1006.8 |
| 20260506004534 | 23 | 191 | 3.2 | 24.1 | 0.00 | 0.00 | 0.00 | 43 | 1006.8 |
| 20260506004520 | 23 | 175 | 0.0 | 24.1 | 0.00 | 0.00 | 0.00 | 43 | 1006.7 |
| 20260506004325 | 23 | 200 | 4.8 | 37.0 | 0.00 | 0.00 | 0.00 | 43 | 1006.8 |
| 20260506004223 | 23 | 169 | 4.8 | 37.0 | 0.00 | 0.00 | 0.00 | 43 | 1006.8 |
| 20260506004123 | 23 | 188 | 4.8 | 37.0 | 0.00 | 0.00 | 0.00 | 43 | 1006.8 |
| 20260506004109 | 23 | 200 | 4.8 | 37.0 | 0.00 | 0.00 | 0.00 | 43 | 1006.8 |
| 20260506004023 | 23 | 146 | 4.8 | 37.0 | 0.00 | 0.00 | 0.00 | 43 | 1006.8 |
| 20260506004020 | 24 | 148 | 0.0 | 37.0 | 0.00 | 0.00 | 0.00 | 43 | 1006.6 |
| 20260506003921 | 24 | 171 | 4.8 | 37.0 | 0.00 | 0.00 | 0.00 | 43 | 1006.7 |
| 20260506003835 | 24 | 220 | 4.8 | 37.0 | 0.00 | 0.00 | 0.00 | 43 | 1006.7 |
| 20260506003821 | 24 | 204 | 4.8 | 37.0 | 0.00 | 0.00 | 0.00 | 43 | 1006.8 |
| 20260506003725 | 24 | 155 | 4.8 | 37.0 | 0.00 | 0.00 | 0.00 | 43 | 1006.8 |
| 20260506003716 | 24 | 150 | 4.8 | 37.0 | 0.00 | 0.00 | 0.00 | 43 | 1006.7 |
| 20260506003543 | 24 | 161 | 3.2 | 27.4 | 0.00 | 0.00 | 0.00 | 43 | 1006.7 |
| 20260506003539 | 24 | 160 | 3.2 | 20.9 | 0.00 | 0.00 | 0.00 | 43 | 1006.7 |
| 20260506003535 | 24 | 200 | 4.8 | 37.0 | 0.00 | 0.00 | 0.00 | 43 | 1006.7 |
| 20260506003521 | 24 | 163 | 1.6 | 37.0 | 0.00 | 0.00 | 0.00 | 43 | 1006.6 |
| 20260506003216 | 24 | 183 | 1.6 | 20.9 | 0.00 | 0.00 | 0.00 | 43 | 1006.7 |
| 20260506003116 | 24 | 182 | 3.2 | 20.9 | 0.00 | 0.00 | 0.00 | 43 | 1006.7 |
| 20260506003108 | 24 | 162 | 3.2 | 20.9 | 0.00 | 0.00 | 0.00 | 43 | 1006.7 |
| 20260506003020 | 24 | 194 | 0.0 | 20.9 | 0.00 | 0.00 | 0.00 | 43 | 1006.5 |
| 20260506003014 | 24 | 194 | 3.2 | 20.9 | 0.00 | 0.00 | 0.00 | 43 | 1006.6 |
| 20260506002934 | 23 | 180 | 1.6 | 19.3 | 0.00 | 0.00 | 0.00 | 43 | 1006.6 |
| 20260506002930 | 23 | 177 | 1.6 | 20.9 | 0.00 | 0.00 | 0.00 | 43 | 1006.6 |
| 20260506002812 | 23 | 176 | 1.6 | 19.3 | 0.00 | 0.00 | 0.00 | 43 | 1006.6 |
| 20260506002658 | 24 | 192 | 1.6 | 19.3 | 0.00 | 0.00 | 0.00 | 44 | 1006.6 |
| 20260506002652 | 24 | 193 | 1.6 | 19.3 | 0.00 | 0.00 | 0.00 | 44 | 1006.6 |
| 20260506002520 | 24 | 161 | 9.7 | 22.5 | 0.00 | 0.00 | 0.00 | 44 | 1006.5 |
| 20260506002430 | 24 | 190 | 3.2 | 22.5 | 0.00 | 0.00 | 0.00 | 44 | 1006.5 |
| 20260506002426 | 24 | 194 | 1.6 | 22.5 | 0.00 | 0.00 | 0.00 | 44 | 1006.6 |
| 20260506002114 | 24 | 165 | 3.2 | 22.5 | 0.00 | 0.00 | 0.00 | 44 | 1006.5 |
| 20260506002108 | 24 | 163 | 3.2 | 22.5 | 0.00 | 0.00 | 0.00 | 44 | 1006.5 |
| 20260506002019 | 24 | 167 | 0.0 | 22.5 | 0.00 | 0.00 | 0.00 | 44 | 1006.4 |
| 20260506002007 | 24 | 156 | 3.2 | 22.5 | 0.00 | 0.00 | 0.00 | 44 | 1006.5 |
| 20260506001907 | 24 | 163 | 3.2 | 22.5 | 0.00 | 0.00 | 0.00 | 44 | 1006.5 |
| 20260506001806 | 24 | 174 | 3.2 | 22.5 | 0.00 | 0.00 | 0.00 | 44 | 1006.5 |
| 20260506001706 | 24 | 183 | 3.2 | 22.5 | 0.00 | 0.00 | 0.00 | 44 | 1006.5 |
| 20260506001611 | 24 | 175 | 1.6 | 22.5 | 0.00 | 0.00 | 0.00 | 44 | 1006.4 |
| 20260506001605 | 24 | 152 | 1.6 | 22.5 | 0.00 | 0.00 | 0.00 | 44 | 1006.4 |
| 20260506001526 | 24 | 180 | 1.6 | 20.9 | 0.00 | 0.00 | 0.00 | 44 | 1006.5 |
| 20260506001520 | 24 | 170 | 3.2 | 20.9 | 0.00 | 0.00 | 0.00 | 44 | 1006.4 |
| 20260506001413 | 24 | 136 | 1.6 | 20.9 | 0.00 | 0.00 | 0.00 | 44 | 1006.4 |
| 20260506001203 | 24 | 171 | 1.6 | 20.9 | 0.00 | 0.00 | 0.00 | 44 | 1006.5 |
| 20260506001108 | 24 | 178 | 1.6 | 12.9 | 0.00 | 0.00 | 0.00 | 44 | 1006.4 |
| 20260506001102 | 24 | 167 | 1.6 | 12.9 | 0.00 | 0.00 | 0.00 | 44 | 1006.4 |
| 20260506001020 | 24 | 146 | 6.4 | 12.9 | 0.00 | 0.00 | 0.00 | 44 | 1006.3 |
| 20260506001014 | 24 | 202 | 0.0 | 12.9 | 0.00 | 0.00 | 0.00 | 44 | 1006.4 |
| 20260506001010 | 24 | 171 | 1.6 | 12.9 | 0.00 | 0.00 | 0.00 | 44 | 1006.4 |
| 20260506000812 | 24 | 169 | 0.0 | 9.7 | 0.00 | 0.00 | 0.00 | 44 | 1006.4 |
| 20260506000808 | 24 | 194 | 0.0 | 12.9 | 0.00 | 0.00 | 0.00 | 44 | 1006.4 |
| 20260506000608 | 24 | 166 | 0.0 | 8.0 | 0.00 | 0.00 | 0.00 | 44 | 1006.4 |
| 20260506000559 | 24 | 179 | 0.0 | 8.0 | 0.00 | 0.00 | 0.00 | 44 | 1006.4 |
| 20260506000535 | 24 | 242 | 0.0 | 8.0 | 0.00 | 0.00 | 0.00 | 44 | 1006.3 |
| 20260506000459 | 24 | 183 | 0.0 | 8.0 | 0.00 | 0.00 | 0.00 | 44 | 1006.4 |
| 20260506000401 | 24 | 145 | 0.0 | 8.0 | 0.00 | 0.00 | 0.00 | 44 | 1006.4 |
| 20260506000258 | 24 | 151 | 0.0 | 8.0 | 0.00 | 0.00 | 0.00 | 44 | 1006.4 |
| 20260506000157 | 24 | 170 | 0.0 | 11.3 | 0.00 | 0.00 | 0.00 | 44 | 1006.4 |
| 20260506000107 | 24 | 166 | 0.0 | 11.3 | 0.00 | 0.00 | 0.00 | 44 | 1006.4 |
| 20260506000056 | 24 | 163 | 0.0 | 11.3 | 0.00 | 0.00 | 0.00 | 44 | 1006.4 |
| 20260506000050 | 24 | 165 | 0.0 | 14.5 | 0.00 | 0.00 | 0.00 | 44 | 1006.3 |
| 20260505235955 | 24 | 168 | 0.0 | 14.5 | 0.00 | 0.00 | 0.00 | 44 | 1006.4 |
| 20260505235853 | 24 | 177 | 0.0 | 14.5 | 0.00 | 0.00 | 0.00 | 44 | 1006.4 |
| 20260505235752 | 24 | 171 | 0.0 | 14.5 | 0.00 | 0.00 | 0.00 | 44 | 1006.3 |
| 20260505235652 | 24 | 159 | 0.0 | 14.5 | 0.00 | 0.00 | 0.00 | 44 | 1006.3 |
| 20260505235623 | 24 | 177 | 0.0 | 14.5 | 0.00 | 0.00 | 0.00 | 43 | 1006.3 |
| 20260505235619 | 24 | 188 | 1.6 | 14.5 | 0.00 | 0.00 | 0.00 | 43 | 1006.3 |
| 20260505235614 | 24 | 188 | 0.0 | 14.5 | 0.00 | 0.00 | 0.00 | 44 | 1006.3 |
| 20260505235608 | 24 | 186 | 0.0 | 14.5 | 0.00 | 0.00 | 0.00 | 44 | 1006.3 |
| 20260505235520 | 24 | 149 | 0.0 | 14.5 | 0.00 | 0.00 | 0.00 | 43 | 1006.2 |
| 20260505235250 | 24 | 167 | 1.6 | 16.1 | 0.00 | 0.00 | 0.00 | 43 | 1006.3 |
| 20260505235149 | 25 | 186 | 1.6 | 16.1 | 0.00 | 0.00 | 0.00 | 43 | 1006.3 |
| 20260505235104 | 25 | 173 | 1.6 | 16.1 | 0.00 | 0.00 | 0.00 | 43 | 1006.2 |
| 20260505235049 | 25 | 146 | 1.6 | 16.1 | 0.00 | 0.00 | 0.00 | 43 | 1006.2 |
| 20260505235019 | 25 | 156 | 14.5 | 16.1 | 0.00 | 0.00 | 0.00 | 43 | 1006.2 |
| 20260505234949 | 25 | 171 | 1.6 | 16.1 | 0.00 | 0.00 | 0.00 | 42 | 1006.3 |
| 20260505234935 | 25 | 162 | 1.6 | 16.1 | 0.00 | 0.00 | 0.00 | 42 | 1006.3 |
| 20260505234749 | 25 | 152 | 1.6 | 16.1 | 0.00 | 0.00 | 0.00 | 42 | 1006.2 |
| 20260505234713 | 25 | 183 | 1.6 | 16.1 | 0.00 | 0.00 | 0.00 | 42 | 1006.2 |
| 20260505234548 | 25 | 152 | 1.6 | 16.1 | 0.00 | 0.00 | 0.00 | 41 | 1006.3 |
| 20260505234520 | 25 | 165 | 0.0 | 16.1 | 0.00 | 0.00 | 0.00 | 41 | 1006.1 |
| 20260505234447 | 25 | 173 | 1.6 | 16.1 | 0.00 | 0.00 | 0.00 | 41 | 1006.2 |
| 20260505234346 | 25 | 179 | 0.0 | 16.1 | 0.00 | 0.00 | 0.00 | 41 | 1006.2 |
| 20260505234246 | 25 | 167 | 0.0 | 12.9 | 0.00 | 0.00 | 0.00 | 41 | 1006.2 |
| 20260505234144 | 25 | 159 | 0.0 | 12.9 | 0.00 | 0.00 | 0.00 | 41 | 1006.2 |
| 20260505234104 | 25 | 167 | 0.0 | 12.9 | 0.00 | 0.00 | 0.00 | 41 | 1006.2 |
| 20260505234044 | 25 | 153 | 0.0 | 12.9 | 0.00 | 0.00 | 0.00 | 41 | 1006.2 |
| 20260505234020 | 25 | 169 | 0.0 | 12.9 | 0.00 | 0.00 | 0.00 | 41 | 1006.0 |
| 20260505233942 | 25 | 138 | 0.0 | 12.9 | 0.00 | 0.00 | 0.00 | 40 | 1006.1 |
| 20260505233858 | 25 | 178 | 0.0 | 8.0 | 0.00 | 0.00 | 0.00 | 40 | 1006.2 |
| 20260505233854 | 25 | 0 | 0.0 | 12.9 | 0.00 | 0.00 | 0.00 | 40 | 1006.2 |
| 20260505233849 | 25 | 159 | 0.0 | 12.9 | 0.00 | 0.00 | 0.00 | 40 | 1006.2 |
| 20260505233714 | 25 | 0 | 0.0 | 12.9 | 0.00 | 0.00 | 0.00 | 40 | 1006.2 |
| 20260505233538 | 25 | 0 | 0.0 | 12.9 | 0.00 | 0.00 | 0.00 | 40 | 1006.2 |
| 20260505233520 | 25 | 360 | 0.0 | 12.9 | 0.00 | 0.00 | 0.00 | 40 | 1006.1 |
| 20260505233437 | 25 | 0 | 0.0 | 12.9 | 0.00 | 0.00 | 0.00 | 40 | 1006.2 |
| 20260505233337 | 25 | 0 | 0.0 | 12.9 | 0.00 | 0.00 | 0.00 | 40 | 1006.2 |
| 20260505233235 | 25 | 188 | 0.0 | 12.9 | 0.00 | 0.00 | 0.00 | 40 | 1006.1 |
| 20260505233135 | 25 | 175 | 0.0 | 12.9 | 0.00 | 0.00 | 0.00 | 40 | 1006.1 |
| 20260505233103 | 25 | 174 | 0.0 | 12.9 | 0.00 | 0.00 | 0.00 | 39 | 1006.1 |
| 20260505233034 | 25 | 173 | 0.0 | 12.9 | 0.00 | 0.00 | 0.00 | 39 | 1006.1 |
| 20260505233020 | 25 | 176 | 0.0 | 12.9 | 0.00 | 0.00 | 0.00 | 39 | 1006.0 |
| 20260505232934 | 25 | 188 | 0.0 | 12.9 | 0.00 | 0.00 | 0.00 | 39 | 1006.1 |
| 20260505232846 | 25 | 175 | 0.0 | 12.9 | 0.00 | 0.00 | 0.00 | 39 | 1006.1 |
| 20260505232842 | 25 | 212 | 0.0 | 12.9 | 0.00 | 0.00 | 0.00 | 39 | 1006.1 |
| 20260505232632 | 25 | 199 | 0.0 | 9.7 | 0.00 | 0.00 | 0.00 | 39 | 1006.1 |
| 20260505232603 | 25 | 188 | 0.0 | 9.7 | 0.00 | 0.00 | 0.00 | 39 | 1006.1 |
| 20260505232531 | 25 | 188 | 0.0 | 9.7 | 0.00 | 0.00 | 0.00 | 39 | 1006.1 |
| 20260505232520 | 25 | 188 | 0.0 | 8.0 | 0.00 | 0.00 | 0.00 | 39 | 1006.0 |
| 20260505232430 | 25 | 171 | 0.0 | 9.7 | 0.00 | 0.00 | 0.00 | 39 | 1006.1 |
| 20260505232329 | 25 | 202 | 0.0 | 16.1 | 0.00 | 0.00 | 0.00 | 39 | 1006.1 |
| 20260505232229 | 25 | 187 | 0.0 | 16.1 | 0.00 | 0.00 | 0.00 | 39 | 1006.1 |
| 20260505232129 | 25 | 202 | 0.0 | 16.1 | 0.00 | 0.00 | 0.00 | 39 | 1006.1 |
| 20260505232103 | 25 | 200 | 0.0 | 16.1 | 0.00 | 0.00 | 0.00 | 38 | 1006.1 |
| 20260505232028 | 25 | 188 | 0.0 | 16.1 | 0.00 | 0.00 | 0.00 | 38 | 1006.1 |
| 20260505232020 | 25 | 182 | 8.0 | 16.1 | 0.00 | 0.00 | 0.00 | 39 | 1006.0 |
| 20260505231940 | 25 | 203 | 0.0 | 16.1 | 0.00 | 0.00 | 0.00 | 38 | 1006.1 |
| 20260505231935 | 25 | 191 | 0.0 | 16.1 | 0.00 | 0.00 | 0.00 | 39 | 1006.1 |
| 20260505231726 | 25 | 196 | 0.0 | 16.1 | 0.00 | 0.00 | 0.00 | 38 | 1006.1 |
| 20260505231626 | 25 | 200 | 0.0 | 17.7 | 0.00 | 0.00 | 0.00 | 38 | 1006.0 |
| 20260505231603 | 25 | 203 | 0.0 | 17.7 | 0.00 | 0.00 | 0.00 | 38 | 1006.0 |
| 20260505231524 | 25 | 198 | 0.0 | 17.7 | 0.00 | 0.00 | 0.00 | 38 | 1006.0 |
| 20260505231520 | 25 | 176 | 0.0 | 17.7 | 0.00 | 0.00 | 0.00 | 38 | 1005.9 |
| 20260505231424 | 25 | 196 | 0.0 | 17.7 | 0.00 | 0.00 | 0.00 | 38 | 1006.0 |
| 20260505231323 | 25 | 190 | 0.0 | 17.7 | 0.00 | 0.00 | 0.00 | 38 | 1006.0 |
| 20260505231223 | 25 | 184 | 0.0 | 17.7 | 0.00 | 0.00 | 0.00 | 38 | 1006.1 |
| 20260505231123 | 25 | 176 | 0.0 | 17.7 | 0.00 | 0.00 | 0.00 | 38 | 1006.0 |
| 20260505231102 | 25 | 206 | 0.0 | 17.7 | 0.00 | 0.00 | 0.00 | 38 | 1006.0 |
| 20260505231021 | 25 | 164 | 0.0 | 17.7 | 0.00 | 0.00 | 0.00 | 38 | 1006.0 |
| 20260505230933 | 25 | 169 | 1.6 | 17.7 | 0.00 | 0.00 | 0.00 | 37 | 1006.0 |
| 20260505230929 | 25 | 203 | 0.0 | 17.7 | 0.00 | 0.00 | 0.00 | 38 | 1006.0 |
| 20260505230719 | 25 | 152 | 1.6 | 17.7 | 0.00 | 0.00 | 0.00 | 38 | 1006.0 |
| 20260505230619 | 25 | 190 | 0.0 | 17.7 | 0.00 | 0.00 | 0.00 | 38 | 1006.0 |
| 20260505230602 | 25 | 188 | 1.6 | 17.7 | 0.00 | 0.00 | 0.00 | 38 | 1006.0 |
| 20260505230520 | 26 | 167 | 0.0 | 22.5 | 0.00 | 0.00 | 0.00 | 37 | 1005.9 |
| 20260505230518 | 25 | 167 | 1.6 | 17.7 | 0.00 | 0.00 | 0.00 | 37 | 1006.0 |
| 20260505230429 | 25 | 194 | 1.6 | 22.5 | 0.00 | 0.00 | 0.00 | 37 | 1006.0 |
| 20260505230424 | 25 | 211 | 1.6 | 22.5 | 0.00 | 0.00 | 0.00 | 38 | 1006.0 |
| 20260505230228 | 26 | 228 | 1.6 | 22.5 | 0.00 | 0.00 | 0.00 | 37 | 1006.0 |
| 20260505230224 | 26 | 197 | 1.6 | 22.5 | 0.00 | 0.00 | 0.00 | 37 | 1005.9 |
| 20260505230020 | 26 | 212 | 0.0 | 22.5 | 0.00 | 0.00 | 0.00 | 37 | 1005.9 |
| 20260505230014 | 26 | 212 | 3.2 | 22.5 | 0.00 | 0.00 | 0.00 | 37 | 1006.0 |
| 20260505225914 | 26 | 213 | 1.6 | 22.5 | 0.00 | 0.00 | 0.00 | 37 | 1005.9 |
| 20260505225826 | 26 | 188 | 1.6 | 22.5 | 0.00 | 0.00 | 0.00 | 37 | 1006.0 |
| 20260505225822 | 26 | 171 | 1.6 | 22.5 | 0.00 | 0.00 | 0.00 | 37 | 1006.0 |
| 20260505225612 | 26 | 191 | 1.6 | 22.5 | 0.00 | 0.00 | 0.00 | 36 | 1005.9 |
| 20260505225600 | 26 | 203 | 1.6 | 22.5 | 0.00 | 0.00 | 0.00 | 36 | 1005.9 |
| 20260505225520 | 26 | 208 | 22.5 | 22.5 | 0.00 | 0.00 | 0.00 | 36 | 1005.7 |
| 20260505225512 | 26 | 194 | 1.6 | 22.5 | 0.00 | 0.00 | 0.00 | 36 | 1005.9 |
| 20260505225410 | 26 | 159 | 1.6 | 22.5 | 0.00 | 0.00 | 0.00 | 37 | 1006.0 |
| 20260505225310 | 26 | 203 | 1.6 | 25.7 | 0.00 | 0.00 | 0.00 | 36 | 1006.0 |
| 20260505225211 | 26 | 210 | 1.6 | 25.7 | 0.00 | 0.00 | 0.00 | 37 | 1005.9 |
| 20260505225110 | 26 | 184 | 1.6 | 25.7 | 0.00 | 0.00 | 0.00 | 36 | 1006.0 |
| 20260505225100 | 26 | 177 | 1.6 | 25.7 | 0.00 | 0.00 | 0.00 | 36 | 1006.0 |
| 20260505225020 | 26 | 184 | 9.7 | 25.7 | 0.00 | 0.00 | 0.00 | 36 | 1005.7 |
| 20260505225010 | 26 | 180 | 1.6 | 25.7 | 0.00 | 0.00 | 0.00 | 36 | 1005.9 |
| 20260505224909 | 26 | 238 | 1.6 | 25.7 | 0.00 | 0.00 | 0.00 | 36 | 1005.9 |
| 20260505224808 | 26 | 225 | 1.6 | 25.7 | 0.00 | 0.00 | 0.00 | 36 | 1005.9 |
| 20260505224709 | 26 | 182 | 1.6 | 25.7 | 0.00 | 0.00 | 0.00 | 36 | 1005.9 |
| 20260505224607 | 26 | 194 | 1.6 | 25.7 | 0.00 | 0.00 | 0.00 | 35 | 1005.9 |
| 20260505224558 | 26 | 207 | 1.6 | 25.7 | 0.00 | 0.00 | 0.00 | 35 | 1005.9 |
| 20260505224520 | 26 | 240 | 0.0 | 25.7 | 0.00 | 0.00 | 0.00 | 35 | 1005.7 |
| 20260505224506 | 26 | 207 | 1.6 | 25.7 | 0.00 | 0.00 | 0.00 | 35 | 1005.9 |
| 20260505224406 | 26 | 192 | 1.6 | 25.7 | 0.00 | 0.00 | 0.00 | 35 | 1005.9 |
| 20260505224305 | 26 | 202 | 1.6 | 24.1 | 0.00 | 0.00 | 0.00 | 35 | 1006.0 |
| 20260505224205 | 26 | 227 | 1.6 | 24.1 | 0.00 | 0.00 | 0.00 | 35 | 1005.9 |
| 20260505224106 | 26 | 180 | 0.0 | 24.1 | 0.00 | 0.00 | 0.00 | 35 | 1006.0 |
| 20260505224100 | 26 | 183 | 0.0 | 24.1 | 0.00 | 0.00 | 0.00 | 35 | 1006.0 |
| 20260505224020 | 26 | 196 | 8.0 | 14.5 | 0.00 | 0.00 | 0.00 | 35 | 1005.8 |
| 20260505224004 | 26 | 182 | 0.0 | 14.5 | 0.00 | 0.00 | 0.00 | 35 | 1005.9 |
| 20260505223902 | 26 | 191 | 0.0 | 16.1 | 0.00 | 0.00 | 0.00 | 35 | 1005.9 |
| 20260505223829 | 26 | 200 | 0.0 | 16.1 | 0.00 | 0.00 | 0.00 | 35 | 1005.9 |
| 20260505223715 | 26 | 178 | 0.0 | 16.1 | 0.00 | 0.00 | 0.00 | 35 | 1005.9 |
| 20260505223602 | 26 | 208 | 0.0 | 16.1 | 0.00 | 0.00 | 0.00 | 35 | 1005.9 |
| 20260505223520 | 26 | 232 | 0.0 | 16.1 | 0.00 | 0.00 | 0.00 | 35 | 1005.7 |
| 20260505223500 | 26 | 212 | 0.0 | 16.1 | 0.00 | 0.00 | 0.00 | 35 | 1005.8 |
| 20260505223400 | 26 | 197 | 0.0 | 16.1 | 0.00 | 0.00 | 0.00 | 35 | 1005.8 |
| 20260505223259 | 26 | 167 | 0.0 | 16.1 | 0.00 | 0.00 | 0.00 | 35 | 1005.8 |
| 20260505223159 | 26 | 221 | 0.0 | 16.1 | 0.00 | 0.00 | 0.00 | 35 | 1005.9 |
| 20260505223100 | 26 | 206 | 0.0 | 16.1 | 0.00 | 0.00 | 0.00 | 35 | 1005.8 |
| 20260505223021 | 26 | 204 | 0.0 | 19.3 | 0.00 | 0.00 | 0.00 | 35 | 1005.7 |
| 20260505223010 | 26 | 214 | 1.6 | 24.1 | 0.00 | 0.00 | 0.00 | 35 | 1005.8 |
| 20260505223005 | 26 | 220 | 0.0 | 19.3 | 0.00 | 0.00 | 0.00 | 35 | 1005.8 |
| 20260505222756 | 26 | 252 | 1.6 | 24.1 | 0.00 | 0.00 | 0.00 | 35 | 1005.8 |
| 20260505222654 | 26 | 229 | 1.6 | 24.1 | 0.00 | 0.00 | 0.00 | 34 | 1005.8 |
| 20260505222601 | 26 | 223 | 1.6 | 24.1 | 0.00 | 0.00 | 0.00 | 34 | 1005.8 |
| 20260505222555 | 26 | 199 | 1.6 | 24.1 | 0.00 | 0.00 | 0.00 | 34 | 1005.8 |
| 20260505222535 | 27 | 200 | 0.0 | 24.1 | 0.00 | 0.00 | 0.00 | 34 | 1005.7 |
| 20260505222516 | 26 | 215 | 1.6 | 24.1 | 0.00 | 0.00 | 0.00 | 34 | 1005.8 |
| 20260505222403 | 26 | 211 | 1.6 | 24.1 | 0.00 | 0.00 | 0.00 | 34 | 1005.8 |
| 20260505222152 | 27 | 186 | 1.6 | 24.1 | 0.00 | 0.00 | 0.00 | 34 | 1005.9 |
| 20260505222111 | 27 | 238 | 1.6 | 24.1 | 0.00 | 0.00 | 0.00 | 35 | 1005.8 |
| 20260505222106 | 27 | 212 | 1.6 | 24.1 | 0.00 | 0.00 | 0.00 | 34 | 1005.8 |
| 20260505222100 | 27 | 204 | 1.6 | 24.1 | 0.00 | 0.00 | 0.00 | 34 | 1005.8 |
| 20260505222020 | 27 | 236 | 1.6 | 24.1 | 0.00 | 0.00 | 0.00 | 35 | 1005.7 |
| 20260505221851 | 27 | 196 | 1.6 | 24.1 | 0.00 | 0.00 | 0.00 | 34 | 1005.8 |
| 20260505221750 | 27 | 185 | 1.6 | 24.1 | 0.00 | 0.00 | 0.00 | 34 | 1005.7 |
| 20260505221649 | 27 | 238 | 1.6 | 24.1 | 0.00 | 0.00 | 0.00 | 34 | 1005.8 |
| 20260505221557 | 27 | 195 | 1.6 | 24.1 | 0.00 | 0.00 | 0.00 | 35 | 1005.8 |
| 20260505221549 | 27 | 209 | 1.6 | 24.1 | 0.00 | 0.00 | 0.00 | 35 | 1005.8 |
| 20260505221520 | 27 | 236 | 0.0 | 17.7 | 0.00 | 0.00 | 0.00 | 35 | 1005.7 |
| 20260505221500 | 27 | 197 | 1.6 | 24.1 | 0.00 | 0.00 | 0.00 | 34 | 1005.7 |
| 20260505221456 | 27 | 163 | 1.6 | 24.1 | 0.00 | 0.00 | 0.00 | 35 | 1005.8 |
| 20260505221246 | 27 | 175 | 1.6 | 24.1 | 0.00 | 0.00 | 0.00 | 34 | 1005.7 |
| 20260505221146 | 27 | 247 | 1.6 | 24.1 | 0.00 | 0.00 | 0.00 | 34 | 1005.7 |
| 20260505221056 | 27 | 184 | 1.6 | 16.1 | 0.00 | 0.00 | 0.00 | 34 | 1005.7 |
| 20260505221045 | 27 | 190 | 1.6 | 16.1 | 0.00 | 0.00 | 0.00 | 34 | 1005.7 |
| 20260505221020 | 27 | 153 | 16.1 | 16.1 | 0.00 | 0.00 | 0.00 | 34 | 1005.6 |
| 20260505220945 | 27 | 219 | 1.6 | 14.5 | 0.00 | 0.00 | 0.00 | 34 | 1005.7 |
| 20260505220912 | 27 | 239 | 1.6 | 16.1 | 0.00 | 0.00 | 0.00 | 35 | 1005.7 |
| 20260505220908 | 27 | 183 | 1.6 | 16.1 | 0.00 | 0.00 | 0.00 | 34 | 1005.7 |
| 20260505220903 | 27 | 192 | 1.6 | 14.5 | 0.00 | 0.00 | 0.00 | 34 | 1005.8 |
| 20260505220603 | 27 | 207 | 3.2 | 33.8 | 0.00 | 0.00 | 0.00 | 34 | 1005.7 |
| 20260505220558 | 27 | 180 | 1.6 | 33.8 | 0.00 | 0.00 | 0.00 | 34 | 1005.7 |
| 20260505220553 | 27 | 165 | 1.6 | 33.8 | 0.00 | 0.00 | 0.00 | 34 | 1005.7 |
| 20260505220520 | 27 | 195 | 0.0 | 33.8 | 0.00 | 0.00 | 0.00 | 34 | 1005.6 |
| 20260505220343 | 27 | 174 | 3.2 | 33.8 | 0.00 | 0.00 | 0.00 | 34 | 1005.7 |
| 20260505220243 | 27 | 229 | 3.2 | 35.4 | 0.00 | 0.00 | 0.00 | 34 | 1005.7 |
| 20260505220202 | 26 | 201 | 4.8 | 35.4 | 0.00 | 0.00 | 0.00 | 34 | 1005.7 |
| 20260505220156 | 26 | 265 | 4.8 | 35.4 | 0.00 | 0.00 | 0.00 | 34 | 1005.7 |
| 20260505220148 | 26 | 216 | 4.8 | 35.4 | 0.00 | 0.00 | 0.00 | 34 | 1005.7 |
| 20260505220020 | 26 | 173 | 1.6 | 35.4 | 0.00 | 0.00 | 0.00 | 34 | 1005.6 |
| 20260505215940 | 26 | 213 | 4.8 | 35.4 | 0.00 | 0.00 | 0.00 | 34 | 1005.7 |
| 20260505215840 | 26 | 205 | 4.8 | 35.4 | 0.00 | 0.00 | 0.00 | 34 | 1005.7 |
| 20260505215739 | 26 | 196 | 4.8 | 35.4 | 0.00 | 0.00 | 0.00 | 33 | 1005.6 |
| 20260505215658 | 27 | 163 | 3.2 | 35.4 | 0.00 | 0.00 | 0.00 | 33 | 1005.7 |
| 20260505215653 | 26 | 192 | 4.8 | 35.4 | 0.00 | 0.00 | 0.00 | 33 | 1005.6 |
| 20260505215645 | 27 | 170 | 3.2 | 35.4 | 0.00 | 0.00 | 0.00 | 33 | 1005.7 |
| 20260505215520 | 27 | 210 | 1.6 | 35.4 | 0.00 | 0.00 | 0.00 | 33 | 1005.6 |
| 20260505215437 | 27 | 178 | 3.2 | 35.4 | 0.00 | 0.00 | 0.00 | 33 | 1005.7 |
| 20260505215337 | 27 | 196 | 3.2 | 35.4 | 0.00 | 0.00 | 0.00 | 33 | 1005.7 |
| 20260505215237 | 27 | 159 | 1.6 | 27.4 | 0.00 | 0.00 | 0.00 | 34 | 1005.7 |
| 20260505215137 | 27 | 188 | 1.6 | 27.4 | 0.00 | 0.00 | 0.00 | 33 | 1005.5 |
| 20260505215053 | 27 | 248 | 3.2 | 24.1 | 0.00 | 0.00 | 0.00 | 34 | 1005.7 |
| 20260505215037 | 27 | 223 | 3.2 | 24.1 | 0.00 | 0.00 | 0.00 | 34 | 1005.7 |
| 20260505215020 | 27 | 196 | 0.0 | 24.1 | 0.00 | 0.00 | 0.00 | 35 | 1005.6 |
| 20260505214936 | 27 | 193 | 3.2 | 24.1 | 0.00 | 0.00 | 0.00 | 34 | 1005.7 |
| 20260505214833 | 27 | 168 | 4.8 | 24.1 | 0.00 | 0.00 | 0.00 | 34 | 1005.7 |
| 20260505214733 | 27 | 237 | 4.8 | 24.1 | 0.00 | 0.00 | 0.00 | 34 | 1005.8 |
| 20260505214652 | 27 | 193 | 4.8 | 24.1 | 0.00 | 0.00 | 0.00 | 34 | 1005.7 |
| 20260505214647 | 27 | 202 | 4.8 | 24.1 | 0.00 | 0.00 | 0.00 | 34 | 1005.7 |
| 20260505214639 | 27 | 198 | 4.8 | 24.1 | 0.00 | 0.00 | 0.00 | 34 | 1005.7 |
| 20260505214521 | 27 | 244 | 6.4 | 24.1 | 0.00 | 0.00 | 0.00 | 34 | 1005.6 |
| 20260505214430 | 27 | 222 | 4.8 | 24.1 | 0.00 | 0.00 | 0.00 | 34 | 1005.7 |
| 20260505214330 | 27 | 211 | 4.8 | 24.1 | 0.00 | 0.00 | 0.00 | 34 | 1005.7 |
| 20260505214315 | 27 | 205 | 3.2 | 24.1 | 0.00 | 0.00 | 0.00 | 33 | 1005.6 |
| 20260505214230 | 27 | 261 | 4.8 | 24.1 | 0.00 | 0.00 | 0.00 | 33 | 1005.6 |
| 20260505214200 | 27 | 205 | 4.8 | 24.1 | 0.00 | 0.00 | 0.00 | 33 | 1005.7 |
| 20260505214028 | 27 | 202 | 3.2 | 24.1 | 0.00 | 0.00 | 0.00 | 33 | 1005.6 |
| 20260505214020 | 27 | 157 | 17.7 | 24.1 | 0.00 | 0.00 | 0.00 | 34 | 1005.6 |
| 20260505213929 | 27 | 185 | 3.2 | 20.9 | 0.00 | 0.00 | 0.00 | 34 | 1005.7 |
| 20260505213827 | 27 | 241 | 3.2 | 20.9 | 0.00 | 0.00 | 0.00 | 34 | 1005.6 |
| 20260505213727 | 27 | 183 | 3.2 | 29.0 | 0.00 | 0.00 | 0.00 | 35 | 1005.6 |
| 20260505213627 | 27 | 207 | 3.2 | 29.0 | 0.00 | 0.00 | 0.00 | 34 | 1005.6 |
| 20260505213550 | 27 | 183 | 3.2 | 29.0 | 0.00 | 0.00 | 0.00 | 34 | 1005.5 |
| 20260505213527 | 27 | 191 | 3.2 | 29.0 | 0.00 | 0.00 | 0.00 | 34 | 1005.5 |
| 20260505213521 | 27 | 173 | 14.5 | 29.0 | 0.00 | 0.00 | 0.00 | 34 | 1005.4 |
| 20260505213427 | 27 | 195 | 3.2 | 29.0 | 0.00 | 0.00 | 0.00 | 33 | 1005.5 |
| 20260505213327 | 27 | 160 | 3.2 | 29.0 | 0.00 | 0.00 | 0.00 | 34 | 1005.6 |
| 20260505213320 | 27 | 209 | 4.8 | 29.0 | 0.00 | 0.00 | 0.00 | 33 | 1005.5 |
| 20260505213226 | 27 | 211 | 4.8 | 29.0 | 0.00 | 0.00 | 0.00 | 34 | 1005.6 |
| 20260505213158 | 27 | 196 | 3.2 | 29.0 | 0.00 | 0.00 | 0.00 | 34 | 1005.5 |
| 20260505213025 | 27 | 196 | 4.8 | 29.0 | 0.00 | 0.00 | 0.00 | 33 | 1005.5 |
| 20260505213020 | 27 | 221 | 0.0 | 29.0 | 0.00 | 0.00 | 0.00 | 33 | 1005.4 |
| 20260505212924 | 27 | 213 | 4.8 | 38.6 | 0.00 | 0.00 | 0.00 | 33 | 1005.5 |
| 20260505212824 | 27 | 175 | 4.8 | 38.6 | 0.00 | 0.00 | 0.00 | 33 | 1005.5 |
| 20260505212722 | 27 | 194 | 4.8 | 38.6 | 0.00 | 0.00 | 0.00 | 33 | 1005.5 |
| 20260505212622 | 27 | 181 | 4.8 | 38.6 | 0.00 | 0.00 | 0.00 | 33 | 1005.5 |
| 20260505212551 | 27 | 162 | 4.8 | 38.6 | 0.00 | 0.00 | 0.00 | 33 | 1005.5 |
| 20260505212522 | 27 | 177 | 4.8 | 38.6 | 0.00 | 0.00 | 0.00 | 33 | 1005.5 |
| 20260505212520 | 27 | 165 | 6.4 | 38.6 | 0.00 | 0.00 | 0.00 | 33 | 1005.4 |
| 20260505212421 | 27 | 192 | 4.8 | 38.6 | 0.00 | 0.00 | 0.00 | 33 | 1005.5 |
| 20260505212321 | 27 | 195 | 3.2 | 38.6 | 0.00 | 0.00 | 0.00 | 33 | 1005.5 |
| 20260505212220 | 27 | 217 | 4.8 | 38.6 | 0.00 | 0.00 | 0.00 | 33 | 1005.6 |
| 20260505212119 | 27 | 229 | 4.8 | 38.6 | 0.00 | 0.00 | 0.00 | 33 | 1005.6 |
| 20260505212050 | 27 | 220 | 4.8 | 38.6 | 0.00 | 0.00 | 0.00 | 33 | 1005.6 |
| 20260505212032 | 27 | 186 | 3.2 | 32.2 | 0.00 | 0.00 | 0.00 | 32 | 1005.6 |
| 20260505212027 | 27 | 213 | 4.8 | 38.6 | 0.00 | 0.00 | 0.00 | 32 | 1005.6 |
| 20260505212020 | 27 | 185 | 4.8 | 38.6 | 0.00 | 0.00 | 0.00 | 32 | 1005.5 |
| 20260505211816 | 27 | 219 | 3.2 | 27.4 | 0.00 | 0.00 | 0.00 | 33 | 1005.6 |
| 20260505211717 | 27 | 228 | 1.6 | 27.4 | 0.00 | 0.00 | 0.00 | 33 | 1005.6 |
| 20260505211710 | 27 | 211 | 3.2 | 27.4 | 0.00 | 0.00 | 0.00 | 33 | 1005.5 |
| 20260505211704 | 27 | 193 | 3.2 | 27.4 | 0.00 | 0.00 | 0.00 | 33 | 1005.6 |
| 20260505211553 | 27 | 198 | 3.2 | 27.4 | 0.00 | 0.00 | 0.00 | 33 | 1005.5 |
| 20260505211546 | 27 | 171 | 1.6 | 24.1 | 0.00 | 0.00 | 0.00 | 33 | 1005.6 |
| 20260505211541 | 27 | 240 | 3.2 | 27.4 | 0.00 | 0.00 | 0.00 | 32 | 1005.5 |
| 20260505211520 | 27 | 207 | 0.0 | 25.7 | 0.00 | 0.00 | 0.00 | 32 | 1005.4 |
| 20260505211111 | 27 | 190 | 3.2 | 17.7 | 0.00 | 0.00 | 0.00 | 32 | 1005.5 |
| 20260505211048 | 27 | 215 | 3.2 | 17.7 | 0.00 | 0.00 | 0.00 | 32 | 1005.6 |
| 20260505211020 | 27 | 179 | 0.0 | 33.8 | 0.00 | 0.00 | 0.00 | 32 | 1005.4 |
| 20260505211011 | 27 | 179 | 1.6 | 33.8 | 0.00 | 0.00 | 0.00 | 32 | 1005.5 |
| 20260505210925 | 27 | 198 | 3.2 | 33.8 | 0.00 | 0.00 | 0.00 | 33 | 1005.6 |
| 20260505210920 | 27 | 236 | 1.6 | 33.8 | 0.00 | 0.00 | 0.00 | 32 | 1005.6 |
| 20260505210710 | 27 | 194 | 3.2 | 33.8 | 0.00 | 0.00 | 0.00 | 32 | 1005.6 |
| 20260505210610 | 27 | 203 | 3.2 | 33.8 | 0.00 | 0.00 | 0.00 | 31 | 1005.7 |
| 20260505210547 | 27 | 242 | 3.2 | 33.8 | 0.00 | 0.00 | 0.00 | 31 | 1005.7 |
| 20260505210520 | 27 | 219 | 1.6 | 33.8 | 0.00 | 0.00 | 0.00 | 32 | 1005.5 |
| 20260505210509 | 27 | 229 | 3.2 | 33.8 | 0.00 | 0.00 | 0.00 | 32 | 1005.6 |
| 20260505210408 | 27 | 193 | 3.2 | 33.8 | 0.00 | 0.00 | 0.00 | 31 | 1005.8 |
| 20260505210307 | 27 | 213 | 3.2 | 33.8 | 0.00 | 0.00 | 0.00 | 31 | 1005.8 |
| 20260505210207 | 27 | 217 | 3.2 | 33.8 | 0.00 | 0.00 | 0.00 | 31 | 1005.7 |
| 20260505210106 | 27 | 197 | 3.2 | 33.8 | 0.00 | 0.00 | 0.00 | 31 | 1005.7 |
| 20260505210047 | 27 | 196 | 3.2 | 33.8 | 0.00 | 0.00 | 0.00 | 31 | 1005.7 |
| 20260505210020 | 27 | 235 | 0.0 | 27.4 | 0.00 | 0.00 | 0.00 | 31 | 1005.6 |
| 20260505210005 | 27 | 234 | 3.2 | 29.0 | 0.00 | 0.00 | 0.00 | 31 | 1005.7 |
| 20260505205903 | 27 | 221 | 3.2 | 29.0 | 0.00 | 0.00 | 0.00 | 32 | 1005.7 |
| 20260505205803 | 27 | 235 | 3.2 | 29.0 | 0.00 | 0.00 | 0.00 | 31 | 1005.7 |
| 20260505205727 | 27 | 189 | 3.2 | 29.0 | 0.00 | 0.00 | 0.00 | 31 | 1005.8 |
| 20260505205614 | 27 | 175 | 4.8 | 38.6 | 0.00 | 0.00 | 0.00 | 31 | 1005.8 |
| 20260505205607 | 27 | 223 | 4.8 | 38.6 | 0.00 | 0.00 | 0.00 | 31 | 1005.8 |
| 20260505205559 | 27 | 188 | 3.2 | 38.6 | 0.00 | 0.00 | 0.00 | 31 | 1005.8 |
| 20260505205520 | 27 | 197 | 0.0 | 38.6 | 0.00 | 0.00 | 0.00 | 31 | 1005.6 |
| 20260505205446 | 27 | 252 | 3.2 | 38.6 | 0.00 | 0.00 | 0.00 | 32 | 1005.8 |
| 20260505205334 | 27 | 194 | 3.2 | 38.6 | 0.00 | 0.00 | 0.00 | 31 | 1005.6 |
| 20260505205330 | 27 | 192 | 4.8 | 38.6 | 0.00 | 0.00 | 0.00 | 31 | 1005.6 |
| 20260505205324 | 27 | 211 | 3.2 | 38.6 | 0.00 | 0.00 | 0.00 | 31 | 1005.6 |
| 20260505205315 | 27 | 234 | 3.2 | 38.6 | 0.00 | 0.00 | 0.00 | 31 | 1005.6 |
| 20260505205051 | 27 | 220 | 3.2 | 38.6 | 0.00 | 0.00 | 0.00 | 31 | 1005.6 |
| 20260505205020 | 27 | 212 | 0.0 | 38.6 | 0.00 | 0.00 | 0.00 | 31 | 1005.5 |
| 20260505204610 | 27 | 174 | 3.2 | 32.2 | 0.00 | 0.00 | 0.00 | 31 | 1005.7 |
| 20260505204603 | 27 | 185 | 3.2 | 32.2 | 0.00 | 0.00 | 0.00 | 31 | 1005.7 |
| 20260505204520 | 27 | 215 | 4.8 | 32.2 | 0.00 | 0.00 | 0.00 | 32 | 1005.5 |
| 20260505204355 | 27 | 232 | 3.2 | 32.2 | 0.00 | 0.00 | 0.00 | 31 | 1005.7 |
| 20260505204254 | 27 | 180 | 4.8 | 32.2 | 0.00 | 0.00 | 0.00 | 31 | 1005.7 |
| 20260505204209 | 27 | 232 | 4.8 | 33.8 | 0.00 | 0.00 | 0.00 | 31 | 1005.7 |
| 20260505204204 | 27 | 222 | 4.8 | 33.8 | 0.00 | 0.00 | 0.00 | 31 | 1005.7 |
| 20260505204048 | 27 | 194 | 4.8 | 33.8 | 0.00 | 0.00 | 0.00 | 31 | 1005.7 |
| 20260505204020 | 27 | 228 | 0.0 | 32.2 | 0.00 | 0.00 | 0.00 | 31 | 1005.6 |
| 20260505203952 | 27 | 198 | 4.8 | 33.8 | 0.00 | 0.00 | 0.00 | 31 | 1005.8 |
| 20260505203851 | 27 | 184 | 4.8 | 33.8 | 0.00 | 0.00 | 0.00 | 31 | 1005.8 |
| 20260505203749 | 27 | 255 | 6.4 | 33.8 | 0.00 | 0.00 | 0.00 | 30 | 1005.8 |
| 20260505203649 | 27 | 213 | 4.8 | 40.2 | 0.00 | 0.00 | 0.00 | 31 | 1005.8 |
| 20260505203553 | 27 | 219 | 4.8 | 40.2 | 0.00 | 0.00 | 0.00 | 30 | 1005.7 |
| 20260505203546 | 27 | 240 | 4.8 | 40.2 | 0.00 | 0.00 | 0.00 | 30 | 1005.7 |
| 20260505203520 | 27 | 167 | 0.0 | 40.2 | 0.00 | 0.00 | 0.00 | 31 | 1005.6 |
| 20260505203510 | 27 | 250 | 4.8 | 40.2 | 0.00 | 0.00 | 0.00 | 31 | 1005.8 |
| 20260505203357 | 27 | 238 | 4.8 | 40.2 | 0.00 | 0.00 | 0.00 | 31 | 1005.7 |
| 20260505203229 | 27 | 200 | 3.2 | 40.2 | 0.00 | 0.00 | 0.00 | 31 | 1005.7 |
| 20260505203223 | 27 | 192 | 3.2 | 40.2 | 0.00 | 0.00 | 0.00 | 31 | 1005.7 |
| 20260505203213 | 27 | 230 | 3.2 | 40.2 | 0.00 | 0.00 | 0.00 | 31 | 1005.7 |
| 20260505203020 | 27 | 165 | 0.0 | 40.2 | 0.00 | 0.00 | 0.00 | 30 | 1005.5 |
| 20260505202955 | 27 | 202 | 3.2 | 40.2 | 0.00 | 0.00 | 0.00 | 30 | 1005.7 |
| 20260505202745 | 27 | 169 | 1.6 | 40.2 | 0.00 | 0.00 | 0.00 | 30 | 1005.7 |
| 20260505202646 | 27 | 207 | 1.6 | 20.9 | 0.00 | 0.00 | 0.00 | 31 | 1005.9 |
| 20260505202545 | 27 | 152 | 1.6 | 20.9 | 0.00 | 0.00 | 0.00 | 30 | 1005.7 |
| 20260505202520 | 27 | 258 | 0.0 | 20.9 | 0.00 | 0.00 | 0.00 | 30 | 1005.6 |
| 20260505202445 | 27 | 211 | 1.6 | 20.9 | 0.00 | 0.00 | 0.00 | 30 | 1005.8 |
| 20260505202343 | 27 | 246 | 1.6 | 20.9 | 0.00 | 0.00 | 0.00 | 30 | 1005.7 |
| 20260505202243 | 27 | 194 | 1.6 | 20.9 | 0.00 | 0.00 | 0.00 | 30 | 1005.8 |
| 20260505202141 | 27 | 165 | 3.2 | 22.5 | 0.00 | 0.00 | 0.00 | 31 | 1005.8 |
| 20260505202047 | 27 | 191 | 3.2 | 35.4 | 0.00 | 0.00 | 0.00 | 31 | 1005.8 |
| 20260505202040 | 27 | 182 | 3.2 | 35.4 | 0.00 | 0.00 | 0.00 | 31 | 1005.8 |
| 20260505202020 | 27 | 179 | 0.0 | 35.4 | 0.00 | 0.00 | 0.00 | 31 | 1005.5 |
| 20260505201940 | 27 | 219 | 3.2 | 35.4 | 0.00 | 0.00 | 0.00 | 31 | 1005.7 |
| 20260505201840 | 27 | 210 | 3.2 | 35.4 | 0.00 | 0.00 | 0.00 | 31 | 1005.7 |
| 20260505201738 | 27 | 178 | 3.2 | 35.4 | 0.00 | 0.00 | 0.00 | 31 | 1005.7 |
| 20260505201638 | 27 | 288 | 4.8 | 35.4 | 0.00 | 0.00 | 0.00 | 31 | 1005.7 |
| 20260505201545 | 27 | 175 | 4.8 | 35.4 | 0.00 | 0.00 | 0.00 | 31 | 1005.8 |
| 20260505201538 | 27 | 182 | 4.8 | 35.4 | 0.00 | 0.00 | 0.00 | 31 | 1005.8 |
| 20260505201520 | 27 | 176 | 0.0 | 35.4 | 0.00 | 0.00 | 0.00 | 31 | 1005.5 |
| 20260505201437 | 27 | 231 | 4.8 | 35.4 | 0.00 | 0.00 | 0.00 | 30 | 1005.7 |
| 20260505201337 | 27 | 236 | 4.8 | 35.4 | 0.00 | 0.00 | 0.00 | 31 | 1005.8 |
| 20260505201316 | 27 | 199 | 4.8 | 35.4 | 0.00 | 0.00 | 0.00 | 31 | 1005.8 |
| 20260505201235 | 27 | 167 | 4.8 | 35.4 | 0.00 | 0.00 | 0.00 | 31 | 1005.7 |
| 20260505201203 | 27 | 199 | 4.8 | 35.4 | 0.00 | 0.00 | 0.00 | 31 | 1005.8 |
| 20260505201158 | 27 | 180 | 3.2 | 35.4 | 0.00 | 0.00 | 0.00 | 30 | 1005.8 |
| 20260505201043 | 27 | 174 | 4.8 | 35.4 | 0.00 | 0.00 | 0.00 | 31 | 1005.8 |
| 20260505201020 | 27 | 207 | 0.0 | 33.8 | 0.00 | 0.00 | 0.00 | 31 | 1005.6 |
| 20260505200833 | 27 | 200 | 4.8 | 35.4 | 0.00 | 0.00 | 0.00 | 31 | 1005.8 |
| 20260505200733 | 27 | 184 | 4.8 | 35.4 | 0.00 | 0.00 | 0.00 | 30 | 1005.8 |
| 20260505200632 | 27 | 190 | 4.8 | 35.4 | 0.00 | 0.00 | 0.00 | 30 | 1005.8 |
| 20260505200545 | 27 | 188 | 4.8 | 30.6 | 0.00 | 0.00 | 0.00 | 30 | 1005.8 |
| 20260505200532 | 27 | 196 | 4.8 | 30.6 | 0.00 | 0.00 | 0.00 | 31 | 1005.8 |
| 20260505200520 | 27 | 209 | 0.0 | 25.7 | 0.00 | 0.00 | 0.00 | 31 | 1005.6 |
| 20260505200431 | 27 | 210 | 4.8 | 30.6 | 0.00 | 0.00 | 0.00 | 30 | 1005.8 |
| 20260505200349 | 27 | 194 | 4.8 | 30.6 | 0.00 | 0.00 | 0.00 | 31 | 1005.9 |
| 20260505200345 | 27 | 179 | 4.8 | 29.0 | 0.00 | 0.00 | 0.00 | 30 | 1005.9 |
| 20260505200340 | 27 | 186 | 4.8 | 30.6 | 0.00 | 0.00 | 0.00 | 30 | 1005.8 |
| 20260505200153 | 27 | 202 | 4.8 | 30.6 | 0.00 | 0.00 | 0.00 | 30 | 1005.8 |
| 20260505200030 | 27 | 164 | 4.8 | 29.0 | 0.00 | 0.00 | 0.00 | 30 | 1005.9 |
| 20260505200020 | 27 | 148 | 14.5 | 24.1 | 0.00 | 0.00 | 0.00 | 31 | 1005.7 |
| 20260505195928 | 27 | 218 | 4.8 | 25.7 | 0.00 | 0.00 | 0.00 | 30 | 1005.9 |
| 20260505195842 | 27 | 252 | 4.8 | 25.7 | 0.00 | 0.00 | 0.00 | 30 | 1005.9 |
| 20260505195837 | 27 | 191 | 4.8 | 25.7 | 0.00 | 0.00 | 0.00 | 30 | 1005.9 |
| 20260505195627 | 27 | 171 | 4.8 | 25.7 | 0.00 | 0.00 | 0.00 | 30 | 1005.9 |
| 20260505195544 | 27 | 208 | 4.8 | 25.7 | 0.00 | 0.00 | 0.00 | 31 | 1005.9 |
| 20260505195525 | 27 | 169 | 4.8 | 35.4 | 0.00 | 0.00 | 0.00 | 31 | 1005.9 |
| 20260505195520 | 27 | 259 | 0.0 | 35.4 | 0.00 | 0.00 | 0.00 | 30 | 1005.7 |
| 20260505195424 | 27 | 141 | 4.8 | 35.4 | 0.00 | 0.00 | 0.00 | 31 | 1005.9 |
| 20260505195325 | 27 | 163 | 4.8 | 35.4 | 0.00 | 0.00 | 0.00 | 31 | 1006.0 |
| 20260505195224 | 27 | 213 | 4.8 | 35.4 | 0.00 | 0.00 | 0.00 | 32 | 1006.0 |
| 20260505195123 | 27 | 238 | 4.8 | 35.4 | 0.00 | 0.00 | 0.00 | 30 | 1006.0 |
| 20260505195044 | 27 | 180 | 3.2 | 35.4 | 0.00 | 0.00 | 0.00 | 31 | 1006.0 |
| 20260505195030 | 27 | 196 | 3.2 | 35.4 | 0.00 | 0.00 | 0.00 | 31 | 1006.0 |
| 20260505195021 | 27 | 173 | 3.2 | 35.4 | 0.00 | 0.00 | 0.00 | 31 | 1006.1 |
| 20260505194910 | 27 | 187 | 4.8 | 30.6 | 0.00 | 0.00 | 0.00 | 30 | 1006.0 |
| 20260505194904 | 27 | 143 | 3.2 | 35.4 | 0.00 | 0.00 | 0.00 | 31 | 1006.0 |
| 20260505194750 | 27 | 179 | 3.2 | 35.4 | 0.00 | 0.00 | 0.00 | 30 | 1005.9 |
| 20260505194633 | 27 | 169 | 4.8 | 35.4 | 0.00 | 0.00 | 0.00 | 30 | 1006.0 |
| 20260505194550 | 27 | 218 | 1.6 | 30.6 | 0.00 | 0.00 | 0.00 | 30 | 1005.8 |
| 20260505194317 | 27 | 182 | 4.8 | 30.6 | 0.00 | 0.00 | 0.00 | 31 | 1005.9 |
| 20260505194215 | 27 | 202 | 4.8 | 30.6 | 0.00 | 0.00 | 0.00 | 31 | 1006.0 |
| 20260505194115 | 27 | 197 | 4.8 | 30.6 | 0.00 | 0.00 | 0.00 | 32 | 1006.0 |
| 20260505194044 | 27 | 213 | 4.8 | 30.6 | 0.00 | 0.00 | 0.00 | 31 | 1005.9 |
| 20260505194020 | 27 | 176 | 0.0 | 30.6 | 0.00 | 0.00 | 0.00 | 31 | 1005.8 |
| 20260505194015 | 27 | 176 | 4.8 | 30.6 | 0.00 | 0.00 | 0.00 | 31 | 1005.9 |
| 20260505193929 | 27 | 198 | 4.8 | 30.6 | 0.00 | 0.00 | 0.00 | 30 | 1006.0 |
| 20260505193924 | 27 | 232 | 4.8 | 30.6 | 0.00 | 0.00 | 0.00 | 31 | 1006.0 |
| 20260505193714 | 27 | 196 | 6.4 | 33.8 | 0.00 | 0.00 | 0.00 | 30 | 1006.0 |
| 20260505193633 | 27 | 209 | 3.2 | 33.8 | 0.00 | 0.00 | 0.00 | 30 | 1006.0 |
| 20260505193628 | 27 | 207 | 4.8 | 33.8 | 0.00 | 0.00 | 0.00 | 30 | 1006.1 |
| 20260505193620 | 27 | 178 | 3.2 | 33.8 | 0.00 | 0.00 | 0.00 | 30 | 1006.1 |
| 20260505193520 | 27 | 236 | 1.6 | 33.8 | 0.00 | 0.00 | 0.00 | 30 | 1005.8 |
| 20260505193413 | 27 | 180 | 3.2 | 38.6 | 0.00 | 0.00 | 0.00 | 30 | 1006.0 |
| 20260505193313 | 27 | 252 | 3.2 | 38.6 | 0.00 | 0.00 | 0.00 | 30 | 1006.1 |
| 20260505193212 | 27 | 212 | 3.2 | 38.6 | 0.00 | 0.00 | 0.00 | 31 | 1006.0 |
| 20260505193111 | 27 | 232 | 3.2 | 38.6 | 0.00 | 0.00 | 0.00 | 32 | 1006.1 |
| 20260505193041 | 27 | 216 | 3.2 | 38.6 | 0.00 | 0.00 | 0.00 | 32 | 1006.1 |
| 20260505193020 | 27 | 247 | 0.0 | 38.6 | 0.00 | 0.00 | 0.00 | 30 | 1005.8 |
| 20260505193010 | 27 | 240 | 4.8 | 38.6 | 0.00 | 0.00 | 0.00 | 30 | 1006.0 |
| 20260505192908 | 27 | 192 | 4.8 | 38.6 | 0.00 | 0.00 | 0.00 | 31 | 1006.1 |
| 20260505192809 | 27 | 222 | 4.8 | 38.6 | 0.00 | 0.00 | 0.00 | 30 | 1006.1 |
| 20260505192707 | 27 | 198 | 4.8 | 38.6 | 0.00 | 0.00 | 0.00 | 31 | 1006.1 |
| 20260505192636 | 27 | 205 | 6.4 | 38.6 | 0.00 | 0.00 | 0.00 | 31 | 1006.1 |
| 20260505192628 | 27 | 177 | 6.4 | 38.6 | 0.00 | 0.00 | 0.00 | 31 | 1006.1 |
| 20260505192520 | 27 | 232 | 1.6 | 38.6 | 0.00 | 0.00 | 0.00 | 31 | 1005.9 |
| 20260505192517 | 27 | 193 | 6.4 | 38.6 | 0.00 | 0.00 | 0.00 | 31 | 1006.1 |
| 20260505192325 | 27 | 180 | 6.4 | 33.8 | 0.00 | 0.00 | 0.00 | 31 | 1006.1 |
| 20260505192321 | 27 | 252 | 6.4 | 33.8 | 0.00 | 0.00 | 0.00 | 32 | 1006.2 |
| 20260505192316 | 27 | 192 | 6.4 | 33.8 | 0.00 | 0.00 | 0.00 | 32 | 1006.2 |
| 20260505192147 | 27 | 186 | 6.4 | 33.8 | 0.00 | 0.00 | 0.00 | 31 | 1006.1 |
| 20260505192020 | 27 | 211 | 0.0 | 30.6 | 0.00 | 0.00 | 0.00 | 31 | 1005.9 |
| 20260505192005 | 27 | 227 | 4.8 | 33.8 | 0.00 | 0.00 | 0.00 | 31 | 1006.1 |
| 20260505191906 | 27 | 223 | 4.8 | 29.0 | 0.00 | 0.00 | 0.00 | 31 | 1006.2 |
| 20260505191805 | 27 | 165 | 3.2 | 29.0 | 0.00 | 0.00 | 0.00 | 32 | 1006.1 |
| 20260505191717 | 27 | 215 | 3.2 | 33.8 | 0.00 | 0.00 | 0.00 | 31 | 1006.1 |
| 20260505191713 | 27 | 168 | 3.2 | 29.0 | 0.00 | 0.00 | 0.00 | 31 | 1006.1 |
| 20260505191538 | 28 | 157 | 3.2 | 33.8 | 0.00 | 0.00 | 0.00 | 31 | 1006.1 |
| 20260505191520 | 28 | 175 | 1.6 | 32.2 | 0.00 | 0.00 | 0.00 | 31 | 1006.0 |
| 20260505191516 | 28 | 182 | 3.2 | 33.8 | 0.00 | 0.00 | 0.00 | 32 | 1006.2 |
| 20260505191512 | 28 | 150 | 3.2 | 33.8 | 0.00 | 0.00 | 0.00 | 33 | 1006.2 |
| 20260505191301 | 28 | 240 | 3.2 | 33.8 | 0.00 | 0.00 | 0.00 | 33 | 1006.2 |
| 20260505191202 | 27 | 186 | 3.2 | 33.8 | 0.00 | 0.00 | 0.00 | 32 | 1006.2 |
| 20260505191101 | 27 | 240 | 3.2 | 33.8 | 0.00 | 0.00 | 0.00 | 32 | 1006.2 |
| 20260505191038 | 27 | 200 | 3.2 | 33.8 | 0.00 | 0.00 | 0.00 | 33 | 1006.2 |
| 20260505191020 | 27 | 172 | 3.2 | 32.2 | 0.00 | 0.00 | 0.00 | 33 | 1006.0 |
| 20260505191000 | 27 | 189 | 3.2 | 33.8 | 0.00 | 0.00 | 0.00 | 33 | 1006.2 |
| 20260505190859 | 27 | 234 | 4.8 | 33.8 | 0.00 | 0.00 | 0.00 | 33 | 1006.3 |
| 20260505190811 | 27 | 189 | 6.4 | 33.8 | 0.00 | 0.00 | 0.00 | 32 | 1006.2 |
| 20260505190807 | 27 | 209 | 4.8 | 33.8 | 0.00 | 0.00 | 0.00 | 32 | 1006.2 |
| 20260505190558 | 27 | 215 | 4.8 | 30.6 | 0.00 | 0.00 | 0.00 | 32 | 1006.2 |
| 20260505190538 | 27 | 199 | 4.8 | 30.6 | 0.00 | 0.00 | 0.00 | 32 | 1006.2 |
| 20260505190520 | 27 | 199 | 1.6 | 30.6 | 0.00 | 0.00 | 0.00 | 32 | 1006.1 |
| 20260505190457 | 27 | 169 | 4.8 | 30.6 | 0.00 | 0.00 | 0.00 | 32 | 1006.3 |
| 20260505190357 | 27 | 173 | 4.8 | 30.6 | 0.00 | 0.00 | 0.00 | 35 | 1006.2 |
| 20260505190256 | 27 | 255 | 4.8 | 30.6 | 0.00 | 0.00 | 0.00 | 33 | 1006.3 |
| 20260505190155 | 27 | 253 | 4.8 | 30.6 | 0.00 | 0.00 | 0.00 | 35 | 1006.3 |
| 20260505190055 | 27 | 215 | 4.8 | 30.6 | 0.00 | 0.00 | 0.00 | 33 | 1006.3 |
| 20260505190037 | 27 | 205 | 4.8 | 30.6 | 0.00 | 0.00 | 0.00 | 33 | 1006.3 |
| 20260505190020 | 27 | 178 | 0.0 | 30.6 | 0.00 | 0.00 | 0.00 | 33 | 1006.2 |
| 20260505185955 | 27 | 210 | 4.8 | 30.6 | 0.00 | 0.00 | 0.00 | 33 | 1006.4 |
| 20260505185855 | 28 | 204 | 3.2 | 30.6 | 0.00 | 0.00 | 0.00 | 33 | 1006.4 |
| 20260505185807 | 28 | 166 | 1.6 | 30.6 | 0.00 | 0.00 | 0.00 | 32 | 1006.4 |
| 20260505185803 | 28 | 173 | 3.2 | 30.6 | 0.00 | 0.00 | 0.00 | 32 | 1006.3 |
| 20260505185554 | 28 | 173 | 1.6 | 22.5 | 0.00 | 0.00 | 0.00 | 33 | 1006.5 |
| 20260505185535 | 28 | 193 | 0.0 | 22.5 | 0.00 | 0.00 | 0.00 | 34 | 1006.3 |
| 20260505185453 | 28 | 160 | 1.6 | 22.5 | 0.00 | 0.00 | 0.00 | 34 | 1006.5 |
| 20260505185352 | 28 | 220 | 1.6 | 22.5 | 0.00 | 0.00 | 0.00 | 35 | 1006.4 |
| 20260505185251 | 28 | 199 | 1.6 | 22.5 | 0.00 | 0.00 | 0.00 | 36 | 1006.4 |
| 20260505185151 | 28 | 234 | 1.6 | 22.5 | 0.00 | 0.00 | 0.00 | 36 | 1006.4 |
| 20260505185050 | 28 | 204 | 1.6 | 22.5 | 0.00 | 0.00 | 0.00 | 35 | 1006.4 |
| 20260505185035 | 28 | 194 | 1.6 | 22.5 | 0.00 | 0.00 | 0.00 | 35 | 1006.4 |
| 20260505185020 | 28 | 134 | 11.3 | 22.5 | 0.00 | 0.00 | 0.00 | 35 | 1006.2 |
| 20260505184950 | 28 | 212 | 1.6 | 22.5 | 0.00 | 0.00 | 0.00 | 35 | 1006.4 |
| 20260505184849 | 28 | 198 | 1.6 | 17.7 | 0.00 | 0.00 | 0.00 | 36 | 1006.4 |
| 20260505184801 | 28 | 173 | 1.6 | 19.3 | 0.00 | 0.00 | 0.00 | 35 | 1006.4 |
| 20260505184757 | 28 | 188 | 1.6 | 17.7 | 0.00 | 0.00 | 0.00 | 35 | 1006.4 |
| 20260505184601 | 28 | 196 | 1.6 | 19.3 | 0.00 | 0.00 | 0.00 | 36 | 1006.4 |
| 20260505184553 | 28 | 165 | 1.6 | 19.3 | 0.00 | 0.00 | 0.00 | 36 | 1006.4 |
| 20260505184550 | 28 | 203 | 0.0 | 19.3 | 0.00 | 0.00 | 0.00 | 35 | 1006.3 |
| 20260505184546 | 28 | 218 | 1.6 | 19.3 | 0.00 | 0.00 | 0.00 | 35 | 1006.5 |
| 20260505184434 | 28 | 153 | 1.6 | 19.3 | 0.00 | 0.00 | 0.00 | 34 | 1006.6 |
| 20260505184429 | 28 | 186 | 1.6 | 19.3 | 0.00 | 0.00 | 0.00 | 35 | 1006.5 |
| 20260505184316 | 28 | 175 | 1.6 | 19.3 | 0.00 | 0.00 | 0.00 | 35 | 1006.5 |
| 20260505184157 | 28 | 166 | 1.6 | 19.3 | 0.00 | 0.00 | 0.00 | 34 | 1006.6 |
| 20260505184021 | 28 | 223 | 0.0 | 19.3 | 0.00 | 0.00 | 0.00 | 34 | 1006.3 |
| 20260505183855 | 28 | 162 | 3.2 | 30.6 | 0.00 | 0.00 | 0.00 | 34 | 1006.7 |
| 20260505183851 | 28 | 186 | 1.6 | 19.3 | 0.00 | 0.00 | 0.00 | 34 | 1006.5 |
| 20260505183641 | 28 | 213 | 3.2 | 30.6 | 0.00 | 0.00 | 0.00 | 35 | 1006.6 |
| 20260505183542 | 27 | 209 | 3.2 | 30.6 | 0.00 | 0.00 | 0.00 | 34 | 1006.6 |
| 20260505183534 | 27 | 261 | 3.2 | 30.6 | 0.00 | 0.00 | 0.00 | 34 | 1006.6 |
| 20260505183521 | 27 | 195 | 0.0 | 20.9 | 0.00 | 0.00 | 0.00 | 34 | 1006.3 |
| 20260505183439 | 27 | 189 | 1.6 | 30.6 | 0.00 | 0.00 | 0.00 | 35 | 1006.5 |
| 20260505183339 | 27 | 175 | 1.6 | 30.6 | 0.00 | 0.00 | 0.00 | 34 | 1006.6 |
| 20260505183239 | 27 | 186 | 3.2 | 30.6 | 0.00 | 0.00 | 0.00 | 35 | 1006.5 |
| 20260505183138 | 27 | 173 | 3.2 | 30.6 | 0.00 | 0.00 | 0.00 | 35 | 1006.6 |
| 20260505183042 | 27 | 177 | 3.2 | 30.6 | 0.00 | 0.00 | 0.00 | 33 | 1006.7 |
| 20260505183037 | 27 | 192 | 3.2 | 30.6 | 0.00 | 0.00 | 0.00 | 33 | 1006.7 |
| 20260505183035 | 27 | 154 | 9.7 | 22.5 | 0.00 | 0.00 | 0.00 | 33 | 1006.5 |
| 20260505182936 | 27 | 200 | 3.2 | 30.6 | 0.00 | 0.00 | 0.00 | 34 | 1006.7 |
| 20260505182850 | 28 | 244 | 3.2 | 24.1 | 0.00 | 0.00 | 0.00 | 34 | 1006.6 |
| 20260505182846 | 27 | 130 | 3.2 | 30.6 | 0.00 | 0.00 | 0.00 | 33 | 1006.7 |
| 20260505182635 | 28 | 192 | 3.2 | 25.7 | 0.00 | 0.00 | 0.00 | 36 | 1006.8 |
| 20260505182536 | 28 | 205 | 3.2 | 25.7 | 0.00 | 0.00 | 0.00 | 36 | 1006.7 |
| 20260505182521 | 28 | 182 | 3.2 | 25.7 | 0.00 | 0.00 | 0.00 | 36 | 1006.5 |
| 20260505182434 | 28 | 174 | 3.2 | 25.7 | 0.00 | 0.00 | 0.00 | 34 | 1006.7 |
| 20260505182334 | 28 | 210 | 3.2 | 25.7 | 0.00 | 0.00 | 0.00 | 34 | 1006.5 |
| 20260505182233 | 28 | 186 | 3.2 | 25.7 | 0.00 | 0.00 | 0.00 | 36 | 1006.7 |
| 20260505182133 | 28 | 109 | 3.2 | 25.7 | 0.00 | 0.00 | 0.00 | 34 | 1006.7 |
| 20260505182037 | 28 | 203 | 3.2 | 25.7 | 0.00 | 0.00 | 0.00 | 33 | 1006.8 |
| 20260505182031 | 28 | 197 | 3.2 | 25.7 | 0.00 | 0.00 | 0.00 | 33 | 1006.8 |
| 20260505182020 | 28 | 155 | 4.8 | 25.7 | 0.00 | 0.00 | 0.00 | 33 | 1006.5 |
| 20260505181931 | 28 | 199 | 1.6 | 25.7 | 0.00 | 0.00 | 0.00 | 36 | 1006.7 |
| 20260505181829 | 28 | 186 | 1.6 | 25.7 | 0.00 | 0.00 | 0.00 | 34 | 1006.7 |
| 20260505181743 | 28 | 144 | 1.6 | 16.1 | 0.00 | 0.00 | 0.00 | 35 | 1006.8 |
| 20260505181739 | 28 | 210 | 1.6 | 20.9 | 0.00 | 0.00 | 0.00 | 35 | 1006.8 |
| 20260505181535 | 28 | 196 | 1.6 | 16.1 | 0.00 | 0.00 | 0.00 | 35 | 1006.7 |
| 20260505181529 | 28 | 188 | 1.6 | 16.1 | 0.00 | 0.00 | 0.00 | 35 | 1006.7 |
| 20260505181520 | 28 | 227 | 0.0 | 14.5 | 0.00 | 0.00 | 0.00 | 36 | 1006.6 |
| 20260505181428 | 28 | 165 | 1.6 | 16.1 | 0.00 | 0.00 | 0.00 | 35 | 1006.8 |
| 20260505181327 | 28 | 222 | 1.6 | 16.1 | 0.00 | 0.00 | 0.00 | 35 | 1006.8 |
| 20260505181227 | 28 | 205 | 1.6 | 16.1 | 0.00 | 0.00 | 0.00 | 37 | 1006.9 |
| 20260505181126 | 28 | 204 | 1.6 | 16.1 | 0.00 | 0.00 | 0.00 | 36 | 1006.9 |
| 20260505181034 | 28 | 269 | 1.6 | 22.5 | 0.00 | 0.00 | 0.00 | 37 | 1006.9 |
| 20260505181025 | 28 | 265 | 1.6 | 22.5 | 0.00 | 0.00 | 0.00 | 37 | 1006.9 |
| 20260505181020 | 28 | 273 | 0.0 | 22.5 | 0.00 | 0.00 | 0.00 | 37 | 1006.7 |
| 20260505180937 | 27 | 209 | 3.2 | 22.5 | 0.00 | 0.00 | 0.00 | 36 | 1006.9 |
| 20260505180933 | 28 | 189 | 1.6 | 22.5 | 0.00 | 0.00 | 0.00 | 37 | 1006.9 |
| 20260505180737 | 27 | 176 | 3.2 | 27.4 | 0.00 | 0.00 | 0.00 | 36 | 1006.9 |
| 20260505180733 | 27 | 208 | 3.2 | 27.4 | 0.00 | 0.00 | 0.00 | 35 | 1006.9 |
| 20260505180531 | 27 | 209 | 3.2 | 27.4 | 0.00 | 0.00 | 0.00 | 36 | 1007.0 |
| 20260505180523 | 27 | 194 | 3.2 | 27.4 | 0.00 | 0.00 | 0.00 | 36 | 1007.0 |
| 20260505180520 | 27 | 188 | 0.0 | 27.4 | 0.00 | 0.00 | 0.00 | 36 | 1006.8 |
| 20260505180423 | 27 | 214 | 3.2 | 27.4 | 0.00 | 0.00 | 0.00 | 35 | 1006.9 |
| 20260505180322 | 27 | 236 | 3.2 | 27.4 | 0.00 | 0.00 | 0.00 | 35 | 1006.9 |
| 20260505180222 | 27 | 194 | 3.2 | 27.4 | 0.00 | 0.00 | 0.00 | 34 | 1006.9 |
| 20260505180122 | 27 | 171 | 3.2 | 27.4 | 0.00 | 0.00 | 0.00 | 35 | 1006.9 |
| 20260505180028 | 28 | 171 | 3.2 | 27.4 | 0.00 | 0.00 | 0.00 | 34 | 1007.0 |
| 20260505180021 | 28 | 153 | 3.2 | 27.4 | 0.00 | 0.00 | 0.00 | 34 | 1007.0 |
| 20260505175920 | 28 | 211 | 3.2 | 27.4 | 0.00 | 0.00 | 0.00 | 35 | 1006.9 |
| 20260505175818 | 28 | 209 | 1.6 | 27.4 | 0.00 | 0.00 | 0.00 | 35 | 1007.0 |
| 20260505175718 | 28 | 173 | 1.6 | 22.5 | 0.00 | 0.00 | 0.00 | 35 | 1007.0 |
| 20260505175618 | 28 | 185 | 1.6 | 22.5 | 0.00 | 0.00 | 0.00 | 35 | 1007.0 |
| 20260505175528 | 28 | 180 | 0.0 | 9.7 | 0.00 | 0.00 | 0.00 | 36 | 1007.0 |
| 20260505175520 | 28 | 181 | 0.0 | 9.7 | 0.00 | 0.00 | 0.00 | 36 | 1006.8 |
| 20260505175517 | 28 | 212 | 0.0 | 9.7 | 0.00 | 0.00 | 0.00 | 36 | 1007.0 |
| 20260505175416 | 28 | 194 | 0.0 | 9.7 | 0.00 | 0.00 | 0.00 | 35 | 1007.0 |
| 20260505175316 | 28 | 209 | 0.0 | 17.7 | 0.00 | 0.00 | 0.00 | 36 | 1007.0 |
| 20260505175214 | 28 | 201 | 1.6 | 17.7 | 0.00 | 0.00 | 0.00 | 35 | 1007.0 |
| 20260505175114 | 28 | 229 | 1.6 | 17.7 | 0.00 | 0.00 | 0.00 | 35 | 1007.1 |
| 20260505175027 | 28 | 236 | 1.6 | 17.7 | 0.00 | 0.00 | 0.00 | 35 | 1007.1 |
| 20260505175020 | 28 | 233 | 0.0 | 12.9 | 0.00 | 0.00 | 0.00 | 35 | 1006.8 |
| 20260505175013 | 28 | 233 | 1.6 | 17.7 | 0.00 | 0.00 | 0.00 | 35 | 1007.0 |
| 20260505174913 | 28 | 151 | 1.6 | 17.7 | 0.00 | 0.00 | 0.00 | 35 | 1007.0 |
| 20260505174812 | 28 | 292 | 1.6 | 17.7 | 0.00 | 0.00 | 0.00 | 35 | 1007.0 |
| 20260505174711 | 28 | 190 | 1.6 | 17.7 | 0.00 | 0.00 | 0.00 | 35 | 1007.0 |
| 20260505174610 | 28 | 180 | 1.6 | 17.7 | 0.00 | 0.00 | 0.00 | 35 | 1007.0 |
| 20260505174528 | 28 | 188 | 1.6 | 24.1 | 0.00 | 0.00 | 0.00 | 34 | 1007.0 |
| 20260505174520 | 28 | 190 | 0.0 | 24.1 | 0.00 | 0.00 | 0.00 | 34 | 1006.8 |
| 20260505174510 | 28 | 190 | 1.6 | 24.1 | 0.00 | 0.00 | 0.00 | 34 | 1007.0 |
| 20260505174432 | 28 | 176 | 1.6 | 24.1 | 0.00 | 0.00 | 0.00 | 35 | 1007.1 |
| 20260505174319 | 28 | 208 | 1.6 | 24.1 | 0.00 | 0.00 | 0.00 | 34 | 1007.1 |
| 20260505174110 | 28 | 188 | 1.6 | 24.1 | 0.00 | 0.00 | 0.00 | 36 | 1007.0 |
| 20260505174025 | 28 | 220 | 1.6 | 24.1 | 0.00 | 0.00 | 0.00 | 36 | 1007.0 |
| 20260505174020 | 28 | 189 | 0.0 | 24.1 | 0.00 | 0.00 | 0.00 | 36 | 1006.8 |
| 20260505174008 | 28 | 315 | 1.6 | 24.1 | 0.00 | 0.00 | 0.00 | 36 | 1007.0 |
| 20260505173908 | 28 | 303 | 1.6 | 24.1 | 0.00 | 0.00 | 0.00 | 35 | 1007.1 |
| 20260505173808 | 28 | 236 | 1.6 | 24.1 | 0.00 | 0.00 | 0.00 | 35 | 1007.1 |
| 20260505173752 | 28 | 178 | 1.6 | 24.1 | 0.00 | 0.00 | 0.00 | 38 | 1007.0 |
| 20260505173747 | 28 | 208 | 1.6 | 16.1 | 0.00 | 0.00 | 0.00 | 37 | 1007.1 |
| 20260505173742 | 28 | 219 | 1.6 | 22.5 | 0.00 | 0.00 | 0.00 | 38 | 1007.1 |
| 20260505173737 | 28 | 235 | 1.6 | 24.1 | 0.00 | 0.00 | 0.00 | 34 | 1007.1 |
| 20260505173620 | 28 | 227 | 1.6 | 16.1 | 0.00 | 0.00 | 0.00 | 38 | 1007.0 |
| 20260505173520 | 28 | 206 | 0.0 | 16.1 | 0.00 | 0.00 | 0.00 | 38 | 1006.9 |
| 20260505173304 | 28 | 236 | 1.6 | 22.5 | 0.00 | 0.00 | 0.00 | 39 | 1007.2 |
| 20260505173213 | 27 | 300 | 1.6 | 22.5 | 0.00 | 0.00 | 0.00 | 40 | 1007.2 |
| 20260505173209 | 28 | 179 | 1.6 | 22.5 | 0.00 | 0.00 | 0.00 | 41 | 1007.2 |
| 20260505173026 | 27 | 214 | 1.6 | 24.1 | 0.00 | 0.00 | 0.00 | 37 | 1007.2 |
| 20260505173020 | 27 | 170 | 0.0 | 24.1 | 0.00 | 0.00 | 0.00 | 37 | 1007.0 |
| 20260505172959 | 27 | 265 | 1.6 | 24.1 | 0.00 | 0.00 | 0.00 | 37 | 1007.2 |
| 20260505172859 | 28 | 209 | 1.6 | 24.1 | 0.00 | 0.00 | 0.00 | 37 | 1007.2 |
| 20260505172758 | 28 | 182 | 1.6 | 24.1 | 0.00 | 0.00 | 0.00 | 36 | 1007.2 |
| 20260505172657 | 28 | 207 | 1.6 | 24.1 | 0.00 | 0.00 | 0.00 | 36 | 1007.2 |
| 20260505172557 | 28 | 187 | 1.6 | 24.1 | 0.00 | 0.00 | 0.00 | 37 | 1007.2 |
| 20260505172525 | 28 | 169 | 1.6 | 24.1 | 0.00 | 0.00 | 0.00 | 37 | 1007.2 |
| 20260505172520 | 28 | 182 | 1.6 | 24.1 | 0.00 | 0.00 | 0.00 | 37 | 1007.1 |
| 20260505172456 | 28 | 193 | 1.6 | 24.1 | 0.00 | 0.00 | 0.00 | 37 | 1007.3 |
| 20260505172356 | 28 | 227 | 1.6 | 24.1 | 0.00 | 0.00 | 0.00 | 40 | 1007.2 |
| 20260505172308 | 28 | 213 | 1.6 | 24.1 | 0.00 | 0.00 | 0.00 | 38 | 1007.2 |
| 20260505172305 | 28 | 278 | 1.6 | 24.1 | 0.00 | 0.00 | 0.00 | 39 | 1007.1 |
| 20260505172113 | 28 | 186 | 1.6 | 17.7 | 0.00 | 0.00 | 0.00 | 37 | 1007.2 |
| 20260505172108 | 28 | 183 | 1.6 | 24.1 | 0.00 | 0.00 | 0.00 | 37 | 1007.2 |
| 20260505172100 | 28 | 165 | 1.6 | 17.7 | 0.00 | 0.00 | 0.00 | 37 | 1007.2 |
| 20260505172020 | 28 | 184 | 0.0 | 17.7 | 0.00 | 0.00 | 0.00 | 37 | 1007.0 |
| 20260505171853 | 28 | 194 | 1.6 | 17.7 | 0.00 | 0.00 | 0.00 | 36 | 1007.2 |
| 20260505171752 | 28 | 259 | 1.6 | 17.7 | 0.00 | 0.00 | 0.00 | 37 | 1007.0 |
| 20260505171705 | 28 | 199 | 1.6 | 12.9 | 0.00 | 0.00 | 0.00 | 39 | 1007.2 |
| 20260505171700 | 28 | 202 | 1.6 | 12.9 | 0.00 | 0.00 | 0.00 | 41 | 1007.2 |
| 20260505171550 | 28 | 163 | 0.0 | 11.3 | 0.00 | 0.00 | 0.00 | 38 | 1007.0 |
| 20260505171525 | 28 | 212 | 1.6 | 12.9 | 0.00 | 0.00 | 0.00 | 38 | 1007.2 |
| 20260505171447 | 28 | 186 | 1.6 | 12.9 | 0.00 | 0.00 | 0.00 | 38 | 1007.2 |
| 20260505171346 | 28 | 213 | 1.6 | 11.3 | 0.00 | 0.00 | 0.00 | 39 | 1007.2 |
| 20260505171246 | 28 | 236 | 1.6 | 11.3 | 0.00 | 0.00 | 0.00 | 37 | 1007.2 |
| 20260505171145 | 28 | 153 | 1.6 | 11.3 | 0.00 | 0.00 | 0.00 | 37 | 1007.3 |
| 20260505171044 | 28 | 156 | 1.6 | 11.3 | 0.00 | 0.00 | 0.00 | 36 | 1007.2 |
| 20260505171026 | 28 | 173 | 1.6 | 11.3 | 0.00 | 0.00 | 0.00 | 38 | 1007.2 |
| 20260505171020 | 28 | 198 | 3.2 | 11.3 | 0.00 | 0.00 | 0.00 | 38 | 1006.9 |
| 20260505170944 | 28 | 194 | 0.0 | 11.3 | 0.00 | 0.00 | 0.00 | 38 | 1007.1 |
| 20260505170909 | 28 | 226 | 0.0 | 9.7 | 0.00 | 0.00 | 0.00 | 38 | 1007.2 |
| 20260505170905 | 28 | 231 | 0.0 | 9.7 | 0.00 | 0.00 | 0.00 | 37 | 1007.2 |
| 20260505170900 | 28 | 178 | 0.0 | 9.7 | 0.00 | 0.00 | 0.00 | 40 | 1007.3 |
| 20260505170541 | 28 | 196 | 0.0 | 9.7 | 0.00 | 0.00 | 0.00 | 38 | 1007.2 |
| 20260505170526 | 28 | 259 | 0.0 | 9.7 | 0.00 | 0.00 | 0.00 | 38 | 1007.2 |
| 20260505170520 | 28 | 213 | 0.0 | 9.7 | 0.00 | 0.00 | 0.00 | 38 | 1007.1 |
| 20260505170441 | 28 | 186 | 0.0 | 9.7 | 0.00 | 0.00 | 0.00 | 38 | 1007.3 |
| 20260505170353 | 28 | 221 | 0.0 | 9.7 | 0.00 | 0.00 | 0.00 | 37 | 1007.3 |
| 20260505170349 | 28 | 215 | 0.0 | 9.7 | 0.00 | 0.00 | 0.00 | 36 | 1007.2 |
| 20260505170141 | 28 | 205 | 0.0 | 9.7 | 0.00 | 0.00 | 0.00 | 37 | 1007.2 |
| 20260505170040 | 28 | 180 | 0.0 | 9.7 | 0.00 | 0.00 | 0.00 | 36 | 1007.2 |
| 20260505170025 | 28 | 178 | 0.0 | 9.7 | 0.00 | 0.00 | 0.00 | 36 | 1007.2 |
| 20260505170020 | 28 | 171 | 0.0 | 9.7 | 0.00 | 0.00 | 0.00 | 36 | 1007.0 |
| 20260505165941 | 28 | 169 | 0.0 | 9.7 | 0.00 | 0.00 | 0.00 | 36 | 1007.2 |
| 20260505165839 | 28 | 167 | 0.0 | 9.7 | 0.00 | 0.00 | 0.00 | 36 | 1007.3 |
| 20260505165738 | 28 | 192 | 0.0 | 9.7 | 0.00 | 0.00 | 0.00 | 35 | 1007.2 |
| 20260505165651 | 28 | 253 | 0.0 | 9.7 | 0.00 | 0.00 | 0.00 | 38 | 1007.3 |
| 20260505165646 | 28 | 221 | 0.0 | 9.7 | 0.00 | 0.00 | 0.00 | 36 | 1007.2 |
| 20260505165535 | 28 | 227 | 0.0 | 9.7 | 0.00 | 0.00 | 0.00 | 38 | 1007.1 |
| 20260505165525 | 28 | 212 | 0.0 | 9.7 | 0.00 | 0.00 | 0.00 | 38 | 1007.3 |
| 20260505165437 | 28 | 231 | 0.0 | 9.7 | 0.00 | 0.00 | 0.00 | 36 | 1007.3 |
| 20260505165336 | 28 | 159 | 0.0 | 9.7 | 0.00 | 0.00 | 0.00 | 39 | 1007.3 |
| 20260505165236 | 28 | 243 | 0.0 | 9.7 | 0.00 | 0.00 | 0.00 | 37 | 1007.3 |
| 20260505165135 | 28 | 184 | 0.0 | 9.7 | 0.00 | 0.00 | 0.00 | 36 | 1007.4 |
| 20260505165054 | 28 | 195 | 0.0 | 8.0 | 0.00 | 0.00 | 0.00 | 38 | 1007.3 |
| 20260505165048 | 28 | 183 | 0.0 | 8.0 | 0.00 | 0.00 | 0.00 | 35 | 1007.4 |
| 20260505165041 | 28 | 143 | 0.0 | 8.0 | 0.00 | 0.00 | 0.00 | 35 | 1007.4 |
| 20260505165020 | 28 | 176 | 1.6 | 6.4 | 0.00 | 0.00 | 0.00 | 35 | 1007.1 |
| 20260505164833 | 28 | 203 | 0.0 | 8.0 | 0.00 | 0.00 | 0.00 | 37 | 1007.4 |
| 20260505164756 | 28 | 188 | 0.0 | 8.0 | 0.00 | 0.00 | 0.00 | 35 | 1007.4 |
| 20260505164750 | 28 | 192 | 0.0 | 8.0 | 0.00 | 0.00 | 0.00 | 37 | 1007.3 |
| 20260505164741 | 28 | 224 | 0.0 | 8.0 | 0.00 | 0.00 | 0.00 | 38 | 1007.3 |
| 20260505164520 | 28 | 186 | 0.0 | 6.4 | 0.00 | 0.00 | 0.00 | 35 | 1007.2 |
| 20260505164432 | 28 | 177 | 0.0 | 8.0 | 0.00 | 0.00 | 0.00 | 37 | 1007.4 |
| 20260505164331 | 28 | 242 | 0.0 | 1.6 | 0.00 | 0.00 | 0.00 | 36 | 1007.4 |
| 20260505164231 | 28 | 246 | 0.0 | 1.6 | 0.00 | 0.00 | 0.00 | 36 | 1007.4 |
| 20260505164129 | 28 | 231 | 0.0 | 1.6 | 0.00 | 0.00 | 0.00 | 36 | 1007.4 |
| 20260505164032 | 28 | 280 | 0.0 | 1.6 | 0.00 | 0.00 | 0.00 | 36 | 1007.5 |
| 20260505164025 | 28 | 251 | 0.0 | 1.6 | 0.00 | 0.00 | 0.00 | 36 | 1007.5 |
| 20260505164020 | 28 | 238 | 0.0 | 1.6 | 0.00 | 0.00 | 0.00 | 36 | 1007.2 |
| 20260505163928 | 28 | 233 | 0.0 | 1.6 | 0.00 | 0.00 | 0.00 | 37 | 1007.4 |
| 20260505163827 | 28 | 213 | 0.0 | 3.2 | 0.00 | 0.00 | 0.00 | 37 | 1007.4 |
| 20260505163728 | 28 | 210 | 0.0 | 11.3 | 0.00 | 0.00 | 0.00 | 38 | 1007.4 |
| 20260505163627 | 28 | 198 | 0.0 | 11.3 | 0.00 | 0.00 | 0.00 | 37 | 1007.4 |
| 20260505163528 | 28 | 217 | 0.0 | 11.3 | 0.00 | 0.00 | 0.00 | 37 | 1007.4 |
| 20260505163520 | 28 | 167 | 0.0 | 11.3 | 0.00 | 0.00 | 0.00 | 37 | 1007.2 |
| 20260505163426 | 28 | 199 | 0.0 | 11.3 | 0.00 | 0.00 | 0.00 | 38 | 1007.4 |
| 20260505163325 | 28 | 193 | 0.0 | 11.3 | 0.00 | 0.00 | 0.00 | 38 | 1007.5 |
| 20260505163224 | 28 | 233 | 0.0 | 11.3 | 0.00 | 0.00 | 0.00 | 37 | 1007.4 |
| 20260505163144 | 28 | 192 | 0.0 | 12.9 | 0.00 | 0.00 | 0.00 | 40 | 1007.5 |
| 20260505163138 | 28 | 229 | 0.0 | 12.9 | 0.00 | 0.00 | 0.00 | 39 | 1007.4 |
| 20260505163129 | 28 | 202 | 0.0 | 12.9 | 0.00 | 0.00 | 0.00 | 40 | 1007.5 |
| 20260505163020 | 28 | 204 | 0.0 | 12.9 | 0.00 | 0.00 | 0.00 | 38 | 1007.3 |
| 20260505162923 | 28 | 219 | 0.0 | 12.9 | 0.00 | 0.00 | 0.00 | 37 | 1007.5 |
| 20260505162822 | 27 | 279 | 0.0 | 12.9 | 0.00 | 0.00 | 0.00 | 38 | 1007.5 |
| 20260505162750 | 27 | 163 | 0.0 | 24.1 | 0.00 | 0.00 | 0.00 | 37 | 1007.4 |
| 20260505162722 | 27 | 213 | 0.0 | 12.9 | 0.00 | 0.00 | 0.00 | 37 | 1007.4 |
| 20260505162635 | 27 | 219 | 0.0 | 24.1 | 0.00 | 0.00 | 0.00 | 37 | 1007.4 |
| 20260505162550 | 27 | 162 | 0.0 | 20.9 | 0.00 | 0.00 | 0.00 | 37 | 1007.3 |
| 20260505162520 | 27 | 163 | 0.0 | 24.1 | 0.00 | 0.00 | 0.00 | 37 | 1007.4 |
| 20260505162420 | 27 | 248 | 0.0 | 24.1 | 0.00 | 0.00 | 0.00 | 38 | 1007.4 |
| 20260505162319 | 27 | 178 | 1.6 | 24.1 | 0.00 | 0.00 | 0.00 | 37 | 1007.4 |
| 20260505162218 | 27 | 197 | 0.0 | 24.1 | 0.00 | 0.00 | 0.00 | 39 | 1007.4 |
| 20260505162133 | 27 | 201 | 0.0 | 24.1 | 0.00 | 0.00 | 0.00 | 37 | 1007.4 |
| 20260505162125 | 27 | 180 | 0.0 | 24.1 | 0.00 | 0.00 | 0.00 | 38 | 1007.4 |
| 20260505162118 | 27 | 208 | 0.0 | 24.1 | 0.00 | 0.00 | 0.00 | 38 | 1007.4 |
| 20260505162020 | 27 | 196 | 0.0 | 20.9 | 0.00 | 0.00 | 0.00 | 38 | 1007.3 |
| 20260505162005 | 27 | 217 | 0.0 | 24.1 | 0.00 | 0.00 | 0.00 | 38 | 1007.4 |
| 20260505161717 | 27 | 185 | 0.0 | 24.1 | 0.00 | 0.00 | 0.00 | 38 | 1007.4 |
| 20260505161632 | 27 | 285 | 0.0 | 6.4 | 0.00 | 0.00 | 0.00 | 37 | 1007.3 |
| 20260505161520 | 27 | 213 | 0.0 | 8.0 | 0.00 | 0.00 | 0.00 | 37 | 1007.3 |
| 20260505161516 | 27 | 205 | 0.0 | 6.4 | 0.00 | 0.00 | 0.00 | 37 | 1007.4 |
| 20260505161416 | 27 | 194 | 0.0 | 8.0 | 0.00 | 0.00 | 0.00 | 38 | 1007.4 |
| 20260505161315 | 27 | 190 | 0.0 | 8.0 | 0.00 | 0.00 | 0.00 | 38 | 1007.5 |
| 20260505161215 | 27 | 202 | 0.0 | 8.0 | 0.00 | 0.00 | 0.00 | 39 | 1007.3 |
| 20260505161113 | 27 | 216 | 0.0 | 8.0 | 0.00 | 0.00 | 0.00 | 36 | 1007.3 |
| 20260505161024 | 27 | 247 | 0.0 | 8.0 | 0.00 | 0.00 | 0.00 | 38 | 1007.3 |
| 20260505161020 | 27 | 234 | 0.0 | 8.0 | 0.00 | 0.00 | 0.00 | 38 | 1007.2 |
| 20260505161013 | 27 | 234 | 0.0 | 8.0 | 0.00 | 0.00 | 0.00 | 38 | 1007.3 |
| 20260505160912 | 27 | 178 | 0.0 | 8.0 | 0.00 | 0.00 | 0.00 | 39 | 1007.4 |
| 20260505160811 | 27 | 178 | 0.0 | 12.9 | 0.00 | 0.00 | 0.00 | 39 | 1007.4 |
| 20260505160751 | 27 | 209 | 0.0 | 12.9 | 0.00 | 0.00 | 0.00 | 38 | 1007.5 |
| 20260505160747 | 27 | 240 | 0.0 | 12.9 | 0.00 | 0.00 | 0.00 | 38 | 1007.5 |
| 20260505160741 | 27 | 127 | 0.0 | 12.9 | 0.00 | 0.00 | 0.00 | 36 | 1007.5 |
| 20260505160520 | 27 | 157 | 8.0 | 9.7 | 0.00 | 0.00 | 0.00 | 38 | 1007.4 |
| 20260505160509 | 27 | 201 | 0.0 | 12.9 | 0.00 | 0.00 | 0.00 | 38 | 1007.5 |
| 20260505160409 | 27 | 192 | 0.0 | 12.9 | 0.00 | 0.00 | 0.00 | 38 | 1007.4 |
| 20260505160312 | 27 | 204 | 0.0 | 12.9 | 0.00 | 0.00 | 0.00 | 36 | 1007.4 |
| 20260505160306 | 27 | 224 | 0.0 | 12.9 | 0.00 | 0.00 | 0.00 | 38 | 1007.5 |
| 20260505160300 | 27 | 205 | 0.0 | 12.9 | 0.00 | 0.00 | 0.00 | 36 | 1007.4 |
| 20260505160256 | 27 | 233 | 0.0 | 12.9 | 0.00 | 0.00 | 0.00 | 37 | 1007.5 |
| 20260505160251 | 27 | 244 | 0.0 | 14.5 | 0.00 | 0.00 | 0.00 | 38 | 1007.6 |
| 20260505160245 | 27 | 153 | 0.0 | 12.9 | 0.00 | 0.00 | 0.00 | 38 | 1007.5 |
| 20260505153349 | 27 | 249 | 0.0 | 3.2 | 0.00 | 0.00 | 0.00 | 38 | 1003.8 |
| 20260505153304 | 27 | 239 | 0.0 | 8.0 | 0.00 | 0.00 | 0.00 | 39 | 1003.7 |
| 20260505153258 | 27 | 177 | 0.0 | 3.2 | 0.00 | 0.00 | 0.00 | 40 | 1003.7 |
| 20260505153048 | 27 | 195 | 0.0 | 8.0 | 0.00 | 0.00 | 0.00 | 38 | 1003.7 |
| 20260505153021 | 27 | 193 | 0.0 | 8.0 | 0.00 | 0.00 | 0.00 | 37 | 1003.7 |
| 20260505152949 | 27 | 225 | 0.0 | 8.0 | 0.00 | 0.00 | 0.00 | 37 | 1003.7 |
| 20260505152848 | 27 | 215 | 0.0 | 8.0 | 0.00 | 0.00 | 0.00 | 38 | 1003.7 |
| 20260505152750 | 27 | 190 | 0.0 | 8.0 | 0.00 | 0.00 | 0.00 | 38 | 1003.6 |
| 20260505152649 | 27 | 194 | 0.0 | 8.0 | 0.00 | 0.00 | 0.00 | 38 | 1003.7 |
| 20260505152550 | 27 | 232 | 0.0 | 8.0 | 0.00 | 0.00 | 0.00 | 37 | 1003.4 |
| 20260505152519 | 27 | 229 | 0.0 | 8.0 | 0.00 | 0.00 | 0.00 | 37 | 1003.6 |
| 20260505152500 | 27 | 216 | 0.0 | 8.0 | 0.00 | 0.00 | 0.00 | 37 | 1003.5 |
| 20260505152456 | 27 | 183 | 0.0 | 8.0 | 0.00 | 0.00 | 0.00 | 37 | 1003.5 |
| 20260505152247 | 27 | 186 | 0.0 | 8.0 | 0.00 | 0.00 | 0.00 | 38 | 1003.5 |
| 20260505152147 | 27 | 194 | 0.0 | 3.2 | 0.00 | 0.00 | 0.00 | 38 | 1003.4 |
| 20260505152046 | 27 | 195 | 0.0 | 6.4 | 0.00 | 0.00 | 0.00 | 40 | 1003.4 |
| 20260505152020 | 27 | 254 | 0.0 | 6.4 | 0.00 | 0.00 | 0.00 | 40 | 1003.4 |
| 20260505151959 | 27 | 254 | 0.0 | 6.4 | 0.00 | 0.00 | 0.00 | 40 | 1003.4 |
| 20260505151954 | 27 | 247 | 0.0 | 6.4 | 0.00 | 0.00 | 0.00 | 40 | 1003.5 |
| 20260505151745 | 27 | 247 | 0.0 | 6.4 | 0.00 | 0.00 | 0.00 | 40 | 1003.4 |
| 20260505151655 | 27 | 222 | 0.0 | 6.4 | 0.00 | 0.00 | 0.00 | 39 | 1003.4 |
| 20260505151651 | 27 | 182 | 0.0 | 6.4 | 0.00 | 0.00 | 0.00 | 38 | 1003.3 |
| 20260505151520 | 27 | 246 | 0.0 | 6.4 | 0.00 | 0.00 | 0.00 | 39 | 1003.3 |
| 20260505151518 | 27 | 244 | 0.0 | 6.4 | 0.00 | 0.00 | 0.00 | 39 | 1003.4 |
| 20260505151441 | 27 | 208 | 0.0 | 6.4 | 0.00 | 0.00 | 0.00 | 39 | 1003.4 |
| 20260505151401 | 27 | 242 | 0.0 | 6.4 | 0.00 | 0.00 | 0.00 | 38 | 1003.2 |
| 20260505151248 | 27 | 202 | 0.0 | 6.4 | 0.00 | 0.00 | 0.00 | 38 | 1003.2 |
| 20260505151038 | 27 | 190 | 0.0 | 6.4 | 0.00 | 0.00 | 0.00 | 37 | 1003.3 |
| 20260505151020 | 27 | 215 | 0.0 | 6.4 | 0.00 | 0.00 | 0.00 | 37 | 1003.0 |
| 20260505151018 | 27 | 245 | 0.0 | 6.4 | 0.00 | 0.00 | 0.00 | 37 | 1003.3 |
| 20260505150938 | 27 | 235 | 0.0 | 4.8 | 0.00 | 0.00 | 0.00 | 37 | 1003.1 |
| 20260505150837 | 27 | 194 | 0.0 | 4.8 | 0.00 | 0.00 | 0.00 | 36 | 1003.1 |
| 20260505150736 | 27 | 238 | 0.0 | 4.8 | 0.00 | 0.00 | 0.00 | 37 | 1003.1 |
| 20260505150635 | 27 | 220 | 0.0 | 4.8 | 0.00 | 0.00 | 0.00 | 37 | 1003.1 |
| 20260505150535 | 27 | 258 | 0.0 | 1.6 | 0.00 | 0.00 | 0.00 | 37 | 1003.1 |
| 20260505150520 | 27 | 201 | 0.0 | 0.0 | 0.00 | 0.00 | 0.00 | 37 | 1003.0 |
| 20260505150517 | 27 | 227 | 0.0 | 1.6 | 0.00 | 0.00 | 0.00 | 37 | 1003.1 |
| 20260505150434 | 27 | 213 | 0.0 | 0.0 | 0.00 | 0.00 | 0.00 | 38 | 1003.1 |
| 20260505150332 | 27 | 242 | 0.0 | 0.0 | 0.00 | 0.00 | 0.00 | 38 | 1003.1 |
| 20260505150231 | 27 | 248 | 0.0 | 0.0 | 0.00 | 0.00 | 0.00 | 37 | 1003.2 |
| 20260505150144 | 27 | 240 | 0.0 | 0.0 | 0.00 | 0.00 | 0.00 | 39 | 1003.3 |
| 20260505150140 | 27 | 229 | 0.0 | 0.0 | 0.00 | 0.00 | 0.00 | 39 | 1003.3 |
| 20260505140520 | 24 | 290 | 0.0 | 4.8 | 0.00 | 0.00 | 0.00 | 46 | 1004.2 |
| 20260505140456 | 24 | 296 | 0.0 | 4.8 | 0.00 | 0.00 | 0.00 | 45 | 1004.2 |
| 20260505140356 | 24 | 242 | 0.0 | 4.8 | 0.00 | 0.00 | 0.00 | 45 | 1004.2 |
| 20260505140253 | 24 | 194 | 0.0 | 3.2 | 0.00 | 0.00 | 0.00 | 46 | 1004.2 |
| 20260505140206 | 24 | 219 | 0.0 | 1.6 | 0.00 | 0.00 | 0.00 | 46 | 1004.3 |
| 20260505140201 | 24 | 197 | 0.0 | 3.2 | 0.00 | 0.00 | 0.00 | 47 | 1004.2 |
| 20260505130118 | 21 | 246 | 0.0 | 4.8 | 0.00 | 0.00 | 0.00 | 52 | 1006.0 |
| 20260505125019 | 21 | 228 | 0.0 | 9.7 | 0.00 | 0.00 | 0.00 | 52 | 1007.6 |
| 20260505124825 | 21 | 251 | 0.0 | 8.0 | 0.00 | 0.00 | 0.00 | 53 | 1006.8 |
| 20260505124819 | 21 | 247 | 0.0 | 6.4 | 0.00 | 0.00 | 0.00 | 53 | 1007.3 |
| 20260505124609 | 21 | 226 | 0.0 | 8.0 | 0.00 | 0.00 | 0.00 | 55 | 1006.7 |
| 20260505124519 | 20 | 262 | 0.0 | 6.4 | 0.00 | 0.00 | 0.00 | 56 | 1006.7 |
| 20260505124508 | 20 | 262 | 0.0 | 8.0 | 0.00 | 0.00 | 0.00 | 56 | 1006.8 |
| 20260505124459 | 20 | 251 | 0.0 | 8.0 | 0.00 | 0.00 | 0.00 | 56 | 1006.8 |
| 20260505124407 | 20 | 221 | 0.0 | 8.0 | 0.00 | 0.00 | 0.00 | 56 | 1006.4 |
| 20260505124358 | 20 | 245 | 0.0 | 8.0 | 0.00 | 0.00 | 0.00 | 56 | 1006.3 |
| 20260505124247 | 20 | 229 | 0.0 | 8.0 | 0.00 | 0.00 | 0.00 | 55 | 1006.6 |
| 20260505124243 | 20 | 202 | 0.0 | 8.0 | 0.00 | 0.00 | 0.00 | 54 | 1006.6 |
| 20260505124236 | 20 | 245 | 0.0 | 8.0 | 0.00 | 0.00 | 0.00 | 55 | 1006.4 |
| 20260505124118 | 20 | 252 | 0.0 | 8.0 | 0.00 | 0.00 | 0.00 | 55 | 1006.9 |
| 20260505124021 | 20 | 252 | 0.0 | 6.4 | 0.00 | 0.00 | 0.00 | 55 | 1006.8 |
| 20260505123802 | 20 | 243 | 0.0 | 8.0 | 0.00 | 0.00 | 0.00 | 54 | 1006.6 |
| 20260505123702 | 20 | 227 | 0.0 | 3.2 | 0.00 | 0.00 | 0.00 | 56 | 1006.6 |
| 20260505123606 | 20 | 265 | 0.0 | 3.2 | 0.00 | 0.00 | 0.00 | 56 | 1006.6 |
| 20260505123600 | 20 | 219 | 0.0 | 3.2 | 0.00 | 0.00 | 0.00 | 56 | 1006.5 |
| 20260505123501 | 20 | 226 | 0.0 | 3.2 | 0.00 | 0.00 | 0.00 | 56 | 1006.6 |
| 20260505123359 | 20 | 250 | 0.0 | 3.2 | 0.00 | 0.00 | 0.00 | 56 | 1006.7 |
| 20260505123259 | 20 | 202 | 0.0 | 3.2 | 0.00 | 0.00 | 0.00 | 57 | 1006.7 |
| 20260505123157 | 20 | 233 | 0.0 | 3.2 | 0.00 | 0.00 | 0.00 | 56 | 1006.8 |
| 20260505123057 | 20 | 206 | 0.0 | 3.2 | 0.00 | 0.00 | 0.00 | 55 | 1006.9 |
| 20260505123050 | 20 | 209 | 0.0 | 3.2 | 0.00 | 0.00 | 0.00 | 56 | 1007.6 |
| 20260505123003 | 20 | 205 | 0.0 | 3.2 | 0.00 | 0.00 | 0.00 | 56 | 1007.6 |
| 20260505122957 | 20 | 204 | 0.0 | 3.2 | 0.00 | 0.00 | 0.00 | 56 | 1007.6 |
| 20260505122857 | 20 | 240 | 0.0 | 1.6 | 0.00 | 0.00 | 0.00 | 56 | 1007.6 |
| 20260505122755 | 20 | 205 | 0.0 | 1.6 | 0.00 | 0.00 | 0.00 | 56 | 1007.1 |
| 20260505122655 | 20 | 223 | 0.0 | 1.6 | 0.00 | 0.00 | 0.00 | 57 | 1007.7 |
| 20260505122555 | 19 | 263 | 0.0 | 1.6 | 0.00 | 0.00 | 0.00 | 58 | 1007.0 |
| 20260505122519 | 19 | 242 | 0.0 | 0.0 | 0.00 | 0.00 | 0.00 | 58 | 1007.0 |
| 20260505122454 | 19 | 242 | 0.0 | 6.4 | 0.00 | 0.00 | 0.00 | 58 | 1007.0 |
| 20260505122353 | 19 | 230 | 0.0 | 6.4 | 0.00 | 0.00 | 0.00 | 57 | 1007.0 |
| 20260505122315 | 19 | 194 | 0.0 | 6.4 | 0.00 | 0.00 | 0.00 | 58 | 1007.1 |
| 20260505122202 | 19 | 198 | 0.0 | 6.4 | 0.00 | 0.00 | 0.00 | 57 | 1007.2 |
| 20260505122026 | 19 | 198 | 0.0 | 6.4 | 0.00 | 0.00 | 0.00 | 57 | 1007.3 |
| 20260505122019 | 19 | 197 | 0.0 | 3.2 | 0.00 | 0.00 | 0.00 | 57 | 1007.3 |
| 20260505121914 | 19 | 213 | 0.0 | 6.4 | 0.00 | 0.00 | 0.00 | 57 | 1007.3 |
| 20260505121908 | 19 | 197 | 0.0 | 6.4 | 0.00 | 0.00 | 0.00 | 57 | 1007.3 |
| 20260505121551 | 19 | 240 | 0.0 | 6.4 | 0.00 | 0.00 | 0.00 | 57 | 1007.4 |
| 20260505121520 | 19 | 188 | 0.0 | 6.4 | 0.00 | 0.00 | 0.00 | 58 | 1007.6 |
| 20260505121453 | 19 | 214 | 0.0 | 6.4 | 0.00 | 0.00 | 0.00 | 58 | 1007.6 |
| 20260505121448 | 19 | 231 | 0.0 | 6.4 | 0.00 | 0.00 | 0.00 | 58 | 1007.6 |
| 20260505121349 | 19 | 257 | 0.0 | 6.4 | 0.00 | 0.00 | 0.00 | 59 | 1007.5 |
| 20260505121248 | 18 | 222 | 0.0 | 6.4 | 0.00 | 0.00 | 0.00 | 58 | 1007.7 |
| 20260505121221 | 18 | 211 | 0.0 | 6.4 | 0.00 | 0.00 | 0.00 | 59 | 1008.1 |
| 20260505121217 | 18 | 198 | 0.0 | 6.4 | 0.00 | 0.00 | 0.00 | 58 | 1008.1 |
| 20260505121211 | 18 | 200 | 0.0 | 6.4 | 0.00 | 0.00 | 0.00 | 59 | 1008.1 |
| 20260505121054 | 18 | 196 | 0.0 | 6.4 | 0.00 | 0.00 | 0.00 | 58 | 1008.1 |
| 20260505121020 | 18 | 168 | 0.0 | 6.4 | 0.00 | 0.00 | 0.00 | 58 | 1008.1 |
| 20260505120900 | 18 | 205 | 0.0 | 6.4 | 0.00 | 0.00 | 0.00 | 58 | 1008.2 |
| 20260505120854 | 18 | 205 | 0.0 | 6.4 | 0.00 | 0.00 | 0.00 | 57 | 1008.1 |
| 20260505120713 | 18 | 222 | 0.0 | 6.4 | 0.00 | 0.00 | 0.00 | 58 | 1008.2 |
| 20260505120559 | 18 | 236 | 0.0 | 6.4 | 0.00 | 0.00 | 0.00 | 58 | 1008.1 |
| 20260505120551 | 18 | 225 | 0.0 | 1.6 | 0.00 | 0.00 | 0.00 | 58 | 1008.2 |
| 20260505120520 | 18 | 224 | 0.0 | 0.0 | 0.00 | 0.00 | 0.00 | 58 | 1008.2 |
| 20260505120358 | 18 | 236 | 0.0 | 1.6 | 0.00 | 0.00 | 0.00 | 59 | 1008.2 |
| 20260505120353 | 18 | 219 | 0.0 | 1.6 | 0.00 | 0.00 | 0.00 | 58 | 1008.2 |
| 20260505120218 | 18 | 214 | 0.0 | 3.2 | 0.00 | 0.00 | 0.00 | 59 | 1008.3 |
| 20260505120142 | 18 | 221 | 0.0 | 1.6 | 0.00 | 0.00 | 0.00 | 59 | 1008.3 |
| 20260505120100 | 18 | 215 | 0.0 | 3.2 | 0.00 | 0.00 | 0.00 | 60 | 1008.3 |
| 20260505120020 | 18 | 214 | 0.0 | 3.2 | 0.00 | 0.00 | 0.00 | 59 | 1008.3 |
| 20260505115941 | 18 | 214 | 0.0 | 3.2 | 0.00 | 0.00 | 0.00 | 59 | 1008.3 |
| 20260505115839 | 18 | 215 | 0.0 | 3.2 | 0.00 | 0.00 | 0.00 | 59 | 1008.3 |
| 20260505115739 | 18 | 221 | 0.0 | 3.2 | 0.00 | 0.00 | 0.00 | 60 | 1008.3 |
| 20260505115715 | 18 | 211 | 0.0 | 3.2 | 0.00 | 0.00 | 0.00 | 59 | 1008.3 |
| 20260505115638 | 18 | 198 | 0.0 | 3.2 | 0.00 | 0.00 | 0.00 | 59 | 1008.2 |
| 20260505115559 | 18 | 243 | 0.0 | 3.2 | 0.00 | 0.00 | 0.00 | 59 | 1008.2 |
| 20260505115520 | 18 | 191 | 0.0 | 3.2 | 0.00 | 0.00 | 0.00 | 59 | 1008.3 |
| 20260505115435 | 18 | 215 | 0.0 | 3.2 | 0.00 | 0.00 | 0.00 | 59 | 1008.3 |
| 20260505115334 | 18 | 191 | 0.0 | 3.2 | 0.00 | 0.00 | 0.00 | 60 | 1008.3 |
| 20260505115234 | 18 | 195 | 0.0 | 3.2 | 0.00 | 0.00 | 0.00 | 59 | 1008.4 |
| 20260505115133 | 18 | 199 | 0.0 | 3.2 | 0.00 | 0.00 | 0.00 | 60 | 1008.4 |
| 20260505115032 | 18 | 227 | 0.0 | 3.2 | 0.00 | 0.00 | 0.00 | 60 | 1008.4 |
| 20260505115020 | 18 | 227 | 0.0 | 3.2 | 0.00 | 0.00 | 0.00 | 60 | 1008.4 |
| 20260505114949 | 18 | 227 | 0.0 | 3.2 | 0.00 | 0.00 | 0.00 | 60 | 1008.4 |
| 20260505114931 | 18 | 188 | 0.0 | 3.2 | 0.00 | 0.00 | 0.00 | 60 | 1008.4 |
| 20260505114831 | 18 | 198 | 0.0 | 3.2 | 0.00 | 0.00 | 0.00 | 60 | 1008.4 |
| 20260505114731 | 18 | 222 | 0.0 | 3.2 | 0.00 | 0.00 | 0.00 | 61 | 1008.4 |
| 20260505114631 | 18 | 216 | 0.0 | 3.2 | 0.00 | 0.00 | 0.00 | 60 | 1008.4 |
| 20260505114530 | 18 | 217 | 0.0 | 3.2 | 0.00 | 0.00 | 0.00 | 61 | 1008.4 |
| 20260505114520 | 18 | 218 | 0.0 | 3.2 | 0.00 | 0.00 | 0.00 | 61 | 1008.4 |
| 20260505114449 | 18 | 229 | 0.0 | 3.2 | 0.00 | 0.00 | 0.00 | 63 | 1008.4 |
| 20260505114430 | 18 | 182 | 0.0 | 0.0 | 0.00 | 0.00 | 0.00 | 63 | 1008.4 |
| 20260505114329 | 18 | 212 | 0.0 | 0.0 | 0.00 | 0.00 | 0.00 | 63 | 1008.4 |
| 20260505114229 | 18 | 212 | 0.0 | 3.2 | 0.00 | 0.00 | 0.00 | 63 | 1008.4 |
| 20260505114143 | 18 | 212 | 0.0 | 3.2 | 0.00 | 0.00 | 0.00 | 62 | 1008.4 |
| 20260505114137 | 18 | 212 | 0.0 | 3.2 | 0.00 | 0.00 | 0.00 | 62 | 1008.4 |
| 20260505114020 | 18 | 212 | 0.0 | 3.2 | 0.00 | 0.00 | 0.00 | 62 | 1008.3 |
| 20260505113949 | 18 | 212 | 0.0 | 3.2 | 0.00 | 0.00 | 0.00 | 63 | 1008.3 |
| 20260505113926 | 18 | 175 | 0.0 | 3.2 | 0.00 | 0.00 | 0.00 | 63 | 1008.3 |
| 20260505113826 | 18 | 224 | 0.0 | 3.2 | 0.00 | 0.00 | 0.00 | 63 | 1008.3 |
| 20260505113752 | 18 | 224 | 0.0 | 3.2 | 0.00 | 0.00 | 0.00 | 61 | 1008.4 |
| 20260505113748 | 18 | 224 | 0.0 | 3.2 | 0.00 | 0.00 | 0.00 | 61 | 1008.4 |
| 20260505113743 | 18 | 224 | 0.0 | 3.2 | 0.00 | 0.00 | 0.00 | 62 | 1008.4 |
| 20260505113520 | 18 | 211 | 0.0 | 3.2 | 0.00 | 0.00 | 0.00 | 61 | 1008.4 |
| 20260505113447 | 18 | 217 | 0.0 | 3.2 | 0.00 | 0.00 | 0.00 | 61 | 1008.4 |
| 20260505113424 | 18 | 240 | 0.0 | 3.2 | 0.00 | 0.00 | 0.00 | 62 | 1008.4 |
| 20260505113323 | 18 | 188 | 0.0 | 3.2 | 0.00 | 0.00 | 0.00 | 64 | 1008.5 |
| 20260505113224 | 18 | 153 | 0.0 | 0.0 | 0.00 | 0.00 | 0.00 | 65 | 1008.5 |
| 20260505113124 | 17 | 153 | 0.0 | 0.0 | 0.00 | 0.00 | 0.00 | 63 | 1008.5 |
| 20260505113056 | 17 | 153 | 0.0 | 0.0 | 0.00 | 0.00 | 0.00 | 64 | 1008.4 |
| 20260505113052 | 17 | 103 | 0.0 | 0.0 | 0.00 | 0.00 | 0.00 | 64 | 1008.5 |
| 20260505113047 | 17 | 153 | 0.0 | 0.0 | 0.00 | 0.00 | 0.00 | 63 | 1008.5 |
| 20260505113038 | 17 | 153 | 0.0 | 0.0 | 0.00 | 0.00 | 0.00 | 63 | 1008.4 |
| 20260505113019 | 17 | 153 | 0.0 | 0.0 | 0.00 | 0.00 | 0.00 | 63 | 1008.4 |
| 20260505112737 | 17 | 206 | 0.0 | 0.0 | 0.00 | 0.00 | 0.00 | 64 | 1008.5 |
| 20260505112733 | 17 | 103 | 0.0 | 0.0 | 0.00 | 0.00 | 0.00 | 64 | 1008.5 |
| 20260505112524 | 17 | 206 | 0.0 | 0.0 | 0.00 | 0.00 | 0.00 | 65 | 1008.5 |
| 20260505112520 | 17 | 206 | 0.0 | 0.0 | 0.00 | 0.00 | 0.00 | 64 | 1008.4 |
| 20260505112423 | 17 | 206 | 0.0 | 0.0 | 0.00 | 0.00 | 0.00 | 64 | 1008.4 |
| 20260505112323 | 17 | 206 | 0.0 | 0.0 | 0.00 | 0.00 | 0.00 | 65 | 1008.4 |
| 20260505112223 | 17 | 206 | 0.0 | 0.0 | 0.00 | 0.00 | 0.00 | 65 | 1008.5 |
| 20260505112122 | 17 | 206 | 0.0 | 0.0 | 0.00 | 0.00 | 0.00 | 66 | 1008.4 |
| 20260505112022 | 17 | 206 | 0.0 | 0.0 | 0.00 | 0.00 | 0.00 | 67 | 1008.4 |
| 20260505112020 | 17 | 206 | 0.0 | 0.0 | 0.00 | 0.00 | 0.00 | 67 | 1008.4 |
| 20260505111947 | 17 | 206 | 0.0 | 0.0 | 0.00 | 0.00 | 0.00 | 67 | 1008.3 |
| 20260505111921 | 17 | 206 | 0.0 | 0.0 | 0.00 | 0.00 | 0.00 | 66 | 1008.3 |